[[{"header":{"parameterUnit":"m.s-1","parameterCategory":1,"la1":30.6,"la2":28.766,"lo1":-90.7593,"lo2":-88.6598,"dy":0.0162,"dx":0.0183,"nx":116,"ny":114,"refTime":"2023-09-29T18:00:00:Z","depth":0,"parameterNumber":2,"parameterNumberName":"U-component_of_WINDS"},"data":[0.0,0.0,0.0,0.0,0.0,0.0,0.0,0.0,0.0,0.0,0.0,0.0,0.0,0.0,0.0,0.0,0.0,0.0,0.0,0.0,0.0,0.0,0.0,0.0,0.0,0.0,0.0,0.0,0.0,0.0,0.0,0.0,0.0,0.0,0.0,0.0,0.0,0.0,0.0,0.0,0.0,0.0,0.0,0.0,0.0,0.0,0.0,0.0,0.0,0.0,0.0,0.0,0.0,0.0,0.0,0.0,0.0,0.0,0.0,0.0,0.0,0.0,0.0,0.0,0.0,0.0,0.0,0.0,0.0,0.0,0.0,0.0,0.0,0.0,0.0,0.0,0.0,0.0,0.0,0.0,0.0,0.0,0.0,0.0,0.0,0.0,0.0,0.0,0.0,0.0,0.0,0.0,0.0,0.0,0.0,0.0,0.0,0.0,0.0,0.0,0.0,0.0,0.0,0.0,0.0,0.0,0.0,0.0,0.0,0.0,0.0,0.0,0.0,0.0,0.0,0.0,0.0,0.0,0.0,0.0,0.0,0.0,0.0,0.0,0.0,0.0,0.0,0.0,0.0,0.0,0.0,0.0,0.0,0.0,0.0,0.0,0.0,0.0,0.0,0.0,0.0,0.0,0.0,0.0,0.0,0.0,0.0,0.0,0.0,0.0,0.0,0.0,0.0,0.0,0.0,0.0,0.0,0.0,0.0,0.0,0.0,0.0,0.0,0.0,0.0,0.0,0.0,0.0,0.0,0.0,0.0,0.0,0.0,0.0,0.0,0.0,0.0,0.0,0.0,0.0,0.0,0.0,0.0,0.0,0.0,0.0,0.0,0.0,0.0,0.0,0.0,0.0,0.0,0.0,0.0,0.0,0.0,0.0,0.0,0.0,0.0,0.0,0.0,0.0,0.0,0.0,0.0,0.0,0.0,0.0,0.0,0.0,0.0,0.0,0.0,0.0,0.0,0.0,0.0,0.0,0.0,0.0,0.0,0.0,0.0,0.0,0.0,0.0,0.0,0.0,0.0,0.0,0.0,0.0,0.0,0.0,0.0,0.0,0.0,0.0,0.0,0.0,0.0,0.0,0.0,0.0,0.0,0.0,0.0,0.0,0.0,0.0,0.0,0.0,0.0,0.0,0.0,0.0,0.0,0.0,0.0,0.0,0.0,0.0,0.0,0.0,0.0,0.0,0.0,0.0,0.0,0.0,0.0,0.0,0.0,0.0,0.0,0.0,0.0,0.0,0.0,0.0,0.0,0.0,0.0,0.0,0.0,0.0,0.0,0.0,0.0,0.0,0.0,0.0,0.0,0.0,0.0,0.0,0.0,0.0,0.0,0.0,0.0,0.0,0.0,0.0,0.0,0.0,0.0,0.0,0.0,0.0,0.0,0.0,0.0,0.0,0.0,0.0,0.0,0.0,0.0,0.0,0.0,0.0,0.0,0.0,0.0,0.0,0.0,0.0,0.0,0.0,0.0,0.0,0.0,0.0,0.0,0.0,0.0,0.0,0.0,0.0,0.0,0.0,0.0,0.0,0.0,0.0,0.0,0.0,0.0,0.0,0.0,0.0,0.0,0.0,0.0,0.0,0.0,0.0,0.0,0.0,0.0,0.0,0.0,0.0,0.0,0.0,0.0,0.0,0.0,0.0,0.0,0.0,0.0,0.0,0.0,0.0,0.0,0.0,0.0,0.0,0.0,0.0,0.0,0.0,0.0,0.0,0.0,0.0,0.0,0.0,0.0,0.0,0.0,0.0,0.0,0.0,0.0,0.0,0.0,0.0,0.0,0.0,0.0,0.0,0.0,0.0,0.0,0.0,0.0,0.0,0.0,0.0,0.0,0.0,0.0,0.0,0.0,0.0,0.0,0.0,0.0,0.0,0.0,0.0,0.0,0.0,0.0,0.0,0.0,0.0,0.0,0.0,0.0,0.0,0.0,0.0,0.0,0.0,0.0,0.0,0.0,0.0,0.0,0.0,0.0,0.0,0.0,0.0,0.0,0.0,0.0,0.0,0.0,0.0,0.0,0.0,0.0,0.0,0.0,0.0,0.0,0.0,0.0,0.0,0.0,0.0,0.0,0.0,0.0,0.0,0.0,0.0,0.0,0.0,0.0,0.0,0.0,0.0,0.0,0.0,0.0,0.0,0.0,0.0,0.0,0.0,0.0,0.0,0.0,0.0,0.0,0.0,0.0,0.0,0.0,0.0,0.0,0.0,0.0,0.0,0.0,0.0,0.0,0.0,0.0,0.0,0.0,0.0,0.0,0.0,0.0,0.0,0.0,0.0,0.0,0.0,0.0,0.0,0.0,0.0,0.0,0.0,0.0,0.0,0.0,0.0,0.0,0.0,0.0,0.0,0.0,0.0,0.0,0.0,0.0,0.0,0.0,0.0,0.0,0.0,0.0,0.0,0.0,0.0,0.0,0.0,0.0,0.0,0.0,0.0,0.0,0.0,0.0,0.0,0.0,0.0,0.0,0.0,0.0,0.0,0.0,0.0,0.0,0.0,0.0,0.0,0.0,0.0,0.0,0.0,0.0,0.0,0.0,0.0,0.0,0.0,0.0,0.0,0.0,0.0,0.0,0.0,0.0,0.0,0.0,0.0,0.0,0.0,0.0,0.0,0.0,0.0,0.0,0.0,0.0,0.0,0.0,0.0,0.0,0.0,0.0,0.0,0.0,0.0,0.0,0.0,0.0,0.0,0.0,0.0,0.0,0.0,0.0,0.0,0.0,0.0,0.0,0.0,0.0,0.0,0.0,0.0,0.0,0.0,0.0,0.0,0.0,0.0,0.0,0.0,0.0,0.0,0.0,0.0,0.0,0.0,0.0,0.0,0.0,0.0,0.0,0.0,0.0,0.0,0.0,0.0,0.0,0.0,0.0,0.0,0.0,0.0,0.0,0.0,0.0,0.0,0.0,0.0,0.0,0.0,0.0,0.0,0.0,0.0,0.0,0.0,0.0,0.0,0.0,0.0,0.0,0.0,0.0,0.0,0.0,0.0,0.0,0.0,0.0,0.0,0.0,0.0,0.0,0.0,0.0,0.0,0.0,0.0,0.0,0.0,0.0,0.0,0.0,0.0,0.0,0.0,0.0,0.0,0.0,0.0,0.0,0.0,0.0,0.0,0.0,0.0,0.0,0.0,0.0,0.0,0.0,0.0,0.0,0.0,0.0,0.0,0.0,0.0,0.0,0.0,0.0,0.0,0.0,0.0,0.0,0.0,0.0,0.0,0.0,0.0,0.0,0.0,0.0,0.0,0.0,0.0,0.0,0.0,0.0,0.0,0.0,0.0,0.0,0.0,0.0,0.0,0.0,0.0,0.0,0.0,0.0,0.0,0.0,0.0,0.0,0.0,0.0,0.0,0.0,0.0,0.0,0.0,0.0,0.0,0.0,0.0,0.0,0.0,0.0,0.0,0.0,0.0,0.0,0.0,0.0,0.0,0.0,0.0,0.0,0.0,0.0,0.0,0.0,0.0,0.0,0.0,0.0,0.0,0.0,0.0,0.0,0.0,0.0,0.0,0.0,0.0,0.0,0.0,0.0,0.0,0.0,0.0,0.0,0.0,0.0,0.0,0.0,0.0,0.0,0.0,0.0,0.0,0.0,0.0,0.0,0.0,0.0,0.0,0.0,0.0,0.0,0.0,0.0,0.0,0.0,0.0,0.0,0.0,0.0,0.0,0.0,0.0,0.0,0.0,0.0,0.0,0.0,0.0,0.0,0.0,0.0,0.0,0.0,0.0,0.0,0.0,0.0,0.0,0.0,0.0,0.0,0.0,0.0,0.0,0.0,0.0,0.0,0.0,0.0,0.0,0.0,0.0,0.0,0.0,0.0,0.0,0.0,0.0,0.0,0.0,0.0,0.0,0.0,0.0,0.0,0.0,0.0,0.0,0.0,0.0,0.0,0.0,0.0,0.0,0.0,0.0,0.0,0.0,0.0,0.0,0.0,0.0,0.0,0.0,0.0,0.0,0.0,0.0,0.0,0.0,0.0,0.0,0.0,0.0,0.0,0.0,0.0,0.0,0.0,0.0,0.0,0.0,0.0,0.0,0.0,0.0,0.0,0.0,0.0,0.0,0.0,0.0,0.0,0.0,0.0,0.0,0.0,0.0,0.0,0.0,0.0,0.0,0.0,0.0,0.0,0.0,0.0,0.0,0.0,0.0,0.0,0.0,0.0,0.0,0.0,0.0,0.0,0.0,0.0,0.0,0.0,0.0,0.0,0.0,0.0,0.0,0.0,0.0,0.0,0.0,0.0,0.0,0.0,0.0,0.0,0.0,0.0,0.0,0.0,0.0,0.0,0.0,0.0,0.0,0.0,0.0,0.0,0.0,0.0,0.0,0.0,0.0,0.0,0.0,0.0,0.0,0.0,0.0,0.0,0.0,0.0,0.0,0.0,0.0,0.0,0.0,0.0,0.0,0.0,0.0,0.0,0.0,0.0,0.0,0.0,0.0,0.0,0.0,0.0,0.0,0.0,0.0,0.0,0.0,0.0,0.0,0.0,0.0,0.0,0.0,0.0,0.0,0.0,0.0,0.0,0.0,0.0,0.0,0.0,0.0,0.0,0.0,0.0,0.0,0.0,0.0,0.0,0.0,0.0,0.0,0.0,0.0,0.0,0.0,0.0,0.0,0.0,0.0,0.0,0.0,0.0,0.0,0.0,0.0,0.0,0.0,0.0,0.0,0.0,0.0,0.0,0.0,0.0,0.0,0.0,0.0,0.0,0.0,0.0,0.0,0.0,0.0,0.0,0.0,0.0,0.0,0.0,0.0,0.0,0.0,0.0,0.0,0.0,0.0,0.0,0.0,0.0,0.0,0.0,0.0,0.0,0.0,0.0,0.0,0.0,0.0,0.0,0.0,0.0,0.0,0.0,0.0,0.0,0.0,0.0,0.0,0.0,0.0,0.0,0.0,0.0,0.0,0.0,0.0,0.0,0.0,0.0,0.0,0.0,0.0,0.0,0.0,0.0,0.0,0.0,0.0,0.0,0.0,0.0,0.0,0.0,0.0,0.0,0.0,0.0,0.0,0.0,0.0,0.0,0.0,0.0,0.0,0.0,0.0,0.0,0.0,0.0,0.0,0.0,0.0,0.0,0.0,0.0,0.0,0.0,0.0,0.0,0.0,0.0,0.0,0.0,0.0,0.0,0.0,0.0,0.0,0.0,0.0,0.0,0.0,0.0,0.0,0.0,0.0,0.0,0.0,0.0,0.0,0.0,0.0,0.0,0.0,0.0,0.0,0.0,0.0,0.0,0.0,0.0,0.0,0.0,0.0,0.0,0.0,0.0,0.0,0.0,0.0,0.0,0.0,0.0,0.0,0.0,0.0,0.0,0.0,0.0,0.0,0.0,0.0,0.0,0.0,0.0,0.0,0.0,0.0,0.0,0.0,0.0,0.0,0.0,0.0,0.0,0.0,0.0,0.0,0.0,0.0,0.0,0.0,0.0,0.0,0.0,0.0,0.0,0.0,0.0,0.0,0.0,0.0,0.0,0.0,0.0,0.0,0.0,0.0,0.0,0.0,0.0,0.0,0.0,0.0,0.0,0.0,0.0,0.0,0.0,0.0,0.0,0.0,0.0,0.0,0.0,0.0,0.0,0.0,0.0,0.0,0.0,0.0,0.0,0.0,0.0,0.0,0.0,0.0,0.0,0.0,0.0,0.0,0.0,0.0,0.0,0.0,0.0,0.0,0.0,0.0,0.0,0.0,0.0,0.0,0.0,0.0,0.0,0.0,0.0,0.0,0.0,0.0,0.0,0.0,0.0,0.0,0.0,0.0,0.0,0.0,0.0,0.0,0.0,0.0,0.0,0.0,0.0,0.0,0.0,0.0,0.0,0.0,0.0,0.0,0.0,0.0,0.0,0.0,0.0,0.0,0.0,0.0,0.0,0.0,0.0,0.0,0.0,0.0,0.0,0.0,0.0,0.0,0.0,0.0,0.0,0.0,0.0,0.0,0.0,0.0,0.0,0.0,0.0,0.0,0.0,0.0,0.0,0.0,0.0,0.0,0.0,0.0,0.0,0.0,0.0,0.0,0.0,0.0,0.0,0.0,0.0,0.0,0.0,0.0,0.0,0.0,0.0,0.0,0.0,0.0,0.1418,0.1557,0.0,0.0,0.0,0.0,0.0,0.0,0.0,0.0,0.0,0.0,0.0,0.0,0.0,0.0,0.0,0.0,0.0,0.0,0.0,0.0,0.0,0.0,0.0,0.0,0.0,0.0,0.0,0.0,0.0,0.0,0.0,0.0,0.0,0.0,0.0,0.0,0.0,-0.6375,-0.6301,-0.643,-0.6725,-0.5911,-0.5298,-0.4859,0.0,0.0,0.0,0.0,0.0,0.0,0.0,0.0,0.0,0.0,0.0,0.0,0.0,0.0,0.0,0.0,0.0,0.0,0.0,0.0,0.0,0.0,0.0,0.0,0.0,0.0,0.0,0.0,0.0,0.0,0.0,0.0,0.0,0.0,0.0,0.0,0.0,0.0,0.0,0.0,0.0,0.0,0.0,0.0,0.0,0.0,0.0,0.0,0.0,0.0,0.0,0.0,0.0,0.0,0.0,0.0,0.0,0.0,0.0,0.0,0.0,0.0,0.0,0.0,0.0,0.0,0.0,0.0,0.0,0.0,0.0841,0.1093,0.0,0.0,0.0,0.0,0.0,0.0,0.0,0.0,0.0,0.0,0.0,0.0,0.0,0.0,0.0,0.0,0.0,0.0,0.0,0.0,0.0,0.0,0.0,-0.6614,-0.6757,-0.7015,-0.7051,-0.7001,-0.689,0.0,0.0,0.0,0.0,0.0,-0.7425,-0.7406,-0.7369,-0.7365,-0.7336,-0.7379,-0.7473,-0.7433,-0.7053,-0.6376,-0.6085,0.0,0.0,0.0,0.0,0.0,0.0,0.0,0.0,0.0,0.0,0.0,0.0,0.0,0.0,0.0,0.0,0.0,0.0,0.0,0.0,0.0,0.0,0.0,0.0,0.0,0.0,0.0,0.0,0.0,0.0,0.0,0.0,0.0,0.0,0.0,0.0,0.0,0.0,0.0,0.0,0.0,0.0,0.0,0.0,0.0,0.0,0.0,0.0,0.0,0.0,0.0,0.0,0.0,0.0,0.0,0.0,0.0,0.0,0.0,0.0,0.0,0.0,0.0,-0.0879,-0.0904,-0.0904,-0.0904,-0.0822,-0.0623,0.0015,0.0401,0.0561,0.0561,0.0,0.0,0.0,0.0,0.0,0.0,0.0,0.0,0.0,0.0,0.0,0.0,0.0,0.0,0.0,0.0,0.0,0.0,0.0,-0.7304,-0.7266,-0.7467,-0.7607,-0.7606,-0.7845,-0.8016,-0.7981,0.0,0.0,0.0,0.0,0.0,-0.7567,-0.7896,-0.817,-0.8401,-0.879,-0.8999,-0.9011,-0.8773,-0.8549,-0.828,-0.7107,-0.6287,-0.5781,0.0,0.0,0.0,0.0,0.0,0.0,0.0,0.0,0.0,0.0,0.0,0.0,0.0,0.0,0.0,0.0,0.0,0.0,0.0,0.0,0.0,0.0,0.0,0.0,0.0,0.0,0.0,0.0,0.0,0.0,0.0,0.0,0.0,0.0,0.0,0.0,0.0,0.0,0.0,0.0,0.0,-0.078,-0.0788,0.0,0.0,0.0,0.0,0.0,0.0,0.0,0.0,0.0,0.0,0.0,0.0,0.0,-0.1716,-0.1725,-0.1725,-0.1727,-0.1727,-0.1733,-0.1737,-0.1737,-0.1737,-0.1719,-0.1682,-0.1419,0.0,0.0,0.0,0.0,0.0,0.0,0.0,0.0,0.0,0.0,0.0,0.0,0.0,0.0,0.0,0.0,0.0,0.0,0.0,0.0,0.0,0.0,0.0,0.0,-0.8127,-0.8338,-0.8321,-0.8387,-0.8401,-0.8376,-0.8306,0.0,0.0,0.0,-0.8843,-0.9165,-0.9353,-0.9525,-0.972,-0.9857,-1.0096,-1.0421,-1.0195,-1.0043,-0.9898,-0.9126,-0.8197,-0.718,-0.6859,0.0,0.0,0.0,0.0,0.0,0.0,0.0,0.0,0.0,0.0,0.0,0.0,0.0,0.0,0.0,0.0,0.0,0.0,0.0,0.0,0.0,0.0,0.0,0.0,0.0,0.0,0.0,0.0,0.0,0.0,0.0,0.0,0.0,0.0,0.0,0.0,0.0,0.0,0.0,-0.1426,-0.1523,-0.1664,-0.1718,-0.1806,0.0,0.0,0.0,0.0,0.0,0.0,0.0,0.0,0.0,-0.2589,-0.273,-0.2854,-0.2964,-0.3006,-0.3025,-0.3018,-0.3062,-0.3082,-0.3082,-0.3082,-0.3044,-0.2944,-0.2673,-0.2223,-0.1629,-0.1025,-0.0773,-0.0777,0.0,0.0,0.0,0.0,-0.0707,-0.0577,0.0,0.0,0.0,0.0,0.0,0.0,0.0,0.0,0.0,0.0,0.0,0.0,-0.8367,-0.8763,-0.8995,-0.8978,-0.9053,-0.9086,-0.905,-0.9097,-0.9354,-0.9817,-0.9794,-1.0044,-1.0618,-1.0795,-1.0999,-1.1197,-1.0993,-1.114,-1.158,-1.1364,-1.1215,-1.1122,-1.0819,-0.9859,-0.8437,-0.808,-0.7612,-0.7065,0.0,0.0,0.0,0.0,0.0,0.0,0.0,0.0,0.0,0.0,0.0,0.0,0.0,0.0,0.0,0.0,0.0,0.0,0.0,0.0,0.0,0.0,0.0,0.0,0.0,0.0,0.0,0.0,0.0,0.0,0.0,0.0,0.0,0.0,0.0,0.0,0.0,-0.2195,-0.2369,-0.2654,-0.2691,-0.2798,0.0,0.0,0.0,0.0,0.0,0.0,-0.3515,-0.3554,-0.3653,-0.3817,-0.3946,-0.408,-0.4235,-0.429,-0.4311,-0.4311,-0.4369,-0.4381,-0.4381,-0.4381,-0.4299,-0.4111,-0.3819,-0.3537,-0.3195,-0.2087,-0.1618,-0.1579,-0.1579,-0.156,-0.1514,-0.1514,-0.1445,-0.1309,0.0,0.0,0.0,0.0,0.0,0.0,0.0,0.0,0.0,0.0,0.0,-0.872,-0.9094,-0.94,-0.9537,-0.9464,-1.0096,-1.0492,-1.0481,-1.0913,-1.1117,-1.1022,-1.089,-1.0951,-1.1243,-1.1889,-1.24,-1.2782,-1.2463,-1.2315,-1.2336,-1.2072,-1.1877,-1.1752,-1.1541,-1.0589,-0.9129,-0.8929,-0.8487,-0.7901,-0.7424,0.0,0.0,0.0,0.0,0.0,0.0,0.0,0.0,0.0,0.0,0.0,0.0,0.0,0.0,0.0,0.0,0.0,0.0,0.0,0.0,0.0,0.0,0.0,0.0,0.0,0.0,0.0,0.0,0.0,0.0,0.0,0.0,0.0,0.0,0.0,0.0,0.0,0.0,-0.3681,-0.3778,0.0,0.0,0.0,0.0,-0.459,-0.479,-0.4899,-0.4899,-0.5073,-0.5179,-0.5199,-0.532,-0.5406,-0.5406,-0.5412,-0.5417,-0.5417,-0.5423,-0.5423,-0.5423,-0.5423,-0.5277,-0.5022,-0.4814,-0.458,-0.4238,-0.3027,-0.2469,-0.2337,-0.2337,-0.2337,-0.2334,-0.2334,-0.2226,-0.2027,0.0,0.0,0.0,0.0,0.0,0.0,0.0,0.0,-0.8181,-0.8615,-0.89,-0.9211,-0.9666,-1.0024,-1.0357,-1.0636,-1.0823,-1.1014,-1.1223,-1.1321,-1.1559,-1.1983,-1.1954,-1.2238,-1.2901,-1.3194,-1.3532,-1.3932,-1.3909,-1.3993,-1.4193,-1.3884,-1.3712,-1.365,-1.3371,-1.2749,-1.1827,-1.068,-0.9892,-0.9376,-0.8808,-0.8258,0.0,0.0,0.0,0.0,0.0,0.0,0.0,0.0,0.0,0.0,0.0,0.0,0.0,0.0,0.0,0.0,0.0,0.0,0.0,0.0,0.0,0.0,0.0,0.0,0.0,0.0,0.0,0.0,0.0,0.0,0.0,0.0,0.0,0.0,0.0,0.0,0.0,-0.4912,-0.4978,0.0,-0.5528,-0.5625,-0.5727,-0.5918,-0.608,-0.6158,-0.6158,-0.6214,-0.6331,-0.6463,-0.6542,-0.6657,-0.6792,-0.686,-0.6911,-0.6911,-0.6911,-0.6911,-0.6911,-0.6731,-0.6596,-0.6506,-0.6077,-0.5807,-0.5626,-0.4953,-0.4195,-0.3496,-0.3496,-0.3466,-0.3421,-0.3285,-0.3106,-0.2889,0.0,0.0,0.0,0.0,0.0,0.0,0.0,-0.7955,-0.8331,-0.8889,-0.9197,-0.9599,-1.0209,-1.0628,-1.0994,-1.1267,-1.1497,-1.1692,-1.1924,-1.2142,-1.2437,-1.2893,-1.3234,-1.3659,-1.4197,-1.4503,-1.481,-1.5071,-1.5057,-1.5155,-1.5359,-1.5034,-1.4871,-1.4854,-1.4527,-1.4179,-1.3767,-1.2535,-1.1504,-1.0656,-1.0,-0.9359,-0.871,0.0,0.0,0.0,0.0,0.0,0.0,0.0,0.0,0.0,0.0,0.0,0.0,0.0,0.0,0.0,0.0,0.0,0.0,0.0,0.0,0.0,0.0,0.0,0.0,0.0,0.0,0.0,0.0,0.0,0.0,0.0,0.0,0.0,0.0,-0.5515,-0.5846,-0.6233,-0.6341,-0.6498,-0.6799,-0.6891,-0.6996,-0.7199,-0.7327,-0.7444,-0.7546,-0.7576,-0.7672,-0.7797,-0.7841,-0.7951,-0.8077,-0.8165,-0.8169,-0.8076,-0.8076,-0.8029,-0.7942,-0.7755,-0.7614,-0.752,-0.7167,-0.6946,-0.6806,-0.6446,-0.5858,-0.5133,-0.4624,-0.4408,-0.4353,-0.4128,-0.3907,-0.3682,0.0,0.0,0.0,0.0,0.0,0.0,-0.8066,-0.8204,-0.8508,-0.9377,-0.9501,-0.9843,-1.0711,-1.1164,-1.1389,-1.1338,-1.2115,-1.2608,-1.266,-1.3431,-1.3872,-1.3779,-1.4701,-1.5176,-1.5062,-1.5825,-1.6227,-1.6246,-1.5928,-1.5785,-1.5787,-1.5447,-1.5284,-1.5285,-1.494,-1.4775,-1.4742,-1.4413,-1.3299,-1.1747,-1.0973,-1.0229,-0.953,0.0,0.0,0.0,0.0,0.0,0.0,0.0,0.0,0.0,0.0,0.0,0.0,0.0,0.0,0.0,0.0,0.0,0.0,0.0,0.0,0.0,0.0,0.0,0.0,0.0,0.0,0.0,0.0,0.0,0.0,0.0,0.0,0.0,-0.6483,-0.6811,-0.7283,-0.7614,-0.7827,-0.801,-0.8139,-0.8156,-0.8251,-0.8454,-0.8593,-0.8774,-0.9032,-0.9175,-0.9243,-0.9251,-0.9251,-0.9236,-0.9268,-0.9244,-0.9112,-0.8863,-0.8863,-0.8714,-0.848,-0.8457,-0.8316,-0.8058,-0.8058,-0.7933,-0.7715,-0.7456,-0.7338,-0.7193,-0.5724,-0.5152,-0.511,-0.4843,-0.4608,-0.439,0.0,0.0,0.0,0.0,0.0,0.0,-0.8066,-0.8204,-0.8508,-0.9377,-0.9501,-0.9851,-1.0779,-1.1273,-1.1665,-1.2005,-1.2474,-1.3019,-1.3638,-1.3824,-1.4324,-1.5248,-1.5752,-1.6146,-1.6444,-1.6703,-1.6996,-1.7283,-1.7387,-1.7585,-1.7886,-1.7475,-1.7297,-1.7297,-1.6955,-1.6616,-1.6263,-1.567,-1.5002,-1.4179,-1.2662,-1.1721,-1.1167,0.0,0.0,0.0,0.0,0.0,0.0,0.0,0.0,0.0,0.0,0.0,0.0,0.0,0.0,0.0,0.0,0.0,0.0,0.0,0.0,0.0,0.0,0.0,0.0,0.0,0.0,0.0,0.0,0.0,0.0,0.0,-0.8458,-0.8449,-0.7763,-0.8056,-0.8472,-0.886,-0.8942,-0.9117,-0.9444,-0.9481,-0.9649,-1.0043,-1.0094,-1.0159,-1.0237,-1.0269,-1.0338,-1.0428,-1.0248,-1.0287,-1.0571,-1.0383,-1.0312,-1.039,-1.039,-1.0272,-1.0045,-0.9863,-0.9665,-0.9429,-0.904,-0.8845,-0.8764,-0.8403,-0.8232,-0.8108,-0.6878,-0.6353,-0.6226,-0.5964,-0.5495,-0.4969,0.0,0.0,0.0,0.0,0.0,0.0,-0.8066,-0.8204,-0.8508,-0.9377,-0.9501,-0.986,-1.0798,-1.1498,-1.1996,-1.2276,-1.281,-1.3443,-1.415,-1.4399,-1.5043,-1.6232,-1.6538,-1.6901,-1.7372,-1.7694,-1.7974,-1.819,-1.839,-1.8591,-1.882,-1.8507,-1.8341,-1.8341,-1.797,-1.7658,-1.7369,-1.6633,-1.6104,-1.5634,-1.428,-1.3107,-1.2135,-1.1511,-1.068,-0.9792,-0.9449,-0.8852,-0.8182,-0.7916,0.0,0.0,0.0,0.0,0.0,0.0,0.0,0.0,0.0,0.0,0.0,0.0,0.0,0.0,0.0,0.0,0.0,0.0,0.0,0.0,0.0,0.0,0.0,0.0,-0.9627,-0.9852,-0.9717,-0.9547,-0.9566,-0.9899,-1.0026,-1.0213,-1.0556,-1.0595,-1.0732,-1.1085,-1.1114,-1.1193,-1.1369,-1.1379,-1.1453,-1.1658,-1.1496,-1.1537,-1.1786,-1.1617,-1.1546,-1.1537,-1.1537,-1.137,-1.103,-1.0868,-1.0654,-1.0407,-1.0079,-0.9911,-0.9813,-0.9451,-0.9192,-0.8911,0.0,0.0,0.0,0.0,-0.6373,-0.5897,0.0,0.0,0.0,0.0,0.0,0.0,-0.8059,-0.8204,-0.8508,-0.9377,-0.9501,-0.986,-1.0798,-1.1747,-1.2297,-1.2297,-1.3114,-1.3815,-1.4333,-1.5089,-1.5934,-1.6868,-1.7113,-1.7459,-1.7991,-1.8597,-1.8951,-1.9008,-1.9106,-1.9156,-1.9214,-1.8991,-1.888,-1.8861,-1.849,-1.8267,-1.8137,-1.7423,-1.6879,-1.6429,-1.5739,-1.4413,-1.2804,-1.2445,-1.1692,-1.0753,-1.0247,-0.9725,-0.9189,-0.873,0.0,0.0,0.0,0.0,0.0,0.0,0.0,0.0,0.0,0.0,0.0,0.0,0.0,0.0,0.0,0.0,0.0,0.0,0.0,0.0,0.0,0.0,0.0,0.0,-1.0799,-1.1391,-1.1896,-1.1219,-1.0729,-1.0914,-1.1098,-1.1314,-1.1587,-1.1628,-1.1719,-1.1932,-1.1973,-1.2159,-1.251,-1.253,0.0,0.0,0.0,-1.2838,-1.2869,-1.2817,-1.2672,-1.2469,-1.2443,-1.2138,-1.1678,-1.1678,-1.1478,-1.12,-1.1123,-1.0999,-1.0814,-1.0501,-1.0113,-0.9624,-0.8497,-0.8072,-0.8018,-0.7574,-0.7261,-0.7009,0.0,0.0,0.0,0.0,0.0,0.0,-0.8052,-0.8204,-0.8508,-0.9377,-0.9501,-0.986,-1.0798,-1.1747,-1.2297,-1.2297,-1.3114,-1.396,-1.48,-1.5718,-1.6599,-1.7492,-1.7477,-1.7811,-1.8605,-1.8949,-1.9342,-1.9703,-1.9885,-2.0169,-2.0524,-2.0159,-2.0005,-1.9985,-1.9676,-1.9275,-1.8805,-1.8541,-1.7914,-1.7009,-1.6597,-1.5564,-1.4196,-1.3268,-1.2633,-1.2117,-1.1374,-1.0769,-1.0248,-0.9766,-0.9256,-0.8745,-0.8337,-0.7938,0.0,0.0,0.0,0.0,0.0,0.0,0.0,0.0,0.0,0.0,0.0,0.0,0.0,0.0,0.0,0.0,0.0,0.0,0.0,-1.1825,-1.2236,-1.2568,-1.2879,-1.2936,-1.2821,-1.2451,-1.2428,-1.2551,-1.2821,-1.3058,-1.3258,-1.3456,-1.3671,-1.3828,-1.3903,-1.3903,-1.3925,-1.3996,-1.3766,-1.3762,-1.3996,-1.3514,-1.3319,-1.3435,-1.321,0.0,-1.27,-1.27,-1.2575,-1.2339,-1.19,-1.17,-1.1637,-1.1086,-1.0723,-1.0339,-0.9016,-0.847,-0.8455,-0.8275,-0.8013,-0.7762,0.0,0.0,0.0,0.0,0.0,0.0,-0.7996,-0.8183,-0.8508,-0.9377,-0.9501,-0.986,-1.0798,-1.1747,-1.2297,-1.2297,-1.3529,-1.4511,-1.4966,-1.587,-1.6788,-1.7668,-1.7647,-1.8027,-1.8927,-1.9402,-1.9781,-2.0003,-2.0485,-2.0831,-2.1032,-2.0741,-2.0605,-2.0586,-2.0254,-1.9925,-1.9601,-1.89,-1.823,-1.7588,-1.692,-1.6193,-1.5394,-1.443,-1.3558,-1.2774,-1.2211,-1.1599,-1.1032,-1.0561,-1.016,-0.9768,-0.9309,-0.8918,-0.8589,0.0,0.0,0.0,0.0,0.0,0.0,0.0,0.0,0.0,0.0,0.0,0.0,0.0,0.0,-1.1215,-1.164,0.0,-1.2281,-1.2808,-1.3119,-1.3442,-1.3898,-1.4072,-1.3953,-1.3413,-1.3367,-1.3508,-1.392,-1.4085,-1.4262,-1.4521,-1.4537,-1.46,-1.4691,-1.4573,-1.4565,-1.4653,-1.4522,-1.4511,-1.4646,-1.4343,-1.4249,-1.4342,-1.4207,-1.3954,-1.3587,-1.3587,-1.3375,-1.2981,-1.2717,-1.2542,-1.2408,-1.173,-1.1395,-1.1183,-1.0087,-0.9428,-0.9096,-0.9027,-0.8755,-0.8394,0.0,0.0,0.0,0.0,0.0,0.0,-0.7824,-0.8085,-0.8472,-0.9291,-0.9439,-0.981,-1.0674,-1.1602,-1.2224,-1.24,-1.3922,-1.4904,-1.4987,-1.5787,-1.6684,-1.7668,-1.7709,-1.8138,-1.9077,-1.9716,-2.0081,-2.0163,-2.0813,-2.1182,-2.1244,-2.1051,-2.0955,-2.0897,-2.0566,-2.0314,-2.0101,-1.9071,-1.8397,-1.7972,-1.7133,-1.6614,-1.6263,-1.5446,-1.4413,-1.3348,-1.293,-1.2348,-1.1734,-1.1278,-1.097,-1.071,-1.0232,-0.9924,-0.9646,-0.9355,-0.9357,0.0,0.0,0.0,0.0,0.0,0.0,0.0,0.0,-1.0897,-1.1348,-1.1564,-1.1926,-1.2289,-1.2551,-1.3012,-1.3441,-1.3706,-1.403,-1.442,-1.4897,-1.5089,-1.5014,-1.4568,-1.4346,-1.4411,-1.4899,-1.4985,-1.5107,-1.5378,-1.5247,-1.5239,-1.5403,-1.5205,-1.5153,-1.5324,-1.5282,-1.5256,-1.5256,-1.5148,-1.5095,-1.5095,-1.5041,-1.4773,-1.4358,-1.4358,-1.4062,-1.3559,-1.3423,-1.3268,-1.3022,-1.2356,-1.2086,-1.1973,-1.1278,-1.0541,-0.9871,-0.9789,-0.9451,-0.9023,0.0,0.0,0.0,0.0,0.0,0.0,0.0,0.0,-0.8318,-0.8888,-0.9278,-0.9686,-1.0211,-1.1126,-1.1985,-1.2761,-1.3774,-1.4552,-1.4966,-1.5497,-1.6353,-1.7647,-1.7709,-1.8138,-1.9077,-1.9582,-2.002,-2.0377,-2.0692,-2.1048,-2.1455,-2.1263,-2.107,-2.0916,-2.0838,-2.039,-1.9678,-1.9544,-1.8824,-1.7802,-1.7531,-1.706,-1.6489,-1.5873,-1.5149,-1.4441,-1.3748,-1.3056,-1.2441,-1.2076,-1.1744,-1.1403,-1.0939,-1.0635,-1.0436,-1.0293,-1.0179,-1.0093,-1.0079,-1.0483,-1.093,-1.0899,-1.1358,-1.18,0.0,-1.2242,-1.2681,-1.2709,-1.3218,-1.3758,-1.4024,-1.4358,-1.4691,-1.4954,-1.5459,-1.5883,-1.5929,-1.6461,-1.6808,-1.676,-1.5912,-1.5454,-1.5808,-1.6037,-1.6137,-1.6163,-1.6364,-1.6501,-1.6527,-1.65,-1.6486,-1.6511,-1.6285,-1.6164,-1.6164,-1.5696,-1.5428,-1.5428,-1.5148,-1.4961,-1.4907,-1.4907,-1.4746,-1.4412,-1.3883,-1.3521,-1.3264,-1.2979,-1.273,-1.2483,-1.2232,-1.1636,-1.0885,-1.045,-1.0117,-0.9821,0.0,0.0,0.0,0.0,0.0,0.0,0.0,0.0,-0.8268,-0.8728,-0.8994,-0.9431,-1.0128,-1.1033,-1.1954,-1.2812,-1.3514,-1.4208,-1.4945,-1.5435,-1.6187,-1.7254,-1.7564,-1.8014,-1.8667,-1.9409,-1.9886,-2.0055,-2.0403,-2.0679,-2.0864,-2.0661,-2.0513,-2.042,-2.0236,-1.9932,-1.9569,-1.9096,-1.8606,-1.8103,-1.7538,-1.703,-1.654,-1.6072,-1.5441,-1.4729,-1.4113,-1.3433,0.0,-1.2681,-1.2436,-1.2116,-1.1711,-1.1399,-1.1135,-1.0868,-1.0914,-1.1064,-1.1356,-1.17,-1.1967,-1.1967,-1.2214,-1.2514,-1.265,-1.2942,-1.3252,-1.3435,-1.3828,-1.4179,-1.4285,-1.4706,-1.5126,-1.5449,-1.5869,-1.6206,-1.6364,-1.6794,-1.7169,-1.7313,-1.7097,-1.696,-1.6942,-1.7011,-1.7066,-1.7042,-1.7016,-1.6987,-1.6987,-1.6816,-1.671,-1.671,-1.6794,-1.6816,-1.6816,-1.6611,-1.6393,-1.6247,-1.591,-1.5584,-1.5282,-1.5282,-1.5041,-1.46,-1.4342,-1.4072,-1.3802,-1.351,-1.3334,-1.3217,-1.2852,-1.2424,-1.1867,-1.1107,-1.0559,-1.0216,0.0,0.0,0.0,0.0,0.0,0.0,0.0,0.0,0.0,0.0,-0.8715,-0.9187,-1.0108,-1.1033,-1.1902,-1.2657,-1.3154,-1.3815,-1.4738,-1.5248,-1.5898,-1.6814,-1.7275,-1.7745,-1.8195,-1.9015,-1.9471,-1.9616,-2.0017,-2.0289,-2.0413,-2.0252,-2.0163,-2.0091,-1.9805,-1.9564,-1.9354,-1.8718,-1.8307,-1.7987,-1.7404,-1.6857,-1.6367,-1.596,-1.543,-1.4829,-1.4329,-1.3729,-1.3133,-1.3087,-1.2921,-1.2673,-1.2431,-1.2126,-1.184,-1.17,-1.1827,-1.2104,-1.2431,-1.2691,-1.2892,-1.2999,-1.3161,-1.3378,-1.3663,-1.3871,-1.4065,-1.4329,-1.4597,-1.4822,-1.4908,-1.5368,-1.582,-1.6158,-1.6512,-1.6777,-1.6889,-1.7261,-1.7579,-1.7708,-1.8102,-1.8255,-1.7986,-1.7869,-1.7836,-1.7832,-1.7569,-1.745,-1.7556,-1.7237,-1.7103,-1.718,-1.7359,-1.7462,-1.7462,-1.7376,-1.7209,-1.7009,-1.6695,-1.6323,-1.5964,-1.5731,-1.5325,-1.4853,-1.4734,-1.4557,-1.4299,-1.4045,-1.3856,-1.3684,-1.332,-1.3005,-1.2608,-1.1803,-1.1116,-1.0582,0.0,0.0,0.0,0.0,0.0,0.0,0.0,0.0,0.0,0.0,0.0,-0.9094,-1.0078,-1.1033,-1.1788,-1.2266,-1.2689,-1.3307,-1.425,-1.4759,-1.5435,-1.6367,-1.6814,-1.7239,-1.7709,-1.8195,-1.8683,-1.9119,-1.9596,-2.0014,-2.0413,-2.0395,-2.0288,-2.0091,-1.9949,-1.9529,-1.8916,-1.8686,-1.8044,-1.7155,-1.7119,-1.6622,-1.5888,-1.5482,-1.516,-1.4844,-1.4439,-1.3944,-1.3465,-1.3333,-1.3165,-1.2981,-1.2981,-1.2781,-1.2631,-1.2949,-1.3054,-1.3051,-1.3067,-1.3309,-1.3645,-1.3968,-1.4304,-1.4622,-1.4973,-1.5309,-1.5533,-1.5548,-1.5823,-1.6137,-1.6457,-1.6813,-1.7149,-1.7484,-1.7819,-1.7955,-1.7691,-1.8249,-1.8553,-1.8306,-1.8877,-1.9168,-1.8881,-1.8579,-1.8382,-1.837,-1.8148,-1.8127,-1.8441,-1.8144,-1.8115,-1.8423,-1.8214,-1.8076,-1.8076,-1.7755,-1.7588,-1.7588,-1.7297,-1.7145,-1.7105,-1.6267,-1.5744,-1.5455,-1.5122,-1.4853,-1.4573,-1.4573,-1.4234,-1.3694,-1.3684,-1.3415,-1.2945,-1.2654,-1.1947,-1.1054,0.0,0.0,0.0,0.0,0.0,0.0,0.0,0.0,0.0,0.0,0.0,0.0,0.0,0.0,0.0,0.0,-1.2234,-1.2875,-1.3774,-1.427,-1.4945,-1.5891,-1.6353,-1.6794,-1.7234,-1.7704,-1.8014,-1.8159,-1.8324,-1.863,-1.9065,-1.9065,-1.9031,-1.8948,-1.868,-1.8275,-1.7739,-1.7462,-1.7142,-1.6821,-1.6693,-1.6249,-1.5666,-1.5396,-1.5023,-1.4602,0.0,-1.4043,-1.3694,-1.3649,-1.3437,-1.3196,-1.3196,-1.3222,-1.3329,-1.3721,-1.3981,-1.412,-1.4001,-1.4396,-1.4858,-1.4838,-1.4987,-1.5215,-1.5556,-1.5627,-1.5665,-1.5894,-1.6031,-1.6118,-1.6261,-1.6719,-1.7132,-1.7239,-1.7743,-1.8063,-1.797,-1.8523,-1.8863,-1.8592,-1.9157,-1.9454,-1.9194,-1.8895,-1.8646,-1.8422,-1.8512,-1.8653,-1.875,-1.8659,-1.8659,-1.8754,-1.8664,-1.863,-1.863,-1.8531,-1.836,-1.8194,-1.7537,-1.7198,-1.7198,-1.6665,-1.6208,-1.5767,-1.5647,-1.5217,-1.46,-1.46,-1.4369,-1.4029,-1.4029,-1.3787,-1.3452,-1.3218,-1.268,-1.2018,0.0,0.0,0.0,0.0,0.0,0.0,0.0,0.0,0.0,0.0,0.0,0.0,0.0,0.0,0.0,0.0,0.0,-1.2421,-1.3287,-1.3795,-1.4395,-1.5166,-1.5642,-1.6105,-1.6545,-1.7,-1.7311,-1.7461,-1.7626,-1.7833,-1.8154,-1.8154,-1.8154,-1.8138,-1.7804,-1.7483,-1.7195,-1.6849,-1.6625,-1.6469,-1.6344,-1.5873,-1.5221,-1.5046,-1.4639,0.0,-1.4143,-1.3959,-1.3741,-1.3837,-1.3694,-1.3484,-1.3484,-1.367,-1.3948,-1.428,-1.4628,-1.489,-1.4898,-1.524,-1.5646,-1.5775,-1.579,-1.5885,-1.6253,-1.6151,-1.6036,-1.6268,-1.6314,-1.6345,-1.6505,-1.6992,-1.7395,-1.7519,-1.7993,-1.8319,-1.8249,-1.881,-1.9143,-1.8863,-1.936,-1.962,-1.9454,-1.931,-1.9132,-1.8907,-1.8985,-1.9158,-1.9384,-1.9306,-1.9208,-1.9206,-1.9227,-1.9193,-1.9078,-1.9092,-1.8934,-1.8636,-1.7941,-1.7519,-1.7335,-1.7008,-1.661,-1.6192,-1.6085,-1.5682,-1.5058,-1.4833,-1.4584,-1.4326,-1.4245,-1.4056,-1.3846,-1.3608,-1.3289,-1.2883,0.0,0.0,0.0,0.0,0.0,0.0,0.0,0.0,0.0,0.0,0.0,0.0,0.0,0.0,0.0,0.0,0.0,0.0,-1.2759,-1.3266,-1.3741,-1.4229,-1.4697,-1.5152,-1.5663,-1.6098,-1.6519,-1.6888,-1.7337,-1.7564,-1.7606,-1.7606,-1.7585,-1.7554,-1.7265,-1.709,-1.7039,-1.6711,-1.6348,-1.5987,-1.5987,-1.541,-1.4551,-1.4416,-1.4006,-1.3542,-1.3774,-1.3764,-1.3647,-1.3912,-1.392,-1.3799,-1.3834,-1.4107,-1.4463,-1.4695,-1.4975,-1.5323,-1.5703,-1.5837,-1.602,-1.6732,-1.6717,-1.6652,-1.7017,-1.6914,-1.671,-1.671,-1.671,-1.6821,-1.7212,-1.7546,-1.788,-1.8208,-1.8573,-1.8719,-1.8543,-1.9113,-1.9412,-1.9143,-1.9487,-1.9724,-1.9698,-1.9775,-1.9823,-1.9811,-1.9531,-1.9642,-2.0286,-2.0033,-1.9849,-1.9866,-1.9809,-1.9678,-1.943,-1.9401,-1.9243,-1.891,-1.859,-1.8159,-1.7621,-1.7318,-1.7,-1.6706,-1.6441,-1.6183,-1.5885,-1.5302,-1.4864,-1.4595,-1.4326,-1.4218,-1.4164,-1.384,-1.3694,-1.3578,0.0,0.0,0.0,0.0,0.0,0.0,0.0,0.0,0.0,0.0,0.0,0.0,0.0,0.0,0.0,0.0,0.0,0.0,-1.1747,-1.2218,-1.2868,-1.3741,-1.3898,-1.4345,-1.5152,-1.5311,-1.5401,-1.5511,-1.5615,-1.5877,-1.6208,-1.6208,-1.6166,-1.6052,-1.5861,-1.5544,-1.5103,-1.4861,-1.4699,-1.4615,-1.4615,-1.4396,-1.4067,-1.3931,-1.371,-1.3505,-1.3461,-1.3612,-1.3852,-1.4123,-1.4025,-1.3904,-1.4447,-1.4617,-1.4746,-1.5342,-1.5579,-1.5696,-1.5958,-1.6206,-1.6487,-1.6837,-1.7033,-1.7203,-1.7306,-1.7139,-1.6996,-1.6996,-1.6833,-1.6721,-1.6837,-1.7159,-1.753,-1.7864,-1.8208,-1.8503,-1.8703,-1.9336,-1.9705,-1.9437,-1.9917,-2.0127,-1.9739,-1.9934,-2.0098,-2.0091,-2.0258,-2.0406,-2.058,-2.0515,-2.0458,-2.0457,-2.004,-1.9764,-1.9707,-1.9504,-1.9372,-1.9272,-1.8939,-1.858,-1.8197,-1.789,-1.7481,-1.6984,-1.6911,-1.6638,-1.6183,-1.5814,-1.537,-1.4883,-1.4597,-1.4369,-1.4191,-1.411,-1.3921,-1.3657,0.0,0.0,0.0,0.0,0.0,0.0,0.0,0.0,0.0,0.0,0.0,0.0,0.0,0.0,0.0,0.0,0.0,0.0,0.0,-1.1491,-1.2092,-1.2875,-1.2895,-1.3326,-1.4228,-1.4248,-1.444,-1.4816,-1.4816,-1.4973,-1.5219,-1.5219,-1.5178,-1.5111,-1.4962,-1.4733,-1.4387,-1.4181,-1.41,0.0,0.0,-1.3917,-1.3611,-1.3493,-1.3235,-1.2978,-1.3013,-1.3415,-1.3919,-1.407,-1.4075,-1.4121,-1.4724,-1.4854,-1.4911,-1.56,-1.5805,-1.5907,-1.6327,-1.6595,-1.6828,-1.7271,-1.7456,-1.7526,-1.7526,-1.7383,-1.72,-1.7119,-1.6976,-1.6833,-1.671,-1.7032,-1.7403,-1.7737,-1.8065,-1.843,-1.8757,-1.9431,-1.9836,-1.969,-2.0169,-2.0333,-1.9905,-2.0185,-2.033,-2.0223,-2.0517,-2.0751,-2.0897,-2.093,-2.0845,-2.0687,-2.027,-1.9895,-1.962,-1.9475,-1.9401,-1.9401,-1.9055,-1.8735,-1.8386,-1.8106,-1.774,-1.7261,-1.7141,-1.6922,-1.6625,-1.6223,-1.5703,-1.5148,-1.4865,-1.4537,-1.4191,-1.4191,-1.4083,-1.3867,0.0,0.0,0.0,0.0,0.0,0.0,0.0,0.0,0.0,0.0,-0.7333,0.0,0.0,0.0,0.0,0.0,0.0,0.0,0.0,0.0,-1.1327,-1.1874,-1.1905,-1.2278,-1.3116,-1.3136,-1.3508,-1.4323,-1.4323,-1.4363,-1.4411,-1.4411,-1.4411,-1.4398,-1.4274,-1.4175,-1.4103,-1.3913,-1.3821,-1.3763,-1.375,-1.3459,-1.3029,0.0,-1.2576,-1.2264,-1.2584,-1.3139,-1.375,-1.386,-1.407,-1.4381,-1.4804,-1.4902,-1.501,-1.5635,-1.5805,-1.5959,-1.6661,-1.6831,-1.6985,-1.7666,-1.7717,-1.7597,-1.7597,-1.7436,-1.7251,-1.7033,-1.6972,-1.6887,-1.6671,-1.6921,-1.7276,-1.7673,-1.8023,-1.8351,-1.8693,-1.9423,-1.9884,-1.9884,-2.0295,-2.0437,-2.0138,-2.043,-2.0523,-2.021,-2.0546,-2.0882,-2.1189,-2.1203,-2.1031,-2.0658,-2.0414,-2.0025,-1.9401,-1.9401,-1.9401,-1.9401,-1.9127,-1.8765,-1.8386,-1.8165,-1.7843,-1.7496,-1.7237,-1.7141,-1.7117,-1.6596,-1.6051,-1.5482,-1.5215,-1.4757,-1.4245,-1.4245,-1.4223,-1.411,0.0,0.0,0.0,0.0,0.0,0.0,0.0,0.0,0.0,0.0,-0.7095,-0.7303,0.0,0.0,0.0,0.0,0.0,0.0,0.0,0.0,0.0,-1.1368,-1.1419,-1.1661,-1.2198,-1.2229,-1.2469,-1.2951,-1.2951,-1.3121,-1.3439,-1.3439,-1.341,-1.3365,-1.334,-1.3056,-1.257,-1.2535,-1.2332,-1.2023,-1.1901,-1.1806,-1.1714,-1.151,0.0,0.0,-1.2473,-1.2803,-1.301,-1.369,-1.407,-1.4396,-1.49,-1.4984,-1.501,-1.5635,-1.5805,-1.5891,-1.6373,-1.6439,-1.6505,-1.6985,-1.7049,-1.703,-1.703,-1.6877,-1.6685,-1.6473,-1.6299,-1.6205,-1.6258,-1.6349,-1.6603,-1.7276,-1.7673,-1.8007,-1.8335,-1.9264,-1.9884,-1.9884,-2.0445,-2.0627,-2.0163,-2.0643,-2.0795,-2.0237,-2.0765,-2.1145,-2.1203,-2.1203,-2.0945,-2.0385,-2.0328,-2.0025,-1.9401,-1.9401,-1.9401,-1.9401,-1.933,-1.8981,-1.8386,-1.8357,-1.8035,-1.7508,-1.746,-1.7448,-1.7423,-1.71,-1.6625,-1.6023,-1.5767,-1.5149,-1.4443,-1.4443,-1.4325,-1.411,0.0,0.0,0.0,0.0,0.0,0.0,0.0,-0.545,-0.5808,-0.6551,-0.6839,-0.7042,-0.7177,-0.7288,-0.7429,0.0,0.0,0.0,0.0,0.0,0.0,-1.0293,-1.0498,-1.0862,-1.1358,-1.1368,-1.1607,-1.2087,0.0,-1.2187,-1.2374,-1.2374,-1.234,-1.2322,-1.2322,-1.2116,-1.1774,-1.1774,-1.1658,-1.1431,-1.1365,-1.131,-1.1233,-1.1134,0.0,0.0,-1.1969,-1.2349,-1.2777,-1.3273,-1.3657,-1.4039,-1.4646,-1.4924,-1.5074,-1.5394,-1.5634,-1.5874,-1.6251,-1.6336,-1.6439,-1.6797,-1.6899,-1.6899,-1.6899,-1.6843,-1.6672,-1.6349,-1.6215,-1.6111,-1.5962,-1.6079,-1.6381,-1.6905,-1.7429,-1.7912,-1.8255,-1.9232,-1.9884,-1.9884,-2.0496,-2.0757,-2.0409,-2.0803,-2.0925,-2.0499,-2.0912,-2.1203,-2.1203,-2.1203,-2.0917,-2.0328,-2.0299,-2.0025,-1.9401,-1.9401,-1.9401,-1.9401,-1.9401,-1.9039,-1.8386,-1.8386,-1.8064,-1.7508,-1.7508,-1.7508,-1.7508,-1.7346,-1.6866,-1.6189,-1.6063,-1.549,-1.4697,-1.4551,-1.4443,-1.4243,0.0,0.0,0.0,0.0,0.0,0.0,0.0,-0.5291,-0.5602,-0.6354,-0.6597,-0.6756,-0.6875,-0.7054,-0.7159,0.0,0.0,0.0,0.0,0.0,0.0,0.0,0.0,0.0,-1.0618,0.0,0.0,-1.1393,-1.1393,0.0,0.0,0.0,0.0,0.0,-1.1541,-1.1417,-1.1231,-1.1231,-1.1152,0.0,0.0,-1.0914,-1.0835,0.0,0.0,0.0,0.0,-1.1859,-1.245,-1.2757,-1.3102,-1.3536,-1.4119,-1.4589,-1.4966,-1.5154,-1.5411,-1.5754,-1.6096,-1.6216,-1.632,-1.661,-1.666,-1.666,-1.666,-1.6623,-1.6492,-1.6136,-1.6023,-1.5907,-1.5631,-1.5876,-1.6206,-1.6535,-1.727,-1.7896,-1.8166,-1.9121,-1.9805,-1.9884,-2.0366,-2.0689,-2.0597,-2.0841,-2.0918,-2.0691,-2.0999,-2.1203,-2.1203,-2.1203,-2.0917,-2.0328,-2.0299,-2.0025,-1.9401,-1.9401,-1.9401,-1.9401,-1.9401,-1.9039,-1.8386,-1.8386,-1.8064,-1.7508,-1.7508,-1.7508,-1.7479,-1.742,-1.695,-1.6252,-1.6194,-1.5672,-1.4945,-1.4734,-1.4626,-1.4468,0.0,0.0,0.0,0.0,0.0,0.0,0.0,-0.5086,-0.5414,-0.6219,-0.6391,-0.6475,-0.6544,-0.683,-0.7025,0.0,0.0,0.0,0.0,0.0,0.0,0.0,0.0,0.0,0.0,0.0,0.0,-1.0685,-1.0685,0.0,0.0,0.0,0.0,0.0,0.0,-1.1079,-1.0664,-1.0664,0.0,0.0,0.0,0.0,0.0,0.0,0.0,0.0,0.0,-1.1369,-1.1526,-1.2141,-1.2587,-1.2936,-1.3234,-1.3822,-1.4473,-1.5034,-1.5223,-1.5326,-1.5737,-1.5857,-1.5857,-1.5891,-1.5908,-1.5908,-1.5908,-1.5749,-1.557,-1.5357,-1.5158,-1.5073,-1.5229,-1.5526,-1.586,-1.619,-1.7132,-1.7801,-1.7832,-1.8771,-1.955,-1.9853,-2.0011,-2.0219,-2.0581,-2.0626,-2.0671,-2.0706,-2.0999,-2.1203,-2.1203,-2.1203,-2.0917,-2.0328,-2.0299,-2.0025,-1.9401,-1.9401,-1.9401,-1.9401,-1.9401,-1.9039,-1.8386,-1.8386,-1.8064,-1.7508,-1.7508,-1.7508,-1.7479,-1.7168,-1.682,-1.6444,-1.619,-1.5722,-1.5156,-1.5135,-1.5013,-1.4759,0.0,0.0,0.0,0.0,0.0,0.0,-0.482,-0.4963,-0.5252,-0.6013,-0.6206,-0.6298,-0.6368,-0.6527,-0.6701,-0.6862,0.0,0.0,0.0,0.0,0.0,0.0,0.0,0.0,0.0,0.0,-0.9966,-1.0236,-1.0236,0.0,0.0,0.0,0.0,0.0,0.0,-1.0368,-1.0126,-1.0126,0.0,0.0,0.0,0.0,0.0,0.0,0.0,0.0,0.0,0.0,-1.125,-1.1677,-1.2035,-1.242,-1.292,-1.3288,-1.3638,-1.4332,-1.4847,-1.5223,-1.5411,-1.5617,-1.5805,-1.5805,-1.57,-1.5611,-1.5611,-1.547,-1.5258,-1.506,-1.4953,-1.4894,-1.4858,-1.53,-1.5733,-1.5892,-1.6973,-1.7785,-1.7785,-1.8882,-1.9741,-1.9869,-2.0144,-2.0447,-2.0861,-2.072,-2.0718,-2.0984,-2.1102,-2.1203,-2.1203,-2.1003,-2.0701,-2.0299,-2.0097,-1.9822,-1.9401,-1.9401,-1.9401,-1.9401,-1.9214,-1.8852,-1.8386,-1.8223,-1.7931,-1.7508,-1.7508,-1.7508,-1.7479,-1.7138,-1.6814,-1.6478,-1.6194,-1.5814,-1.5411,-1.5271,-1.5163,-1.4959,0.0,0.0,0.0,0.0,0.0,-0.3875,-0.4582,-0.4756,-0.5053,-0.571,-0.5953,-0.6122,-0.6199,-0.626,-0.6367,-0.6614,-0.6718,0.0,0.0,0.0,0.0,0.0,0.0,0.0,0.0,0.0,-0.9655,-0.9803,-0.9803,-0.9803,0.0,0.0,-0.9803,-0.9803,0.0,0.0,0.0,0.0,0.0,0.0,0.0,0.0,0.0,0.0,0.0,0.0,0.0,0.0,0.0,0.0,0.0,-1.1886,-1.246,-1.2806,-1.3132,-1.387,-1.447,-1.4915,-1.5018,-1.5257,-1.5446,-1.5394,-1.529,-1.5151,-1.5117,-1.496,-1.4801,-1.4757,-1.4703,-1.4646,-1.4599,-1.5205,-1.5701,-1.5701,-1.6878,-1.7785,-1.7785,-1.8845,-1.9652,-1.9787,-1.9975,-2.0332,-2.0882,-2.0838,-2.0901,-2.1174,-2.1203,-2.1146,-2.106,-2.0759,-2.05,-2.0299,-1.9953,-1.9678,-1.9401,-1.9481,-1.9522,-1.9492,-1.9187,-1.8865,-1.8542,-1.8173,-1.7813,-1.7508,-1.7508,-1.7449,-1.7344,-1.6991,-1.6667,-1.6342,-1.6046,-1.5809,-1.558,-1.5389,-1.5266,-1.5088,0.0,0.0,0.0,0.0,0.0,0.0,-0.4139,-0.4428,-0.4771,-0.5246,-0.559,-0.5858,-0.599,-0.6006,-0.6068,-0.6191,-0.6391,0.0,0.0,0.0,0.0,0.0,0.0,0.0,0.0,0.0,-0.9308,-0.9318,-0.9318,-0.9318,-0.9318,-0.9318,-0.9318,-0.9318,0.0,0.0,0.0,0.0,0.0,0.0,0.0,0.0,-0.9308,0.0,0.0,0.0,0.0,0.0,0.0,0.0,0.0,0.0,0.0,-1.235,-1.3132,-1.387,-1.411,-1.4196,-1.4606,-1.4709,-1.4659,-1.4445,-1.4412,-1.4379,-1.423,-1.4065,-1.4013,-1.4336,-1.4246,-1.4202,-1.4534,-1.5205,-1.5701,-1.5701,-1.6878,-1.7785,-1.7785,-1.844,-1.9057,-1.9463,-1.9334,-1.9568,-2.05,-2.0949,-2.1203,-2.1203,-2.1203,-2.106,-2.0716,-2.0443,-2.0299,-2.0299,-1.9953,-1.9678,-1.9401,-1.9653,-1.98,-1.98,-1.946,-1.9149,-1.8864,-1.8261,-1.7813,-1.7508,-1.7508,-1.7315,-1.6991,-1.6626,-1.6342,-1.6087,-1.575,-1.5601,-1.5601,-1.5601,-1.5383,-1.5015,0.0,0.0,0.0,0.0,0.0,0.0,0.0,-0.4284,-0.463,-0.5097,-0.5409,-0.5647,-0.5779,-0.5827,-0.5897,-0.5982,-0.6214,0.0,0.0,0.0,0.0,0.0,0.0,0.0,0.0,0.0,-0.9138,-0.9228,-0.9288,-0.9308,-0.9308,-0.9308,-0.9308,-0.9308,-0.9308,-0.9308,0.0,0.0,0.0,0.0,0.0,-0.9228,-0.9218,0.0,0.0,0.0,0.0,0.0,0.0,0.0,0.0,0.0,0.0,0.0,0.0,-1.2953,-1.359,-1.4111,-1.4135,-1.4324,-1.4461,-1.4313,-1.4164,-1.4049,-1.3999,-1.4011,-1.4067,-1.4162,-1.4317,-1.447,-1.4581,-1.5205,-1.5701,-1.5701,-1.6878,-1.7757,-1.7561,-1.8566,-1.9288,-1.9226,-1.9789,-2.0208,-2.0303,-2.0851,-2.1203,-2.1203,-2.1203,-2.106,-2.0716,-2.0443,-2.0184,-1.9953,-1.9678,-1.9475,-1.9401,-1.9653,-1.9681,-1.9443,-1.9356,-1.9114,-1.8751,-1.8177,-1.7876,-1.7774,-1.7593,-1.7315,-1.6961,-1.6626,-1.6342,-1.6057,-1.572,-1.5601,-1.5601,-1.5601,-1.5383,-1.5046,0.0,0.0,0.0,0.0,0.0,0.0,0.0,-0.4067,-0.4442,-0.4761,-0.5166,-0.5467,-0.5569,-0.5647,-0.5702,-0.5741,-0.5959,0.0,0.0,0.0,0.0,0.0,0.0,0.0,-0.7718,-0.8495,-0.8926,-0.9007,-0.9057,-0.907,-0.907,-0.907,-0.907,-0.907,-0.907,-0.9108,0.0,0.0,0.0,0.0,-0.9086,-0.9058,-0.8937,0.0,0.0,0.0,0.0,0.0,0.0,0.0,0.0,0.0,0.0,0.0,0.0,0.0,-1.2833,-1.3515,-1.3558,-1.3712,-1.3847,-1.3719,-1.3574,-1.3461,-1.3413,-1.3572,-1.3759,-1.3886,-1.4171,-1.4504,-1.4774,-1.5225,-1.5633,-1.574,-1.6786,-1.748,-1.732,-1.838,-1.9247,-1.935,-2.0011,-2.0446,-2.0386,-2.0868,-2.1203,-2.1203,-2.1089,-2.0874,-2.0587,-2.027,-1.9953,-1.9649,-1.9475,-1.9401,-1.9401,-1.976,-1.978,-1.9464,-1.9463,-1.9253,-1.8883,-1.8307,-1.8064,-1.8022,-1.7637,-1.728,0.0,-1.6524,-1.6194,-1.5898,-1.569,-1.5601,-1.5601,-1.5601,-1.5294,-1.4878,0.0,0.0,0.0,0.0,0.0,0.0,0.0,-0.3798,-0.421,-0.4283,-0.4872,-0.5309,-0.5366,-0.5437,-0.549,-0.549,0.0,0.0,0.0,0.0,0.0,0.0,0.0,0.0,-0.759,-0.8301,-0.8683,-0.8683,-0.8704,-0.8704,-0.8704,-0.8704,-0.8704,-0.8704,-0.8704,-0.8765,0.0,0.0,0.0,0.0,-0.885,-0.8792,0.0,0.0,0.0,0.0,0.0,0.0,0.0,0.0,0.0,0.0,0.0,0.0,0.0,0.0,0.0,0.0,0.0,-1.2964,-1.295,-1.2812,-1.2798,-1.2767,-1.2661,-1.2885,0.0,-1.3569,-1.3901,-1.4359,-1.5043,-1.5301,-1.5525,-1.5848,-1.6586,-1.7101,-1.714,-1.8041,-1.8978,-1.9705,-2.0047,-2.0342,-2.0663,-2.0985,-2.1175,-2.1175,-2.0874,-2.0572,-2.027,-1.9953,-1.9678,-1.9401,-1.9401,-1.9401,-1.9401,-1.9917,-1.9998,-1.9663,-1.9683,-1.9512,-1.9168,-1.8599,-1.8324,-1.83,-1.7701,-1.7239,-1.6861,-1.6347,-1.592,-1.5601,-1.5601,-1.5601,-1.5601,-1.5572,-1.5156,-1.459,0.0,0.0,0.0,0.0,0.0,0.0,0.0,0.0,0.0,0.0,-0.4717,-0.5079,-0.5095,-0.5246,-0.5348,0.0,0.0,0.0,0.0,0.0,0.0,0.0,0.0,0.0,-0.7522,-0.8141,-0.8475,-0.8475,-0.8622,-0.8704,-0.8704,-0.8704,-0.8704,-0.8704,-0.8704,-0.8724,0.0,0.0,0.0,0.0,-0.8741,-0.8725,0.0,0.0,0.0,0.0,-0.8775,-0.8775,0.0,0.0,0.0,0.0,0.0,0.0,0.0,0.0,-1.1545,-1.1939,-1.2177,0.0,-1.2797,-1.2691,-1.266,-1.2708,0.0,-1.3235,-1.3585,-1.3918,-1.4332,-1.4691,-1.4847,-1.5258,-1.5648,-1.5924,-1.6612,-1.7218,-1.753,-1.8256,-1.9026,-1.9735,-2.0047,-2.0342,-2.0663,-2.0985,-2.1089,-2.0845,-2.0745,-2.0457,-1.9953,-1.9837,-1.9678,-1.9401,-1.9401,-1.9401,-1.9401,-1.9677,-1.965,-1.9315,-1.9531,-1.9453,-1.9103,-1.8773,-1.862,-1.8577,-1.7961,-1.7402,-1.6873,-1.6496,-1.6033,-1.5601,-1.5601,-1.5601,-1.5572,-1.5294,-1.4977,-1.456,0.0,0.0,0.0,0.0,0.0,0.0,0.0,0.0,0.0,0.0,0.0,-0.492,-0.4952,-0.5079,0.0,0.0,0.0,0.0,0.0,0.0,0.0,0.0,0.0,-0.7093,-0.7491,-0.7961,-0.8214,-0.8214,-0.8326,-0.8388,-0.8388,-0.8439,-0.8459,-0.847,-0.8572,-0.8612,0.0,0.0,0.0,-0.8442,-0.8628,0.0,0.0,0.0,0.0,0.0,-0.8704,-0.8704,0.0,-0.8873,-0.9054,-0.9289,0.0,0.0,0.0,0.0,-1.1228,-1.1635,-1.174,-1.2229,-1.269,-1.2629,-1.2726,-1.2853,-1.2948,-1.3341,-1.3764,-1.4003,-1.441,-1.4803,-1.5107,-1.5441,-1.5755,-1.6046,-1.6703,-1.7437,-1.8113,-1.8684,-1.9283,-1.9901,-2.0239,-2.0561,-2.0882,-2.0958,-2.0902,-2.0716,-2.0429,-2.0155,-1.9809,-1.9678,-1.9533,-1.9401,-1.9401,-1.9401,-1.9401,-1.9588,-1.9529,-1.9193,-1.9468,-1.9424,-1.9104,-1.8959,-1.8804,-1.8633,-1.8015,-1.7406,-1.683,-1.6384,-1.5956,-1.5601,-1.5601,-1.5512,-1.5353,-1.5175,-1.4818,-1.4411,0.0,0.0,0.0,0.0,0.0,0.0,0.0,0.0,0.0,0.0,0.0,0.0,0.0,0.0,0.0,0.0,0.0,0.0,0.0,0.0,0.0,0.0,-0.6646,-0.7027,-0.7479,-0.78,-0.7956,-0.7956,-0.7982,-0.7992,-0.7992,-0.8126,-0.8167,-0.8178,-0.8347,-0.8429,0.0,0.0,-0.8392,-0.8109,-0.8451,0.0,0.0,0.0,0.0,0.0,0.0,0.0,0.0,-0.8521,-0.871,-0.9034,-0.9324,0.0,0.0,0.0,0.0,0.0,-1.1431,-1.1999,-1.26,-1.2631,-1.2838,-1.3043,-1.2927,-1.339,-1.388,-1.407,-1.4417,-1.4874,-1.5498,-1.5673,-1.5866,-1.6297,-1.7007,-1.7828,-1.8745,-1.9166,-1.9594,-2.021,-2.0532,-2.0824,-2.1088,-2.0874,-2.0658,-2.0572,-2.0097,-1.978,-1.9735,-1.9504,-1.9401,-1.9401,-1.9401,-1.9388,-1.9301,-1.9475,-1.9399,-1.9132,-1.9368,-1.9355,-1.9104,-1.9104,-1.8924,-1.8559,-1.7987,-1.742,-1.683,-1.628,-1.589,-1.5645,-1.5612,-1.5383,-1.5086,-1.5056,-1.4669,-1.4202,0.0,0.0,0.0,0.0,0.0,0.0,0.0,0.0,0.0,0.0,0.0,0.0,0.0,0.0,0.0,0.0,0.0,0.0,0.0,0.0,0.0,-0.6513,-0.6769,-0.7055,-0.7407,-0.763,-0.7743,-0.7743,-0.7915,-0.7992,-0.7992,-0.8028,-0.8039,-0.8039,-0.807,-0.8075,-0.8075,-0.8095,-0.808,-0.8023,-0.808,0.0,0.0,0.0,0.0,0.0,0.0,0.0,0.0,-0.8424,-0.8446,-0.8606,-0.921,0.0,0.0,0.0,0.0,0.0,-1.1192,-1.1828,-1.2565,-1.2725,-1.282,-1.2942,-1.3296,-1.3686,-1.407,-1.4423,-1.4819,-1.5223,-1.5612,-1.5803,-1.6133,-1.6997,-1.7925,-1.8716,-1.9166,-1.9503,-1.9957,-2.0546,-2.0663,-2.0725,-2.0773,-2.0716,-2.0486,-1.9982,-1.9837,-1.9707,-1.9475,-1.943,-1.9401,-1.9401,-1.9401,-1.9272,-1.8968,-1.894,-1.8892,-1.8766,-1.8808,-1.8918,-1.9104,-1.9104,-1.8924,-1.8571,-1.8127,-1.7648,-1.7085,-1.6511,-1.6149,-1.5901,-1.5677,-1.5383,-1.5086,-1.4769,-1.4471,-1.4172,0.0,0.0,0.0,0.0,0.0,0.0,0.0,0.0,0.0,0.0,0.0,0.0,0.0,0.0,0.0,0.0,0.0,0.0,0.0,0.0,-0.5974,-0.6415,-0.6656,-0.699,-0.7384,-0.7492,-0.761,-0.7745,-0.7853,-0.8026,-0.8276,-0.8228,-0.8239,-0.8266,-0.8084,-0.7992,-0.7992,-0.7992,-0.7992,-0.7992,0.0,0.0,0.0,0.0,0.0,0.0,0.0,0.0,0.0,0.0,-0.8183,-0.8307,-0.898,0.0,0.0,0.0,0.0,0.0,-1.1293,-1.1905,-1.2559,-1.2757,-1.299,-1.325,-1.3527,-1.3903,-1.4276,-1.4675,-1.5048,-1.5415,-1.574,-1.6272,-1.6966,-1.7955,-1.8642,-1.9195,-1.9518,-1.9974,-2.0384,-2.0663,-2.0698,-2.0715,-2.0702,-2.04,-2.0097,-1.9809,-1.9678,-1.9533,-1.9401,-1.9401,-1.9401,-1.9401,-1.9214,-1.8968,-1.8619,-1.8467,-1.8476,-1.8704,-1.8709,-1.885,-1.9072,-1.8924,-1.8623,-1.827,-1.7884,-1.7417,-1.6899,-1.6643,-1.6311,-1.5996,-1.5858,-1.541,-1.4759,-1.4291,-1.4052,-1.3903,0.0,0.0,0.0,0.0,0.0,0.0,0.0,0.0,0.0,0.0,0.0,0.0,0.0,0.0,0.0,0.0,0.0,0.0,0.0,-0.5726,-0.6118,-0.6321,-0.6535,-0.6851,-0.7272,-0.7373,-0.7536,-0.7747,-0.7862,-0.8095,-0.8452,-0.8403,-0.8353,-0.833,-0.8098,-0.7959,-0.7879,-0.7915,-0.7935,-0.7935,0.0,0.0,0.0,0.0,0.0,0.0,0.0,0.0,0.0,0.0,0.0,0.0,0.0,0.0,0.0,-1.0195,-1.0735,-1.1098,-1.142,-1.1993,-1.2578,-1.2896,-1.3249,-1.3605,-1.3736,-1.4182,-1.4648,-1.4955,-1.5359,-1.5753,-1.6148,-1.701,-1.794,-1.8774,-1.921,-1.9561,-1.9957,-2.0358,-2.0638,-2.0682,-2.063,-2.0601,-2.0628,-2.0179,-1.9916,-1.9897,-1.9706,-1.9575,-1.9495,-1.9495,-1.9468,-1.9401,-1.9055,-1.8735,-1.8386,-1.8135,-1.8203,-1.8625,-1.8617,-1.879,-1.9072,-1.8764,-1.8378,-1.7969,-1.7658,-1.7237,-1.6775,-1.6721,-1.6473,-1.6138,-1.5969,-1.5324,-1.4441,-1.3903,-1.3693,-1.3693,0.0,0.0,0.0,0.0,0.0,0.0,0.0,0.0,0.0,0.0,0.0,0.0,0.0,0.0,0.0,0.0,0.0,0.0,0.0,-0.563,-0.599,-0.6368,-0.6466,-0.6636,-0.6925,-0.7308,-0.7531,-0.7616,-0.805,-0.8285,-0.8311,-0.8308,-0.814,-0.7848,-0.7959,-0.7828,-0.7537,-0.767,-0.7722,-0.7722,-0.7722,0.0,0.0,0.0,0.0,0.0,0.0,0.0,0.0,0.0,0.0,0.0,0.0,0.0,-0.9572,-1.015,-1.0555,-1.0928,-1.1447,-1.2048,-1.266,-1.329,-1.356,-1.3736,-1.3928,-1.4682,-1.5335,-1.5359,-1.5877,-1.6514,-1.7083,-1.8028,-1.8829,-1.921,-1.9547,-1.9972,-2.0532,-2.0454,-2.0415,-2.0687,-2.0486,-2.0324,-2.0323,-2.0292,-2.0237,-2.0177,-2.0144,-2.0024,-1.9786,-1.9773,-1.9639,-1.9401,-1.9055,-1.8735,-1.8386,-1.8135,-1.8096,-1.833,-1.8342,-1.8589,-1.9072,-1.8764,-1.8378,-1.7969,-1.7658,-1.7292,-1.6969,-1.6785,-1.6678,-1.6571,-1.5822,-1.5003,-1.4202,-1.3843,-1.3693,-1.3693,0.0,0.0,0.0,0.0,0.0,0.0,0.0,0.0,0.0,0.0,0.0,0.0,0.0,0.0,0.0,0.0,0.0,0.0,0.0,-0.5733,-0.599,-0.6147,-0.6255,-0.6477,-0.6824,-0.7103,-0.7472,-0.792,-0.8459,-0.8735,-0.8735,-0.8604,-0.8487,-0.8349,-0.8019,-0.7802,-0.7687,-0.7553,-0.7513,-0.7513,-0.7513,-0.7562,0.0,0.0,0.0,0.0,0.0,0.0,0.0,0.0,-0.8034,-0.8375,-0.8702,-0.9041,-0.9474,-1.0266,-1.0577,-1.0843,-1.1649,-1.2319,-1.2918,-1.3375,-1.4015,-1.4582,-1.4812,-1.5139,-1.5519,-1.5935,-1.6521,-1.7177,-1.7866,-1.8437,-1.8861,-1.9019,-1.9462,-1.9875,-2.0117,-2.0231,-2.0386,-2.0654,-2.0462,-2.0366,-2.055,-2.0367,-2.0241,-2.0197,-2.0197,-2.0157,-2.0037,-1.9893,-1.9657,-1.9361,-1.8855,-1.8457,-1.8135,-1.8003,-1.8076,-1.83,-1.83,-1.8565,-1.9072,-1.8495,-1.8141,-1.7969,-1.7432,-1.7109,-1.7001,-1.6915,-1.6818,-1.6593,-1.5711,-1.4983,-1.4337,-1.4013,-1.3807,-1.3693,0.0,0.0,0.0,0.0,0.0,0.0,0.0,0.0,0.0,0.0,0.0,0.0,0.0,0.0,0.0,0.0,0.0,0.0,-0.538,-0.5723,-0.5944,-0.5944,-0.6142,-0.6447,-0.6857,-0.7058,-0.7447,-0.8036,-0.8553,-0.883,-0.887,-0.8731,-0.8646,-0.8586,-0.8197,-0.7905,-0.7722,-0.758,-0.7483,-0.7398,-0.7398,-0.7426,0.0,0.0,0.0,0.0,0.0,0.0,0.0,0.0,-0.7946,-0.8286,-0.8606,-0.9008,-0.9497,-1.0235,-1.0581,-1.0913,-1.1777,-1.2469,-1.306,-1.3478,-1.4248,-1.5035,-1.5505,-1.5691,-1.5893,-1.6333,-1.7082,-1.7802,-1.8309,-1.8712,-1.9015,-1.9149,-1.9528,-1.9836,-1.9934,-2.0171,-2.0378,-2.0557,-2.0372,-2.0384,-2.0669,-2.0496,-2.0384,-2.0477,-2.0477,-2.0437,-2.0344,-2.0187,-1.9877,-1.9442,-1.8872,-1.8458,-1.822,-1.8008,-1.8088,-1.842,-1.842,-1.8618,-1.8924,-1.8302,-1.7937,-1.7808,-1.726,-1.7001,-1.7001,-1.7001,-1.6776,-1.6297,-1.5531,-1.4903,-1.4398,-1.4161,-1.4014,-1.3882,0.0,0.0,0.0,0.0,0.0,0.0,0.0,0.0,0.0,0.0,0.0,0.0,0.0,0.0,0.0,0.0,0.0,0.0,-0.5106,-0.5534,-0.5803,-0.5803,-0.618,-0.6579,-0.699,-0.7199,-0.7494,-0.7898,-0.8228,-0.8461,-0.8593,-0.8593,-0.8527,-0.8402,-0.8464,-0.8162,-0.7605,-0.775,-0.7646,-0.7398,-0.7398,-0.7398,-0.7398,0.0,0.0,0.0,0.0,0.0,0.0,0.0,-0.8024,-0.8343,-0.8614,-0.9156,-0.9757,-1.0023,-1.0539,-1.1153,-1.1815,-1.2431,-1.3047,-1.3657,-1.4272,-1.4936,-1.5894,-1.6304,-1.6504,-1.6518,-1.7518,-1.8396,-1.8396,-1.8899,-1.9417,-1.9724,-1.978,-1.992,-2.0257,-2.0316,-2.0303,-2.0303,-2.0247,-2.0361,-2.0686,-2.0712,-2.0802,-2.1082,-2.1109,-2.0989,-2.0726,-2.0712,-2.0394,-1.9737,-1.918,-1.8824,-1.8704,-1.8161,-1.8185,-1.8686,-1.8686,-1.8673,-1.8603,-1.8173,-1.7819,-1.7464,-1.7141,-1.7001,-1.7001,-1.7001,-1.6487,-1.565,-1.5258,-1.4782,-1.4317,-1.4317,-1.4317,-1.4307,0.0,0.0,0.0,0.0,0.0,0.0,0.0,0.0,0.0,0.0,0.0,0.0,0.0,0.0,0.0,0.0,0.0,0.0,-0.5238,-0.546,-0.5588,-0.5588,-0.6024,-0.6405,-0.6712,-0.7184,-0.7663,-0.811,-0.8304,-0.8421,-0.8461,-0.8461,-0.8449,-0.8384,-0.8177,-0.8033,-0.7936,-0.7798,-0.7625,-0.7466,-0.7466,-0.739,-0.7262,0.0,0.0,0.0,0.0,0.0,0.0,0.0,0.0,0.0,-0.8684,-0.9156,-0.9757,-1.0023,-1.0539,-1.1195,-1.205,-1.2717,-1.3387,-1.421,-1.4788,-1.5315,-1.6016,-1.6331,-1.6741,-1.7644,-1.8145,-1.8469,-1.8699,-1.9043,-1.9276,-1.9188,-1.9349,-1.9622,-1.992,-1.9953,-2.0096,-2.0513,-2.0556,-2.0655,-2.0949,-2.0975,-2.1015,-2.1096,-2.1109,-2.1069,-2.0989,-2.057,-2.0146,-1.9701,-1.9096,-1.8661,-1.841,-1.8458,-1.8529,-1.8686,-1.8899,-1.884,-1.8603,-1.8173,-1.7819,-1.7464,-1.7141,-1.7001,-1.6969,-1.6753,-1.6355,-1.5883,-1.5527,-1.5013,-1.4502,-1.4502,-1.4408,-1.4307,0.0,0.0,0.0,0.0,0.0,0.0,0.0,0.0,0.0,0.0,-0.3886,-0.4028,0.0,0.0,0.0,0.0,0.0,0.0,0.0,-0.5361,-0.5489,-0.5649,-0.6006,-0.6415,-0.6867,-0.7287,-0.7635,-0.7928,-0.8049,-0.8182,-0.8328,-0.8328,-0.8342,-0.8395,-0.819,-0.8063,-0.8011,-0.7856,-0.7672,-0.7493,-0.7493,-0.7435,-0.7322,0.0,0.0,0.0,0.0,0.0,0.0,0.0,0.0,0.0,-0.8837,-0.9275,-0.9783,-1.0181,-1.0715,-1.1327,-1.2138,-1.2796,-1.344,-1.4255,-1.4887,-1.5558,-1.6421,-1.6766,-1.718,-1.8069,-1.8439,-1.8659,-1.8862,-1.9146,-1.9292,-1.912,-1.9345,-1.9629,-1.9773,-2.0,-2.0281,-2.0659,-2.0775,-2.0922,-2.1096,-2.1109,-2.1109,-2.1109,-2.1109,-2.1109,-2.1109,-2.0634,-2.0198,-1.9871,-1.9231,-1.8791,-1.8633,-1.8662,-1.8734,-1.8874,-1.9032,-1.8848,-1.8334,-1.8098,-1.7744,-1.7303,-1.7098,-1.7001,-1.6969,-1.6494,-1.6169,-1.5941,-1.5463,-1.5027,-1.4719,-1.4719,-1.4634,-1.4521,0.0,0.0,0.0,0.0,0.0,0.0,0.0,0.0,0.0,0.0,-0.392,-0.4036,0.0,0.0,0.0,0.0,0.0,0.0,0.0,-0.5272,-0.5483,-0.5846,-0.6098,-0.6546,-0.7246,-0.7405,-0.7461,-0.7475,-0.7622,-0.7836,-0.8141,-0.8155,-0.8221,-0.8342,-0.8342,-0.8189,-0.7923,-0.7923,-0.7772,-0.7544,-0.7544,-0.7518,-0.7506,-0.7506,0.0,0.0,0.0,0.0,0.0,0.0,0.0,0.0,-0.9004,-0.9402,-0.9804,-1.0379,-1.0919,-1.1487,-1.2098,-1.2709,-1.334,-1.3973,-1.4843,-1.5805,-1.6951,-1.7448,-1.7742,-1.8009,-1.8503,-1.8903,-1.893,-1.9185,-1.9401,-1.9428,-1.9626,-1.9813,-1.9867,-2.0334,-2.0712,-2.0739,-2.0949,-2.1109,-2.1109,-2.1109,-2.1109,-2.1109,-2.1109,-2.1077,-2.1046,-2.0729,-2.0393,-2.0074,-1.9506,-1.9146,-1.9104,-1.8874,-1.8874,-1.9104,-1.9072,-1.8688,-1.8001,-1.8001,-1.7615,-1.7001,-1.7001,-1.6969,-1.6904,-1.6266,-1.5974,-1.5876,-1.5192,-1.4898,-1.4898,-1.4898,-1.4898,-1.4898,0.0,0.0,0.0,0.0,0.0,0.0,0.0,0.0,0.0,0.0,0.0,0.0,0.0,0.0,0.0,0.0,0.0,0.0,0.0,-0.5309,-0.5495,-0.5581,-0.6134,-0.6602,-0.6987,-0.7112,-0.7233,-0.7338,-0.7475,-0.7582,-0.766,-0.7756,-0.7823,-0.7863,-0.7968,-0.8051,-0.8134,-0.8134,-0.8011,-0.781,-0.781,-0.7695,-0.7506,-0.7506,-0.753,0.0,0.0,0.0,0.0,0.0,0.0,0.0,-0.8847,-0.9218,-0.9691,-1.0024,-1.054,-1.1174,-1.1934,-1.2582,-1.3293,-1.4257,-1.5464,-1.6553,-1.7085,-1.7769,-1.8317,-1.8384,-1.8649,-1.8998,-1.9225,-1.9348,-1.9468,-1.9666,-1.976,-1.996,-2.0458,-2.0632,-2.0793,-2.0989,-2.1069,-2.1109,-2.1109,-2.1109,-2.1109,-2.1109,-2.1109,-2.0982,-2.0729,-2.0393,-2.003,-1.9711,-1.9343,-1.9107,-1.9104,-1.9056,-1.9056,-1.9104,-1.8828,-1.8463,-1.8001,-1.8001,-1.7615,-1.7001,-1.7001,-1.685,-1.6591,-1.6169,-1.5844,-1.5561,-1.5094,-1.4898,-1.4898,-1.4898,-1.4898,-1.4866,0.0,0.0,0.0,0.0,0.0,0.0,0.0,0.0,0.0,0.0,0.0,0.0,0.0,0.0,0.0,0.0,0.0,0.0,0.0,0.0,-0.5457,-0.5768,-0.6311,-0.6664,-0.6801,-0.6869,-0.6977,-0.7109,-0.7176,-0.73,-0.7501,-0.7568,-0.7609,-0.7609,-0.7676,-0.7796,-0.7956,-0.7956,-0.7936,-0.7893,-0.7893,-0.7807,-0.7684,-0.7684,-0.7747,-0.7835,-0.7835,0.0,0.0,0.0,0.0,0.0,0.0,0.0,-0.9872,-1.031,-1.0729,-1.1268,-1.212,-1.2667,-1.3319,-1.4684,-1.5692,-1.6416,-1.6873,-1.7539,-1.8074,-1.8074,-1.864,-1.9185,-1.9361,-1.9401,-1.9495,-1.976,-1.992,-2.016,-2.0646,-2.0802,-2.0935,-2.1096,-2.1109,-2.1109,-2.1109,-2.1109,-2.1014,-2.0856,-2.0856,-2.0697,-2.0393,-2.003,-1.9775,-1.9616,-1.9264,-1.9104,-1.9104,-1.9104,-1.9104,-1.9104,-1.8764,-1.8314,-1.7755,-1.7582,-1.7324,-1.7001,-1.7001,-1.6818,-1.6472,-1.6136,-1.5811,-1.5463,-1.5062,-1.4898,-1.4898,-1.4898,-1.4898,-1.4833,0.0,0.0,0.0,0.0,0.0,0.0,0.0,0.0,0.0,0.0,0.0,0.0,0.0,0.0,0.0,0.0,0.0,0.0,0.0,0.0,0.0,-0.6084,-0.6468,-0.6652,-0.6652,-0.668,-0.6761,-0.6866,-0.6866,-0.7055,-0.7394,-0.7434,-0.7473,-0.7473,-0.7499,-0.7555,-0.7662,-0.7662,-0.7729,-0.7834,-0.7834,-0.7858,-0.7894,-0.7894,-0.8024,-0.8196,-0.8196,-0.8291,-0.8451,-0.8664,0.0,0.0,0.0,0.0,-1.0095,-1.0649,-1.1027,-1.1443,-1.2251,-1.2822,-1.3539,-1.5124,-1.5694,-1.6049,-1.6583,-1.7181,-1.7601,-1.7601,-1.8503,-1.9301,-1.9301,-1.9372,-1.9495,-1.976,-2.0,-2.0224,-2.0561,-2.0855,-2.1029,-2.1029,-2.1082,-2.1077,-2.1014,-2.1014,-2.0856,-2.0539,-2.0507,-2.0361,-2.0043,-1.9743,-1.9571,-1.9507,-1.9232,-1.9104,-1.9104,-1.9104,-1.9072,-1.902,-1.8603,-1.8056,-1.74,-1.713,-1.7001,-1.7001,-1.7001,-1.6785,-1.6396,-1.6104,-1.5746,-1.5365,-1.5029,-1.4898,-1.4898,-1.4898,-1.4866,-1.4768,0.0,0.0,0.0,0.0,0.0,0.0,0.0,0.0,0.0,0.0,-0.3961,-0.4178,0.0,0.0,0.0,0.0,0.0,0.0,-0.5176,0.0,0.0,-0.6167,-0.6344,-0.6436,-0.6436,-0.6612,-0.6707,-0.6734,-0.6734,-0.6815,-0.6987,-0.7217,-0.7325,-0.7325,-0.7446,-0.7501,-0.7528,-0.7528,-0.7528,-0.7553,-0.7553,-0.7693,-0.7902,-0.7902,-0.8026,-0.8206,-0.8206,-0.8323,-0.8483,-0.8533,-0.8777,0.0,0.0,0.0,-0.998,-1.03,-1.0724,-1.1265,-1.1848,-1.2859,-1.4062,-1.5208,-1.5695,-1.6049,-1.6583,-1.7181,-1.7601,-1.7601,-1.8319,-1.8968,-1.8968,-1.9214,-1.9495,-1.976,-1.9826,-1.996,-2.0224,-2.0548,-2.0766,-2.0766,-2.0962,-2.0982,-2.0697,-2.0666,-2.052,-2.0202,-2.017,-2.0011,-1.9679,-1.9616,-1.9488,-1.9168,-1.9104,-1.9104,-1.9104,-1.9104,-1.8956,-1.8667,-1.796,-1.7432,-1.7066,-1.7001,-1.7001,-1.7001,-1.7001,-1.6645,-1.6071,-1.6006,-1.5616,-1.4964,-1.4931,-1.4898,-1.4898,-1.4898,-1.4735,-1.4408,0.0,0.0,0.0,0.0,0.0,0.0,0.0,0.0,0.0,0.0,0.0,-0.4245,0.0,0.0,0.0,-0.4874,-0.4894,-0.4994,-0.5242,-0.5575,-0.5851,-0.6068,-0.6136,-0.6205,-0.6282,-0.6377,-0.6449,-0.653,-0.653,-0.6682,-0.6956,-0.7067,-0.7206,-0.7356,-0.757,-0.7711,-0.7782,-0.7782,-0.7824,-0.7892,-0.7892,-0.7963,-0.8065,-0.8065,-0.8119,-0.8206,-0.8206,-0.8265,-0.8351,-0.85,-0.8676,-0.8877,-0.9173,0.0,0.0,0.0,-1.0557,-1.1198,-1.2144,-1.3027,-1.3898,-1.4826,-1.5244,-1.5554,-1.5949,-1.6456,-1.6901,-1.7061,-1.7679,-1.8253,-1.8564,-1.8748,-1.8927,-1.9242,-1.9294,-1.9386,-1.9672,-1.9815,-1.9937,-1.9937,-2.0011,-2.0027,-1.9872,-1.9872,-1.9716,-1.9387,-1.9387,-1.9231,-1.8888,-1.9022,-1.9045,-1.8886,-1.9032,-1.9104,-1.9104,-1.9104,-1.8816,-1.827,-1.7723,-1.7335,-1.7001,-1.7001,-1.7001,-1.7001,-1.6818,-1.6461,-1.6006,-1.5811,-1.5398,-1.4898,-1.4898,-1.4898,-1.4898,-1.4898,-1.4702,-1.4342,0.0,0.0,0.0,0.0,0.0,0.0,0.0,0.0,0.0,0.0,0.0,0.0,0.0,0.0,0.0,0.0,-0.4908,-0.5054,-0.536,-0.5604,-0.5804,-0.5941,-0.5955,-0.6009,-0.6146,-0.6146,-0.6214,-0.635,-0.635,-0.6553,-0.6943,-0.6989,-0.718,-0.7459,-0.7605,-0.7751,-0.7869,-0.7869,-0.7958,-0.8103,-0.8103,-0.8136,-0.8207,-0.8207,-0.8237,-0.8277,-0.836,-0.8397,-0.8477,-0.874,-0.8851,-0.8951,-0.9348,-0.9662,0.0,0.0,0.0,-1.1255,-1.2402,-1.3001,-1.3505,-1.4243,-1.471,-1.5071,-1.5335,-1.5883,-1.6344,-1.6549,-1.7,-1.7498,-1.7973,-1.826,-1.8491,-1.8724,-1.8763,-1.8839,-1.9043,-1.9132,-1.9213,-1.9213,-1.9277,-1.9285,-1.9193,-1.9163,-1.9041,-1.8717,-1.8686,-1.8564,-1.8318,-1.8481,-1.8589,-1.8589,-1.8874,-1.9007,-1.9007,-1.8876,-1.8495,-1.7872,-1.7529,-1.7238,-1.7001,-1.7001,-1.6936,-1.685,-1.6591,-1.6299,-1.5974,-1.5626,-1.5267,-1.4898,-1.4898,-1.4898,-1.4898,-1.48,-1.4572,-1.4211,0.0,0.0,0.0,0.0,0.0,0.0,0.0,0.0,0.0,0.0,0.0,0.0,-0.4486,-0.4735,-0.4935,-0.5072,-0.5197,-0.5355,-0.5568,-0.5604,-0.5668,-0.5804,-0.5804,0.0,-0.6,-0.6014,-0.6078,-0.6214,-0.6214,-0.6415,-0.6815,-0.7003,-0.727,-0.7582,-0.7411,-0.7394,-0.7524,-0.7524,-0.7632,-0.7825,-0.7825,-0.7981,-0.8206,-0.8206,-0.8327,-0.8522,-0.8782,-0.8941,-0.9092,-0.9364,-0.9528,-0.965,-0.9684,-0.9871,-1.0094,0.0,0.0,0.0,-1.2197,-1.262,-1.2974,-1.3527,-1.4206,-1.4791,-1.5064,-1.5722,-1.6308,-1.6335,-1.6553,-1.6831,-1.7126,-1.7832,-1.8428,-1.8411,-1.844,-1.8424,-1.8437,-1.8724,-1.892,-1.892,-1.9162,-1.9193,-1.887,-1.8839,-1.8686,-1.8349,-1.833,-1.8318,-1.83,-1.8312,-1.8312,-1.8312,-1.8565,-1.8741,-1.8741,-1.827,-1.7872,-1.7529,-1.7206,-1.7001,-1.7001,-1.7001,-1.6818,-1.6536,-1.6504,-1.6299,-1.5974,-1.5626,-1.5267,-1.4898,-1.4898,-1.4898,-1.4866,-1.4539,-1.4202,-1.3875,0.0,0.0,0.0,0.0,0.0,0.0,0.0,0.0,0.0,0.0,0.0,0.0,0.0,-0.4707,-0.4858,-0.5083,-0.5228,-0.5325,-0.5407,-0.5407,-0.5489,-0.5668,-0.5668,-0.5736,-0.5873,-0.5873,-0.5941,-0.6078,-0.6078,-0.6314,-0.6797,-0.6873,-0.7138,-0.7545,-0.769,-0.7776,-0.7823,-0.7823,-0.7855,-0.7938,-0.8067,-0.818,-0.8296,-0.8558,-0.8697,-0.8781,-0.9021,-0.9128,-0.9174,-0.9272,-0.9328,-0.9414,-0.9578,-0.9706,-0.986,-1.0294,-1.0841,-1.1441,-1.2036,-1.2507,-1.2883,-1.3261,-1.3768,-1.4256,-1.4535,-1.4949,-1.5416,-1.5951,-1.6133,-1.6331,-1.6763,-1.7228,-1.7633,-1.7777,-1.783,-1.783,-1.783,-1.7917,-1.8008,-1.8008,-1.8094,-1.8096,-1.7977,-1.7977,-1.7918,-1.7798,-1.781,-1.781,-1.781,-1.7968,-1.8022,-1.8022,-1.8287,-1.8424,-1.8391,-1.7919,-1.7626,-1.7497,-1.7174,-1.7001,-1.7001,-1.7001,-1.6818,-1.6504,-1.6266,-1.5974,-1.5658,-1.5267,-1.5029,-1.4898,-1.4898,-1.4898,-1.4866,-1.4506,-1.4202,-1.3842,0.0,0.0,0.0,0.0,0.0,0.0,0.0,0.0,0.0,-0.4307,0.0,0.0,0.0,0.0,-0.4933,-0.5176,-0.5274,-0.532,-0.5305,-0.5297,-0.5366,-0.5489,-0.5503,-0.5572,-0.5722,-0.5736,-0.5804,-0.5941,-0.6004,-0.6254,-0.6671,-0.679,-0.7041,-0.7407,-0.77,-0.7857,-0.7906,-0.7969,-0.8032,-0.8118,-0.8317,-0.8408,-0.8435,-0.8698,-0.8802,-0.8841,-0.9121,-0.9227,-0.9259,-0.9398,-0.9432,-0.9471,-0.964,-0.9711,-0.9816,-1.0433,-1.0823,-1.1174,-1.1696,-1.2193,-1.2619,-1.28,-1.3297,-1.3795,-1.399,-1.4305,-1.4743,-1.5383,-1.5503,-1.565,-1.6156,-1.6426,-1.6684,-1.7148,-1.7213,-1.7213,-1.7213,-1.7213,-1.7249,-1.7375,-1.7387,-1.7411,-1.7508,-1.7508,-1.7508,-1.7508,-1.7508,-1.7508,-1.7508,-1.7677,-1.7751,-1.7727,-1.7907,-1.7954,-1.7877,-1.7541,-1.7387,-1.7335,-1.7109,-1.7001,-1.7001,-1.7001,-1.6753,-1.6331,-1.6104,-1.5821,-1.5473,-1.5062,-1.4898,-1.4898,-1.4898,-1.4833,-1.4702,-1.4375,-1.4015,-1.3695,0.0,0.0,0.0,0.0,0.0,0.0,0.0,0.0,-0.4512,-0.4518,0.0,0.0,0.0,0.0,0.0,-0.5369,-0.5397,-0.537,-0.5315,-0.5313,-0.5305,-0.5305,-0.5297,-0.5393,-0.5591,-0.5591,-0.5668,-0.5791,-0.5998,-0.6192,-0.641,-0.6743,-0.6997,-0.7204,-0.7391,-0.7563,-0.7707,-0.7901,-0.81,-0.831,-0.8504,-0.8594,-0.8604,-0.8621,-0.8632,-0.8692,-0.9153,-0.9323,-0.9374,-0.9757,-0.9907,-0.9907,-0.9907,-0.9907,-0.9998,-1.046,-1.0606,-1.071,0.0,0.0,0.0,-1.2094,-1.2791,-1.3477,-1.3477,-1.3892,-1.4344,-1.4607,-1.469,-1.4813,-1.5281,-1.5372,-1.5645,-1.6498,-1.6654,-1.6694,-1.6706,-1.6706,-1.6791,-1.7044,-1.708,-1.7177,-1.746,-1.7484,-1.7496,-1.7496,-1.7496,-1.7508,-1.7508,-1.7479,-1.7452,-1.7385,-1.7366,-1.7307,-1.7204,-1.7183,-1.7115,-1.7001,-1.7001,-1.7001,-1.7001,-1.7001,-1.6613,-1.6006,-1.6006,-1.5779,-1.543,-1.5062,-1.4898,-1.4898,-1.4898,-1.4702,-1.4375,-1.4006,-1.3687,-1.3368,0.0,0.0,0.0,0.0,0.0,-0.447,-0.462,-0.464,-0.4681,0.0,0.0,0.0,-0.4842,-0.4996,-0.5117,-0.518,-0.5404,-0.553,-0.5513,-0.5511,-0.551,-0.551,-0.5375,-0.5325,-0.538,-0.538,-0.5476,-0.5654,-0.5814,-0.6061,-0.641,-0.6595,-0.6789,-0.6975,-0.704,-0.7253,-0.7567,-0.7775,-0.7966,-0.8171,-0.8375,-0.8548,-0.8692,-0.8989,-0.9203,-0.936,-0.9637,-0.9727,-0.9747,-0.9867,-0.9907,-0.9907,-0.9907,-1.0038,-1.0211,-1.0334,-1.0508,-1.0694,-1.082,0.0,0.0,0.0,0.0,0.0,-1.3146,-1.3332,-1.3553,-1.4026,-1.4133,-1.4218,-1.4535,-1.4596,-1.4697,-1.4923,-1.5779,-1.647,-1.6678,-1.6706,-1.673,-1.6803,-1.6803,-1.6839,-1.6911,-1.6911,-1.6996,-1.7189,-1.7201,-1.7315,-1.7508,-1.7285,-1.7026,-1.6759,-1.6703,-1.6739,-1.6928,-1.6854,-1.6903,-1.7001,-1.7001,-1.7001,-1.7001,-1.6753,-1.6396,-1.6006,-1.5756,-1.543,-1.5062,-1.4964,-1.4898,-1.4898,-1.4898,-1.4702,-1.4375,-1.4006,-1.374,-1.3503,0.0,0.0,0.0,-0.4545,-0.4586,-0.4627,-0.4762,-0.4782,-0.4816,0.0,0.0,0.0,-0.5094,-0.518,-0.5231,-0.5223,-0.5408,-0.5548,-0.5593,-0.5596,-0.5637,-0.5726,-0.5614,-0.5551,-0.5551,-0.5551,-0.56,-0.5729,-0.5883,-0.6093,-0.6325,-0.6536,-0.6698,-0.6827,-0.6963,-0.7204,-0.752,-0.7724,-0.7966,-0.8258,-0.8543,-0.8713,-0.8855,-0.9191,-0.9364,-0.951,-0.9699,-0.977,-0.9789,-0.9898,-0.9948,-0.9948,-0.9948,-1.0057,-1.0198,-1.0284,-1.0416,-1.0559,-1.0668,-1.0992,-1.1326,-1.1487,0.0,0.0,-1.2587,-1.2741,-1.2929,-1.3305,-1.3485,-1.3645,-1.3908,-1.3981,-1.4007,-1.4098,-1.4805,-1.5445,-1.5806,-1.5873,-1.5928,-1.614,-1.6164,-1.6211,-1.6318,-1.6329,-1.6388,-1.6542,-1.6542,-1.666,-1.6932,-1.6844,-1.6667,-1.6342,-1.6298,-1.6348,-1.6458,-1.6523,-1.6667,-1.6893,-1.6958,-1.6936,-1.6785,-1.6591,-1.6244,-1.5789,-1.5593,-1.5267,-1.4898,-1.4898,-1.4898,-1.4898,-1.4898,-1.4604,-1.4188,-1.4071,-1.3769,-1.3385,0.0,0.0,-0.4566,-0.4702,-0.4714,-0.4769,-0.4903,-0.493,-0.4936,0.0,-0.5099,-0.5241,-0.5426,-0.5446,-0.5442,-0.5449,-0.5437,-0.5492,-0.5609,-0.5609,-0.5692,-0.5882,-0.5881,-0.5873,-0.5903,-0.5903,-0.5903,-0.5903,-0.6105,-0.6195,-0.6211,-0.6521,-0.6671,-0.6688,-0.7009,-0.7268,-0.7486,-0.7714,-0.8041,-0.8431,-0.8815,-0.8994,-0.9059,-0.9297,-0.9392,-0.9439,-0.9625,-0.971,-0.9759,-0.9982,-1.0061,-1.0061,-1.0061,-1.0061,-1.0105,-1.028,-1.0324,-1.0389,-1.0629,-1.0975,-1.1251,-1.1297,-1.1643,0.0,-1.198,-1.2175,-1.2398,-1.2596,-1.2812,-1.3061,-1.3337,-1.3369,-1.3471,-1.3739,-1.379,-1.3992,-1.457,-1.4656,-1.4828,-1.5235,-1.5281,-1.5372,-1.5617,-1.5663,-1.5697,-1.572,-1.5777,-1.5875,-1.6097,-1.6308,-1.6267,-1.6013,-1.6035,-1.6019,-1.6007,-1.6194,-1.6431,-1.6699,-1.6894,-1.6818,-1.6504,-1.6472,-1.6114,-1.5495,-1.543,-1.5234,-1.4898,-1.4898,-1.4898,-1.4898,-1.4866,-1.4483,-1.3961,-1.4079,-1.373,-1.3206,0.0,-0.4661,-0.4708,-0.4835,-0.4862,-0.4909,-0.5036,-0.5056,-0.516,-0.5426,-0.5583,-0.5684,-0.5711,-0.5718,-0.5722,-0.5723,-0.5717,-0.5735,-0.575,-0.5659,-0.5684,-0.5896,-0.5739,-0.5729,-0.5903,-0.5903,-0.5903,-0.5903,-0.6105,-0.6195,-0.6195,-0.6384,-0.6465,-0.6474,-0.6696,-0.6999,-0.7361,-0.7676,-0.8041,-0.8414,-0.8662,-0.895,-0.9282,-0.971,-0.9963,-1.0134,-1.0342,-1.0395,-1.0418,-1.0465,-1.0475,-1.0475,-1.0475,-1.0475,-1.0497,-1.052,-1.0543,-1.0543,-1.0612,-1.0794,-1.1019,-1.1256,-1.15,0.0,-1.1956,-1.2054,-1.2088,-1.2129,-1.2188,-1.2307,-1.2569,-1.2604,-1.2703,-1.2973,-1.3022,-1.3322,-1.4236,-1.4381,-1.4416,-1.4507,-1.4504,-1.4542,-1.4587,-1.4793,-1.4999,-1.5232,-1.5583,-1.5722,-1.5563,-1.5758,-1.5718,-1.538,-1.5593,-1.5799,-1.6007,-1.6194,-1.6431,-1.6699,-1.6894,-1.6818,-1.6504,-1.6201,-1.5876,-1.5463,-1.5169,-1.4964,-1.4898,-1.4898,-1.4898,-1.4866,-1.4604,-1.4343,-1.4121,-1.3821,-1.3628,-1.3512,-0.4775,-0.4802,-0.4835,-0.4984,-0.4995,-0.5085,-0.5308,-0.5342,-0.544,-0.5664,-0.5759,-0.58,-0.58,-0.58,-0.58,-0.58,-0.5803,-0.5849,-0.5944,-0.5803,-0.5789,-0.5995,-0.5844,-0.5848,-0.6038,-0.6053,-0.6085,-0.6156,-0.6253,-0.6294,-0.6302,-0.6375,-0.6448,-0.6554,-0.6758,-0.6991,-0.727,-0.7644,-0.7961,-0.823,-0.8638,-0.8974,-0.929,-0.9618,-0.9885,-1.0067,-1.0168,-1.0204,-1.0204,-1.0204,-1.0204,-1.0204,-1.0204,-1.0204,-1.0204,-1.0204,-1.0204,-1.0227,-1.0366,-1.0547,-1.0753,-1.1039,-1.124,0.0,0.0,-1.1554,-1.162,-1.1524,-1.1599,-1.1742,-1.1884,-1.1907,-1.1955,-1.2073,-1.2097,-1.2323,-1.292,-1.3408,-1.376,-1.3893,-1.3905,-1.3905,-1.3905,-1.4016,-1.4194,-1.4438,-1.4794,-1.4977,-1.4959,-1.5161,-1.5261,-1.5188,-1.5335,-1.5537,-1.5804,-1.6041,-1.6278,-1.6495,-1.653,-1.6443,-1.6234,-1.5909,-1.5561,-1.5202,-1.4996,-1.4898,-1.4898,-1.4898,-1.4898,-1.4875,-1.4649,-1.4427,-1.4166,-1.3976,-1.3758,-1.3625,-0.4923,-0.4943,-0.4997,-0.5173,-0.52,-0.5295,-0.5589,-0.563,-0.5709,-0.5867,-0.5915,-0.5942,-0.5969,-0.5976,-0.5962,-0.5935,-0.5908,-0.5954,-0.6071,-0.5899,-0.5884,-0.6082,-0.5962,-0.5966,-0.6182,-0.6151,-0.6218,-0.6367,-0.6367,-0.6367,-0.64,-0.644,-0.6546,-0.6701,-0.6939,-0.7125,-0.7283,-0.7678,-0.7931,-0.8102,-0.8653,-0.9013,-0.9222,-0.951,-0.9716,-0.988,-0.995,-1.0002,-1.0005,-1.0005,-0.9987,-0.9976,-0.9976,-0.995,-0.9924,-0.9924,-0.9924,-0.9971,-1.0182,-1.037,-1.0521,-1.0761,-1.093,-1.102,0.0,0.0,0.0,-1.0947,-1.1106,-1.1267,-1.1313,-1.1313,-1.1336,-1.1382,-1.1405,-1.1451,-1.1612,-1.2305,-1.2876,-1.3179,-1.3226,-1.3226,-1.3226,-1.3312,-1.3484,-1.3713,-1.3986,-1.4202,-1.4357,-1.4665,-1.4923,-1.5142,-1.5167,-1.5335,-1.5601,-1.5858,-1.6064,-1.6188,-1.6129,-1.604,-1.5876,-1.5626,-1.5267,-1.4898,-1.4898,-1.4898,-1.4898,-1.4898,-1.4894,-1.4842,-1.4687,-1.4435,-1.4237,-1.4103,-1.3906,-1.3674,-0.5069,-0.5076,-0.518,-0.5488,-0.5535,-0.5589,-0.5752,-0.5779,-0.5881,-0.6211,-0.6341,-0.6464,-0.6586,-0.66,-0.6546,-0.643,-0.632,-0.6171,-0.601,-0.5879,-0.5886,-0.609,-0.5916,-0.5899,-0.6112,-0.5996,-0.6037,-0.6227,-0.6227,-0.6284,-0.6408,-0.6587,-0.6685,-0.6709,-0.7041,-0.7293,-0.7499,-0.7829,-0.8089,-0.8284,-0.8669,-0.8974,-0.9258,-0.9827,-1.0055,-1.0125,-1.0467,-1.067,-1.0775,-1.0775,-1.0696,-1.0615,-1.0615,-1.0492,-1.0318,-1.0318,-1.0318,-1.0342,-1.0367,-1.0385,-1.0427,-1.0451,-1.0469,-1.0507,-1.0536,0.0,-1.0593,-1.0645,0.0,-1.076,-1.099,0.0,0.0,-1.1359,-1.1405,-1.1405,-1.1428,-1.1536,-1.176,-1.221,-1.2256,-1.2256,-1.2256,-1.2645,-1.3053,-1.3506,-1.3728,-1.3852,-1.3874,-1.4304,-1.4658,-1.4912,-1.511,-1.5335,-1.5601,-1.5858,-1.5942,-1.5877,-1.6034,-1.5912,-1.5561,-1.5528,-1.5267,-1.4898,-1.4898,-1.4898,-1.4898,-1.4898,-1.4847,-1.4681,-1.4366,-1.4322,-1.4327,-1.385,-1.3742,-1.3872,-0.5284,-0.5338,-0.544,-0.5569,-0.5657,-0.5766,-0.5897,-0.6078,-0.6287,-0.6505,-0.6586,-0.6627,-0.6695,-0.6702,-0.6675,-0.6614,-0.6573,-0.6491,-0.6404,-0.6219,-0.6127,-0.6202,-0.5949,-0.5888,-0.6089,-0.6042,-0.6085,-0.625,-0.625,-0.6293,-0.6345,-0.6544,-0.67,-0.6831,-0.7082,-0.7382,-0.7678,-0.791,-0.8187,-0.8501,-0.8836,-0.9109,-0.9332,-0.9585,-0.9826,-1.002,-1.0314,-1.0457,-1.0499,-1.0499,-1.0448,-1.0415,-1.0415,-1.0356,-1.0272,-1.0129,-1.0096,-1.0129,-1.0168,-1.0167,-1.0216,-1.0364,-1.0413,-1.0358,-1.0145,-1.0097,-1.0054,-0.9876,0.0,0.0,0.0,0.0,0.0,0.0,-1.0365,-1.036,-1.0404,-1.0406,-1.0727,-1.1596,-1.1796,-1.1934,-1.2071,-1.2278,-1.2591,-1.3053,-1.3172,-1.3383,-1.3766,-1.3981,-1.4261,-1.4665,-1.4912,-1.5063,-1.5133,-1.5355,-1.55,-1.5525,-1.5398,-1.5417,-1.5495,-1.5267,-1.5062,-1.4898,-1.4898,-1.4898,-1.4898,-1.4898,-1.4823,-1.466,-1.4407,-1.4293,-1.4241,-1.3901,-1.3839,-1.3904,-0.5688,-0.5655,-0.5657,-0.5705,-0.5833,-0.5989,-0.6167,-0.6396,-0.6607,-0.6742,-0.6797,-0.6837,-0.6878,-0.6919,-0.6932,-0.6885,-0.6844,-0.6803,-0.6763,-0.6546,-0.6403,-0.6403,-0.611,-0.6002,-0.6155,-0.6064,-0.6093,-0.6255,-0.6255,-0.6265,-0.6301,-0.6497,-0.6679,-0.6831,-0.7119,-0.744,-0.7785,-0.8052,-0.8349,-0.8688,-0.9046,-0.9323,-0.9527,-0.9527,-0.9746,-1.0054,-1.0184,-1.0292,-1.0333,-1.0333,-1.03,-1.0241,-1.0241,-1.0227,-1.0162,-1.0023,-0.9991,-0.9975,-0.9971,-0.9971,-1.0004,-1.0151,-1.0191,-1.0105,-0.9841,-0.9728,-0.9621,-0.9411,-0.9319,0.0,0.0,0.0,-0.9517,-0.9507,0.0,-0.9531,-0.9581,-0.9592,-0.9951,-1.0901,-1.1179,-1.142,-1.1686,-1.1783,-1.1962,-1.239,-1.2525,-1.2787,-1.3271,-1.3482,-1.3768,-1.4181,-1.4477,-1.4656,-1.4665,-1.4853,-1.5013,-1.5082,-1.4882,-1.495,-1.5255,-1.501,-1.4898,-1.4898,-1.4898,-1.4898,-1.4898,-1.48,-1.4695,-1.4574,-1.4343,-1.4207,-1.4104,-1.3962,-1.3904,-1.3904,-0.6365,-0.6061,-0.584,-0.5971,-0.6146,-0.6381,-0.6634,-0.6688,-0.6749,-0.6877,-0.6997,-0.7161,-0.7355,-0.7482,-0.7509,-0.7382,-0.7188,-0.7024,-0.6911,-0.6776,-0.6688,-0.6688,-0.6423,-0.6286,-0.6286,-0.5974,-0.5914,-0.6101,-0.6101,-0.6165,-0.6309,-0.6507,-0.66,-0.6641,-0.7169,-0.7515,-0.7751,-0.8333,-0.8672,-0.8822,-0.9225,-0.9584,-0.9893,-0.9893,-1.0095,-1.0393,-1.0401,-1.0507,-1.0672,-1.0672,-1.0566,-1.0401,-1.0401,-1.0306,-1.0212,-1.0178,-1.0178,-1.0137,-0.995,-0.9901,-0.986,-0.9673,-0.9624,-0.9649,-0.9693,-0.954,-0.9433,-0.9473,-0.9393,-0.9305,-0.9305,-0.9305,-0.9309,0.0,-0.931,0.0,0.0,-0.9307,-0.95,-0.9988,-1.0221,-1.0455,-1.0733,-1.0913,-1.1158,-1.1405,-1.1809,-1.2039,-1.206,-1.2669,-1.3162,-1.3434,-1.3816,-1.4122,-1.4306,-1.4509,-1.458,-1.4525,-1.471,-1.4746,-1.4648,-1.4814,-1.4898,-1.4898,-1.4898,-1.4898,-1.4866,-1.4539,-1.4412,-1.4395,-1.4053,-1.3901,-1.3896,-1.3896,-1.3904,-1.3904,-0.682,-0.6749,-0.66,-0.6435,-0.6516,-0.6666,-0.6803,-0.6911,-0.7026,-0.7204,-0.7353,-0.7461,-0.7516,-0.757,-0.7577,-0.7529,-0.7475,-0.7405,-0.7373,-0.7114,-0.6972,-0.6972,-0.6709,-0.6573,-0.6573,-0.6369,-0.6305,-0.6363,-0.6266,-0.6256,-0.6312,-0.6495,-0.6657,-0.6747,-0.7066,-0.7369,-0.7662,-0.7955,-0.8327,-0.8799,-0.9462,-0.9925,-1.0223,-1.0223,-1.0304,-1.0426,-1.0566,-1.0639,-1.0688,-1.0688,-1.0655,-1.0607,-1.0607,-1.0566,-1.0493,-1.0379,-1.0339,-1.0306,-1.0145,-1.0007,-0.9893,-0.9811,-0.9688,-0.9583,-0.9517,-0.9451,-0.9319,-0.909,-0.8996,-0.8988,-0.9016,-0.9043,-0.9005,0.0,0.0,-0.8848,0.0,-0.8814,-0.895,-0.9116,-0.9586,-0.9997,-1.0232,-1.0413,-1.0657,-1.0925,-1.1306,-1.1667,-1.1985,-1.2476,-1.286,-1.3136,-1.3582,-1.3786,-1.3768,-1.4024,-1.4133,-1.4158,-1.4368,-1.4515,-1.4606,-1.4804,-1.4898,-1.4898,-1.4898,-1.4898,-1.4875,-1.4686,-1.4504,-1.4379,-1.419,-1.4009,-1.3904,-1.3904,-1.3904,-1.3868,-0.7376,-0.7422,-0.7303,-0.6947,-0.6973,-0.7077,-0.7178,-0.7233,-0.7317,-0.7464,-0.7631,-0.7729,-0.7729,-0.7848,-0.7916,-0.7916,-0.7814,-0.7729,-0.7729,-0.7452,-0.7283,-0.7283,-0.6999,-0.6837,-0.6837,-0.6654,-0.6573,-0.6573,-0.6484,-0.6437,-0.6437,-0.6569,-0.6684,-0.6782,-0.7043,-0.7313,-0.7577,-0.7864,-0.8245,-0.8728,-0.9419,-0.9847,-1.0088,-1.0151,-1.0309,-1.0523,-1.0729,-1.0821,-1.0802,-1.0719,-1.0675,-1.0627,-1.0489,-1.0414,-1.0343,-1.0206,-1.0201,-1.0135,-0.9981,-0.9855,-0.9737,-0.9636,-0.9526,-0.94,-0.9348,-0.9284,-0.9219,-0.9032,-0.8909,-0.881,-0.8852,-0.8821,-0.875,0.0,0.0,-0.8509,0.0,-0.8399,-0.8513,-0.8589,-0.9104,-0.9505,-0.9636,-0.9893,-1.0119,-1.03,-1.0694,-1.1099,-1.1479,-1.189,-1.2265,-1.2552,-1.3014,-1.3279,-1.3345,-1.3597,-1.3788,-1.3901,-1.4175,-1.4383,-1.4493,-1.4776,-1.4898,-1.4898,-1.4898,-1.4833,-1.4721,-1.456,-1.4398,-1.4216,-1.405,-1.3953,-1.3904,-1.3904,-1.3904,-1.3833,-0.802,-0.8036,-0.7928,-0.7562,-0.7526,-0.7574,-0.7694,-0.7678,-0.7648,-0.7624,-0.7851,-0.8033,-0.8033,-0.8316,-0.8505,-0.8505,-0.8196,-0.8033,-0.8033,-0.7763,-0.7617,-0.7617,-0.7303,-0.7119,-0.7119,-0.685,-0.6722,-0.6722,-0.6709,-0.6702,-0.6702,-0.6702,-0.6702,-0.6715,-0.7126,-0.7368,-0.7539,-0.8052,-0.8412,-0.8644,-0.912,-0.9383,-0.9539,-0.9737,-1.0162,-1.0701,-1.0879,-1.0944,-1.0948,-1.0737,-1.0604,-1.0416,-1.0105,-0.9937,-0.9811,-0.9804,-0.9796,-0.9759,-0.9568,-0.9517,-0.9435,-0.9175,-0.9119,-0.9125,-0.9183,-0.9095,-0.9067,-0.9308,-0.9057,-0.8799,-0.8775,-0.869,-0.8549,0.0,0.0,-0.823,-0.8097,-0.8102,-0.8178,-0.836,-0.8728,-0.8966,-0.8986,-0.9333,-0.9578,-0.9587,-1.0017,-1.037,-1.0588,-1.0972,-1.1387,-1.1777,-1.2183,-1.2635,-1.3089,-1.3297,-1.3476,-1.3693,-1.4109,-1.4307,-1.4326,-1.471,-1.4898,-1.4898,-1.4866,-1.4702,-1.4393,-1.4237,-1.4069,-1.3873,-1.3684,-1.3723,-1.3904,-1.3904,-1.3904,-1.3753,-0.8419,-0.8641,-0.8775,-0.8684,-0.839,-0.8113,-0.7948,-0.8065,-0.8119,-0.7923,-0.8187,-0.837,-0.837,-0.8438,-0.8505,-0.8505,-0.8411,-0.837,-0.837,-0.8067,-0.7905,-0.7905,-0.7621,-0.7482,-0.7482,-0.7161,-0.7006,-0.7006,-0.681,-0.6702,-0.6702,-0.6702,-0.6763,-0.6857,-0.7064,-0.7258,-0.7446,-0.7796,-0.8266,-0.887,-0.9267,-0.9546,-0.9744,-0.988,-1.0031,-1.0199,-1.0245,-1.0343,-1.0478,-1.043,-1.0394,-1.0327,-1.0241,-1.0211,-1.0152,-0.9983,-0.9946,-0.9909,-0.9766,-0.9605,-0.9487,-0.9405,-0.9328,-0.922,-0.9132,-0.9107,-0.9034,-0.8832,-0.8878,-0.8855,-0.855,-0.863,-0.8663,-0.8348,-0.8225,-0.8086,-0.7915,-0.8006,-0.8121,-0.8178,-0.8261,-0.8442,-0.875,-0.9005,-0.9222,-0.9373,-0.9821,-1.0241,-1.0579,-1.0972,-1.1387,-1.1777,-1.2051,-1.2466,-1.3089,-1.3145,-1.3363,-1.3693,-1.4109,-1.4307,-1.4326,-1.471,-1.4898,-1.4898,-1.4637,-1.4473,-1.437,-1.4084,-1.3942,-1.3882,-1.3858,-1.3863,-1.3904,-1.3904,-1.3718,-1.3396,-0.8802,-0.9088,-0.9332,-0.9332,-0.9235,-0.8997,-0.8442,-0.851,-0.8508,-0.826,-0.8438,-0.8581,-0.8581,-0.8642,-0.8682,-0.8682,-0.8621,-0.8581,-0.8581,-0.8364,-0.8209,-0.8209,-0.7925,-0.777,-0.777,-0.7472,-0.7317,-0.7317,-0.7109,-0.7015,-0.7015,-0.7015,-0.7041,-0.7129,-0.7249,-0.7421,-0.7584,-0.7882,-0.8337,-0.8826,-0.9044,-0.9296,0.0,-0.9631,-0.9724,-0.9816,-0.9816,-1.0077,-1.0391,-1.0318,-1.0266,-1.0179,-1.0032,-0.9953,-0.9881,-0.9767,-0.9695,-0.9645,-0.9559,-0.9388,-0.9226,-0.9154,-0.9103,-0.9022,-0.902,-0.8977,-0.8899,-0.884,-0.8813,-0.875,-0.8535,-0.8559,-0.855,-0.8328,-0.8115,-0.7922,-0.7822,-0.7827,-0.7872,-0.7949,-0.7968,-0.8083,-0.8399,-0.8707,-0.899,-0.9288,-0.963,-1.0058,-1.0569,-1.0816,-1.1198,-1.1768,-1.1909,-1.2342,-1.3089,-1.3098,-1.3306,-1.3693,-1.4109,-1.4307,-1.4326,-1.471,-1.4833,-1.467,-1.4473,-1.4244,-1.3952,-1.3933,-1.3822,-1.3718,-1.3837,-1.3904,-1.3868,-1.3682,-1.3503,-1.3253,-0.9234,-0.9486,-0.9672,-0.9672,-0.9989,-0.9972,-0.9112,-0.8998,-0.8936,-0.8646,-0.8716,-0.8798,-0.8798,-0.8885,-0.8967,-0.8967,-0.8845,-0.8791,-0.8771,-0.8628,-0.8533,-0.8539,-0.8223,-0.8067,-0.8047,-0.7776,-0.7645,-0.7631,-0.7498,-0.7423,-0.7423,-0.7423,-0.7423,-0.743,-0.7556,-0.7719,-0.7889,-0.8226,-0.8479,-0.8716,-0.875,-0.8947,-0.9214,-0.9226,-0.9403,-0.9612,-0.9632,-0.996,-1.0398,-1.0258,-1.0162,-1.0026,-0.9728,-0.9544,-0.9435,-0.9444,-0.9342,-0.924,-0.9248,-0.9076,-0.8906,-0.8804,-0.8757,-0.8757,-0.8844,-0.8782,-0.8746,-0.8958,-0.878,-0.8597,-0.8553,-0.8442,-0.8334,-0.8295,-0.8028,-0.7821,-0.7817,-0.7654,-0.7598,-0.778,-0.7782,0.0,-0.8044,-0.8396,-0.8783,-0.9186,-0.9414,-0.982,-1.0514,-1.0575,-1.0977,-1.1768,-1.1787,-1.2219,-1.3089,-1.3098,-1.3316,-1.374,-1.4128,-1.4295,-1.4301,-1.4655,-1.4637,-1.4333,-1.4277,-1.3949,-1.3434,-1.3705,-1.3675,-1.3508,-1.3782,-1.3904,-1.3868,-1.3432,-1.3253,-1.3182,-0.9966,-1.0048,-1.0097,-1.0097,-1.039,-1.0474,-1.0112,-0.9798,-0.9536,-0.9269,-0.9265,-0.9266,-0.9266,-0.9286,-0.9306,-0.9306,-0.9279,-0.924,-0.9111,-0.894,-0.8777,-0.8676,-0.8499,-0.835,-0.826,-0.8027,-0.7878,-0.7773,-0.7631,-0.7556,-0.7556,-0.7556,-0.7556,-0.7563,-0.7712,-0.7929,-0.8233,-0.8506,-0.8662,-0.873,-0.9009,-0.9138,-0.9234,-0.9435,-0.9564,-0.9625,-0.971,-0.9842,-0.9909,-0.9899,-0.9862,-0.9842,-0.9781,-0.9737,-0.972,-0.9605,-0.9551,-0.9503,-0.9403,-0.926,-0.9138,-0.9111,-0.8988,-0.8831,-0.8763,-0.8702,-0.864,-0.847,-0.8559,-0.8589,-0.833,-0.8209,-0.8178,-0.8215,-0.8033,-0.7895,-0.7951,-0.7841,-0.7755,-0.7795,-0.7655,-0.7622,-0.7842,-0.806,-0.8382,-0.8778,-0.8996,-0.9457,-1.0228,-1.0482,-1.0977,-1.1768,-1.1787,-1.2219,-1.3089,-1.3098,-1.3392,-1.3958,-1.4194,-1.4244,-1.4134,-1.4363,-1.431,-1.3973,-1.3695,-1.3498,-1.3401,-1.3459,-1.3616,-1.3815,-1.388,-1.3904,-1.3868,-1.3432,-1.3111,-1.2824,-1.0266,-1.0406,-1.0496,-1.0593,-1.0821,-1.0908,-1.0803,-1.0571,-1.0252,-0.9716,-0.9523,-0.941,-0.941,-0.941,-0.941,-0.941,-0.941,-0.9376,-0.9301,-0.9205,-0.9103,-0.8975,-0.8798,-0.8648,-0.8506,-0.835,-0.8194,-0.8052,-0.7902,-0.7763,-0.7706,-0.7706,-0.7706,-0.7719,-0.795,-0.8214,-0.8506,-0.8648,-0.8798,-0.8981,-0.9124,-0.9274,-0.9437,-0.9551,-0.9652,-0.9697,-0.9765,-0.9792,-0.9792,-0.9792,-0.9792,-0.9792,-0.9792,-0.9792,-0.9778,-0.971,-0.9666,-0.9591,-0.9517,-0.9417,-0.9301,-0.9301,-0.9186,-0.9028,-0.8981,-0.8818,-0.8669,-0.8526,-0.8562,-0.8545,-0.8336,-0.8208,-0.8157,-0.8155,-0.8105,-0.8021,-0.7955,-0.7918,-0.7914,-0.7914,-0.7813,-0.7796,-0.7904,-0.7983,-0.8239,-0.8664,-0.8852,-0.925,-0.996,-1.0111,-1.0545,-1.1355,-1.1373,-1.1764,-1.2565,-1.2574,-1.2883,-1.3484,-1.3684,-1.3789,-1.3859,-1.4056,-1.3949,-1.3621,-1.3465,-1.3268,-1.3095,-1.3324,-1.3614,-1.3904,-1.3904,-1.3753,-1.3539,-1.3182,-1.2796,-1.2474,-1.0547,-1.0712,-1.085,-1.0997,-1.1167,-1.1268,-1.133,-1.1197,-1.0851,-1.012,-0.9805,-0.9612,-0.9523,-0.9551,-0.9587,-0.9523,-0.9523,-0.9496,-0.9435,-0.9429,-0.939,-0.9233,-0.9096,-0.8919,-0.8737,-0.8642,-0.8492,-0.8342,-0.8194,-0.8047,-0.7957,-0.7957,-0.7957,-0.7963,-0.8241,-0.8492,-0.8716,-0.8777,-0.8968,-0.9214,-0.9254,-0.9424,-0.9612,-0.9646,-0.9697,-0.9792,-0.9792,-0.9792,-0.9792,-0.9792,-0.9792,-0.9792,-0.9792,-0.9792,-0.9792,-0.9792,-0.971,-0.9652,-0.9652,-0.9544,-0.9429,-0.9429,-0.9342,-0.9233,-0.9233,-0.9022,-0.8798,-0.8737,-0.8615,-0.8475,-0.8384,-0.8266,-0.8141,-0.8119,-0.8133,-0.81,-0.7954,-0.7947,-0.7968,-0.7977,-0.7958,-0.7954,-0.7995,-0.8048,-0.8234,-0.8659,-0.881,-0.9152,-0.9714,-0.9865,-1.0248,-1.0966,-1.1072,-1.1441,-1.2078,-1.215,-1.2475,-1.3084,-1.3225,-1.3395,-1.3567,-1.3715,-1.3588,-1.3268,-1.3268,-1.3145,-1.2945,-1.3295,-1.3612,-1.3904,-1.3797,-1.3575,-1.3253,-1.2824,-1.2474,-1.2194,-1.1114,-1.113,-1.1147,-1.1163,-1.1354,-1.1533,-1.1733,-1.1591,-1.1218,-1.0539,-1.0422,-1.0293,-0.9985,-1.0114,-1.0141,-0.9967,-0.9954,-0.9846,-0.9605,-0.9591,-0.9517,-0.9396,-0.9376,-0.9205,-0.8892,-0.8879,-0.873,-0.8492,-0.8471,-0.8457,-0.8444,-0.8444,-0.8444,-0.8451,-0.8594,-0.8682,-0.873,-0.9022,-0.9187,-0.9234,-0.9456,-0.9585,-0.9625,-0.9724,-0.9778,-0.9792,-0.9792,-0.9792,-0.9792,-0.9792,-0.9792,-0.9792,-0.9792,-0.9792,-0.9792,-0.9792,-0.9785,-0.9771,-0.9771,-0.97,-0.9591,-0.9591,-0.9469,-0.939,-0.939,-0.926,-0.9104,-0.8919,-0.8682,-0.8457,-0.8327,-0.8145,-0.8069,-0.8169,-0.8053,-0.7966,-0.8057,-0.7938,-0.7839,-0.7901,-0.7809,-0.779,-0.7975,-0.8162,-0.8375,-0.8591,-0.879,-0.9077,-0.9514,-1.0047,-1.0553,-1.1001,-1.13,-1.1658,-1.2106,-1.229,-1.2676,-1.3269,-1.3286,-1.3338,-1.3407,-1.3424,-1.3235,-1.2873,-1.2873,-1.3052,-1.337,-1.3539,-1.3698,-1.3868,-1.3503,-1.3325,-1.3218,-1.251,-1.223,-1.2158,-1.1533,-1.1608,-1.1714,-1.1857,-1.1939,-1.2012,-1.2085,-1.2025,-1.1736,-1.1078,-1.0801,-1.0566,-1.022,-1.0243,-1.0256,-1.0195,-1.0188,-1.0069,-0.9859,-0.9846,-0.9737,-0.953,-0.9517,-0.9422,-0.9211,-0.9205,-0.9055,-0.873,-0.873,-0.8662,-0.8505,-0.8505,-0.8533,-0.8628,-0.875,-0.8893,-0.9015,-0.9226,-0.9369,-0.9435,-0.9557,-0.9659,-0.971,-0.9771,-0.9792,-0.9792,-0.9792,-0.9792,-0.9792,-0.9792,-0.9792,-0.9792,-0.9792,-0.9792,-0.9792,-0.9792,-0.9792,-0.9792,-0.9792,-0.9751,-0.9704,-0.9704,-0.9625,-0.9517,-0.9517,-0.943,-0.9274,-0.9124,-0.8832,-0.8601,-0.8547,-0.8411,-0.8253,-0.8114,-0.814,-0.8158,-0.8002,-0.8053,-0.8117,-0.8148,-0.8019,-0.8061,-0.8397,-0.8426,-0.8556,-0.8869,-0.8869,-0.9005,-0.9424,-0.9729,-1.0088,-1.0516,-1.086,-1.1193,-1.1561,-1.1753,-1.213,-1.2706,-1.2706,-1.2811,-1.3038,-1.3038,-1.2939,-1.2807,-1.2946,-1.3133,-1.3419,-1.3536,-1.3565,-1.3503,-1.3361,-1.3039,-1.2581,-1.2302,-1.2051,-1.1835,-1.1937,-1.2028,-1.2119,-1.228,-1.2304,-1.232,-1.2377,-1.2385,-1.2147,-1.1522,-1.1248,-1.0906,-1.0408,-1.0385,-1.0392,-1.0344,-1.0376,-1.0276,-1.0096,-1.0082,-0.9974,-0.9717,-0.971,-0.9646,-0.9456,-0.9449,-0.9327,-0.9041,-0.9041,-0.896,-0.877,-0.877,-0.8804,-0.8913,-0.8994,-0.9123,-0.926,-0.941,-0.951,-0.9612,-0.9652,-0.9734,-0.9792,-0.9792,-0.9819,-0.9859,-0.9859,-0.9886,-0.9958,-0.9958,-0.9958,-0.9944,-0.9819,-0.9792,-0.9792,-0.9792,-0.9792,-0.9792,-0.9792,-0.9792,-0.9792,-0.9792,-0.9717,-0.9673,-0.9673,-0.9557,-0.943,-0.9281,-0.9043,-0.8825,-0.8757,-0.8655,-0.8465,-0.8182,-0.8284,-0.8266,-0.7976,-0.8065,-0.8157,-0.8184,-0.8105,-0.8191,-0.8559,-0.849,-0.8582,-0.8926,-0.8941,-0.9075,-0.9445,-0.9657,-0.9925,-1.0259,-1.0639,-1.0964,-1.1195,-1.1508,-1.1874,-1.2304,-1.2361,-1.254,-1.2807,-1.2807,-1.2807,-1.2815,-1.3076,-1.3212,-1.3255,-1.341,-1.3365,-1.3146,-1.3003,-1.2653,-1.2194,-1.2086,-1.1835,-1.1584,-1.2359,-1.2304,-1.2304,-1.2304,-1.2304,-1.2361,-1.2564,-1.2596,-1.2394,-1.1853,-1.1776,-1.1446,-1.0605,-1.0622,-1.0656,-1.05,-1.0487,-1.0426,-1.0322,-1.0308,-1.0209,-0.999,-0.9984,-0.9873,-0.9612,-0.9605,-0.953,-0.9403,-0.9403,-0.9403,-0.9396,-0.9396,-0.9396,-0.9403,-0.9403,-0.9403,-0.9417,-0.9544,-0.9605,-0.9618,-0.9731,-0.9792,-0.9792,-0.9792,-0.9886,-0.9984,-0.9984,-1.0148,-1.0276,-1.0276,-1.0276,-1.0254,-0.9917,-0.9792,-0.9792,-0.9792,-0.9792,-0.9792,-0.9792,-0.9792,-0.9792,-0.9792,-0.9792,-0.9792,-0.9792,-0.9707,-0.9564,-0.9437,-0.9281,-0.9131,-0.8933,-0.8784,-0.8655,-0.8526,-0.8383,-0.824,-0.8033,-0.7878,-0.7825,-0.7893,-0.7895,-0.8013,-0.8294,-0.831,-0.8384,-0.8603,-0.898,-0.9327,-0.9575,-0.9983,-1.0268,-1.0401,-1.0912,-1.1187,-1.1195,-1.1722,-1.2086,-1.2312,-1.2515,-1.2661,-1.2807,-1.2807,-1.2807,-1.2823,-1.3214,-1.3162,-1.2842,-1.3185,-1.3111,-1.2753,-1.2366,-1.2194,-1.2158,-1.1763,-1.1584,-1.1584,-1.2867,-1.2742,-1.2637,-1.2637,-1.2637,-1.2694,-1.2897,-1.2824,-1.2643,-1.2386,-1.2043,-1.1597,-1.1045,-1.0822,-1.0671,-1.0649,-1.0649,-1.0582,-1.0465,-1.0426,-1.0358,-1.0215,-1.0209,-1.0114,-0.9886,-0.9879,-0.9758,-0.9537,-0.9537,-0.9483,-0.941,-0.941,-0.941,-0.9417,-0.949,-0.9537,-0.9544,-0.9693,-0.9724,-0.9737,-0.9886,-0.9947,-0.9954,-1.0093,-1.0161,-1.0209,-1.0209,-1.0236,-1.0315,-1.0315,-1.0315,-1.0295,-1.0168,-1.0134,-1.0134,-1.0134,-1.0134,-1.0134,-1.0134,-1.0028,-0.9947,-0.9947,-0.9866,-0.9792,-0.9792,-0.9683,-0.9598,-0.9544,-0.9444,-0.9322,-0.9245,-0.9145,-0.8988,-0.8791,-0.8669,-0.852,-0.8364,-0.8303,-0.824,-0.8172,-0.8062,-0.8066,-0.8335,-0.8376,-0.8522,-0.8907,-0.9155,-0.9353,-0.9534,-1.0048,-1.0428,-1.0607,-1.0976,-1.1281,-1.1411,-1.1795,-1.2094,-1.2312,-1.2515,-1.2661,-1.2807,-1.2576,-1.2477,-1.246,-1.2603,-1.2578,-1.2498,-1.2831,-1.2717,-1.2373,-1.2266,-1.2015,-1.1763,-1.1655,-1.1584,-1.1584,-1.3458,-1.3294,-1.3169,-1.3035,-1.3035,-1.3076,-1.3181,-1.3108,-1.2941,-1.2707,-1.2258,-1.1829,-1.1425,-1.1089,-1.0839,-1.0698,-1.0684,-1.0644,-1.0582,-1.0575,-1.0514,-1.0365,-1.039,-1.029,-1.0109,-1.0103,-1.0015,-0.9863,-0.9771,-0.9693,-0.9544,-0.9544,-0.9544,-0.9551,-0.9646,-0.969,-0.9751,-0.9839,-0.9907,-0.9998,-1.0069,-1.0103,-1.0116,-1.0077,-1.0119,-1.0166,-1.0005,-1.0012,-1.0058,-1.0058,-1.0058,-1.0058,-1.0058,-1.0058,-1.0071,-1.0087,-0.999,-0.9895,-0.9895,-0.9791,-0.9695,-0.9695,-0.9623,-0.9601,-0.9671,-0.9714,-0.9731,-0.967,-0.9571,-0.9469,-0.9469,-0.9369,-0.922,-0.9042,-0.8865,-0.8716,-0.8587,-0.8546,-0.8478,-0.8389,-0.8262,-0.8258,-0.8429,-0.8429,-0.8547,-0.8852,-0.9115,-0.932,-0.9459,-0.993,-1.026,-1.0433,-1.0771,-1.103,-1.124,-1.1587,-1.1815,-1.1988,-1.2193,-1.2334,-1.2412,-1.2213,-1.2145,-1.2188,-1.2259,-1.2229,-1.2172,-1.2471,-1.233,-1.1979,-1.1979,-1.1835,-1.1584,-1.1584,-1.1584,-1.1584,-1.4087,-1.3916,-1.3779,-1.3471,-1.3402,-1.341,-1.3419,-1.341,-1.3273,-1.2903,-1.2517,-1.2165,-1.1786,-1.1407,-1.1084,-1.0772,-1.0711,-1.0698,-1.0684,-1.0684,-1.0623,-1.0514,-1.0507,-1.0439,-1.0329,-1.0297,-1.0322,-1.0315,-1.0103,-0.9961,-0.9825,-0.9825,-0.9825,-0.9825,-0.9825,-0.99,-1.0035,-1.0035,-1.0116,-1.0315,-1.029,-1.0297,-1.0233,-0.9851,-0.9806,-0.9928,-0.9569,-0.9551,-0.9694,-0.9694,-0.9694,-0.9694,-0.9694,-0.9694,-0.9678,-0.9703,-0.9468,-0.9244,-0.9244,-0.9238,-0.92,-0.92,-0.9226,-0.9247,-0.9443,-0.9723,-0.9901,-0.9791,-0.965,-0.9549,-0.9579,-0.9481,-0.9347,-0.9233,-0.9062,-0.8892,-0.8777,-0.8621,-0.8553,-0.8539,-0.8532,-0.8519,-0.8512,-0.8526,-0.8539,-0.8539,-0.8957,-0.9281,-0.9404,-0.9639,-0.9859,-1.0035,-1.0347,-1.0614,-1.0808,-1.1143,-1.1389,-1.1513,-1.1702,-1.181,-1.181,-1.1776,-1.184,-1.197,-1.216,-1.208,-1.1896,-1.2094,-1.1943,-1.1584,-1.1584,-1.1584,-1.1584,-1.1584,-1.1584,-1.1512,-1.4421,-1.4122,-1.3779,-1.3471,-1.3402,-1.3417,-1.352,-1.3465,-1.3382,-1.3424,-1.2766,-1.2268,-1.2165,-1.1579,-1.1166,-1.1097,-1.0928,-1.0813,-1.0691,-1.0684,-1.0704,-1.0637,-1.0663,-1.0595,-1.0446,-1.0439,-1.0392,-1.0315,-1.0243,-1.0209,-1.0168,-1.0168,-1.0168,-1.0168,-1.0168,-1.0195,-1.0222,-1.0222,-1.0249,-1.029,-1.0141,-1.0058,-1.0032,-0.9789,-0.9714,-0.9745,-0.9645,-0.967,-0.9694,-0.9694,-0.9694,-0.9694,-0.9694,-0.9489,-0.931,-0.9615,-0.9629,-0.9596,-0.9596,-0.9451,-0.934,-0.934,-0.9261,-0.9208,-0.9272,-0.9329,-0.938,-0.9349,-0.9237,-0.9211,-0.9482,-0.9336,-0.9242,-0.9474,-0.9374,-0.9266,-0.9225,-0.9117,-0.8981,-0.8818,-0.873,-0.8608,-0.8519,-0.8696,-0.8804,-0.8804,-0.916,-0.9381,-0.9387,-0.9562,-0.9872,-1.0376,-1.0599,-1.0815,-1.0948,-1.1275,-1.1553,-1.1717,-1.1795,-1.181,-1.1776,-1.1479,-1.144,-1.1598,-1.1509,-1.1497,-1.1543,-1.1666,-1.1691,-1.1584,-1.1584,-1.1584,-1.1584,-1.1584,-1.1404,-1.1116,-1.4832,-1.4553,-1.4248,-1.3716,-1.3612,-1.3644,-1.375,-1.3677,-1.3652,-1.3714,-1.3037,-1.2527,-1.2527,-1.1825,-1.1341,-1.1308,-1.1131,-1.1009,-1.0928,-1.0826,-1.0792,-1.0792,-1.0725,-1.0683,-1.0595,-1.0595,-1.0527,-1.0378,-1.0378,-1.0376,-1.0315,-1.0315,-1.0315,-1.0315,-1.0315,-1.0317,-1.0378,-1.0378,-1.0354,-1.0227,-1.0143,-1.0005,-0.982,-0.9531,-0.9422,-0.9422,-0.9256,-0.9195,-0.9195,-0.9195,-0.9195,-0.9195,-0.9195,-0.9056,-0.8917,-0.9123,-0.9195,-0.9195,-0.9195,-0.9104,-0.9019,-0.9019,-0.9098,-0.9125,-0.9065,-0.9182,-0.9261,-0.92,-0.9127,-0.9148,-0.933,-0.9187,-0.9085,-0.9209,-0.9133,-0.9017,-0.8958,-0.8874,-0.8797,-0.8697,-0.8732,-0.8765,-0.8679,-0.8958,-0.9144,-0.9144,-0.9293,-0.9437,-0.9483,-0.9625,-0.9857,-1.018,-1.0367,-1.0552,-1.0788,-1.0998,-1.1195,-1.1314,-1.1314,-1.1314,-1.1288,-1.1126,-1.1177,-1.1364,-1.131,-1.1355,-1.1504,-1.1586,-1.1584,-1.1584,-1.1404,-1.1332,-1.1296,-1.1145,-1.0966,-1.075,-1.5221,-1.5052,-1.4803,-1.4118,-1.394,-1.3904,-1.3904,-1.3904,-1.3904,-1.3904,-1.3253,-1.2789,-1.2789,-1.2079,-1.1565,-1.1436,-1.1342,-1.1247,-1.12,-1.105,-1.0948,-1.0948,-1.0853,-1.0778,-1.0725,-1.0698,-1.0623,-1.0527,-1.0527,-1.0466,-1.0344,-1.0344,-1.0344,-1.0344,-1.0344,-1.0412,-1.0527,-1.0495,-1.0372,-1.0193,-1.0093,-0.9861,-0.9561,-0.9183,-0.9017,-0.8984,-0.8684,-0.859,-0.859,-0.859,-0.859,-0.859,-0.859,-0.859,-0.859,-0.859,-0.859,-0.859,-0.859,-0.859,-0.859,-0.859,-0.8817,-0.8988,-0.8891,-0.9059,-0.9258,-0.9138,-0.9102,-0.909,-0.9154,-0.9046,-0.8925,-0.8872,-0.8739,-0.8611,-0.8502,-0.8448,-0.8417,-0.8423,-0.8667,-0.8836,-0.8836,-0.911,-0.9269,-0.9269,-0.9309,-0.939,-0.9493,-0.9626,-0.9713,-0.9739,-0.9953,-1.0218,-1.0521,-1.0656,-1.0684,-1.0684,-1.0711,-1.0725,-1.0725,-1.088,-1.1063,-1.124,-1.1335,-1.1442,-1.1512,-1.1512,-1.1476,-1.1404,-1.108,-1.0936,-1.0894,-1.0599,-1.0455,-1.0347,-1.5612,-1.5221,-1.4866,-1.4474,-1.4118,-1.3904,-1.3904,-1.3904,-1.3904,-1.3904,-1.3253,-1.2789,-1.2789,-1.2079,-1.1577,-1.1586,-1.1558,-1.1436,-1.1213,-1.1172,-1.1166,-1.1166,-1.1138,-1.1036,-1.088,-1.0752,-1.0677,-1.0683,-1.0683,-1.067,-1.0649,-1.0649,-1.0649,-1.0649,-1.0649,-1.0663,-1.065,-1.0353,-1.024,-1.016,-0.9516,-0.925,-0.915,-0.8817,-0.8684,-0.869,-0.8623,-0.859,-0.859,-0.859,-0.859,-0.859,-0.859,-0.859,-0.859,-0.859,-0.859,-0.859,-0.859,-0.859,-0.859,-0.859,-0.8651,-0.8684,-0.8662,-0.8695,-0.8717,-0.8701,-0.8618,-0.8616,-0.8903,-0.8831,-0.8834,-0.9096,-0.9018,-0.8927,-0.8909,-0.8702,-0.8557,-0.8557,-0.8518,-0.8486,-0.8486,-0.8643,-0.8735,-0.8735,-0.8921,-0.9063,-0.9088,-0.9211,-0.9335,-0.9452,-1.009,-1.0507,-1.0683,-1.0677,-1.0684,-1.0691,-1.0819,-1.088,-1.0887,-1.1063,-1.1247,-1.1355,-1.1382,-1.1264,-1.108,-1.108,-1.093,-1.0671,-1.0599,-1.0563,-1.0563,-1.0527,-1.0275,-0.9987,-1.6003,-1.5524,-1.5094,-1.4726,-1.4247,-1.3904,-1.3904,-1.3904,-1.3904,-1.3904,-1.3253,-1.2789,-1.2789,-1.2079,-1.1584,-1.1584,-1.1584,-1.1558,-1.1416,-1.137,-1.1322,-1.1322,-1.124,-1.1166,-1.1063,-1.0995,-1.0962,-1.0962,-1.0846,-1.0813,-1.0806,-1.0725,-1.0684,-1.0684,-1.0684,-1.0585,-1.0425,-1.0259,-0.9954,-0.9588,-0.925,-0.8984,-0.8817,-0.8656,-0.859,-0.859,-0.859,-0.859,-0.8595,-0.8699,-0.8721,-0.8732,-0.8764,-0.8751,-0.8751,-0.8751,-0.8693,-0.859,-0.859,-0.859,-0.859,-0.859,-0.859,-0.859,-0.859,-0.859,-0.859,-0.859,-0.8546,-0.8541,-0.8706,-0.8639,-0.8587,-0.8749,-0.8646,-0.8566,-0.8566,-0.8463,-0.8389,-0.8389,-0.8491,-0.8548,-0.8548,-0.878,-0.8909,-0.8909,-0.9024,-0.9097,-0.9097,-0.9224,-0.9321,-0.9388,-0.9822,-1.0089,-1.016,-1.0197,-1.0229,-1.0235,-1.0342,-1.0412,-1.0419,-1.0594,-1.069,-1.0761,-1.0867,-1.0866,-1.0714,-1.0714,-1.0635,-1.0491,-1.0275,-1.0167,-1.0167,-0.9951,-0.9735,-0.959,-1.6398,-1.5866,-1.5367,-1.5031,-1.4408,-1.3969,-1.3969,-1.3928,-1.3904,-1.3904,-1.3253,-1.2789,-1.2789,-1.2079,-1.1584,-1.1584,-1.1584,-1.1584,-1.1584,-1.1511,-1.1443,-1.1443,-1.1336,-1.1247,-1.1247,-1.1213,-1.12,-1.12,-1.105,-1.0961,-1.0961,-1.0846,-1.0826,-1.0826,-1.0725,-1.0524,-1.029,-1.0122,-0.9713,-0.9176,-0.9108,-0.8907,-0.8671,-0.8671,-0.8671,-0.8671,-0.8671,-0.8671,-0.8687,-0.878,-0.8812,-0.8829,-0.8887,-0.8919,-0.8919,-0.8919,-0.8784,-0.8671,-0.8671,-0.8671,-0.8671,-0.8671,-0.8671,-0.8671,-0.8671,-0.8671,-0.8671,-0.8671,-0.8671,-0.866,-0.8633,-0.8557,-0.8492,-0.8459,-0.8323,-0.8248,-0.8248,-0.822,-0.8204,-0.8204,-0.8422,-0.8582,-0.8582,-0.8805,-0.8965,-0.8965,-0.8988,-0.9012,-0.9012,-0.9136,-0.9219,-0.9249,-0.9558,-0.9713,-0.9737,-0.9768,-0.9835,-0.9831,-0.9971,-1.0031,-1.0037,-1.0212,-1.0273,-1.0273,-1.0449,-1.0455,-1.0347,-1.0347,-1.0311,-1.0203,-0.9879,-0.9771,-0.9735,-0.941,-0.9302,-0.9302,-1.6765,-1.6131,-1.5569,-1.5532,-1.479,-1.4192,-1.4192,-1.401,-1.3904,-1.3904,-1.3253,-1.2789,-1.2789,-1.2079,-1.1584,-1.1584,-1.1584,-1.1584,-1.1584,-1.157,-1.1599,-1.1599,-1.1457,-1.1375,-1.1375,-1.1268,-1.12,-1.12,-1.1186,-1.1179,-1.1179,-1.1172,-1.1166,-1.1166,-1.0787,-1.058,-1.0545,-0.9855,-0.9509,-0.944,-0.9065,-0.8887,-0.8892,-0.8892,-0.8892,-0.8892,-0.8892,-0.8892,-0.8892,-0.8897,-0.8903,-0.8908,-0.8914,-0.8919,-0.8919,-0.8919,-0.8903,-0.8892,-0.8892,-0.8892,-0.8892,-0.8892,-0.8892,-0.8892,-0.8892,-0.8892,-0.8892,-0.8892,-0.8892,-0.8854,-0.8814,-0.8787,-0.8743,-0.8595,-0.8481,-0.8372,-0.8372,-0.8275,-0.8204,-0.8204,-0.8236,-0.8236,-0.8236,-0.8268,-0.8268,-0.8268,-0.8404,-0.847,-0.847,-0.858,-0.8728,-0.8844,-0.9387,-0.9716,-0.9798,-0.981,-0.9849,-0.9971,-1.011,-1.0177,-1.0177,-1.0382,-1.0473,-1.0473,-1.0485,-1.0275,-0.9951,-0.9951,-0.9735,-0.9374,-0.9338,-0.9338,-0.9338,-0.9302,-0.9302,-0.9302,-1.7152,-1.6412,-1.5799,-1.5799,-1.4975,-1.4335,-1.4335,-1.4188,-1.4075,-1.4075,-1.3323,-1.2789,-1.2789,-1.2079,-1.1584,-1.1584,-1.1584,-1.1584,-1.1584,-1.1584,-1.1584,-1.1584,-1.1565,-1.1531,-1.1531,-1.1477,-1.1443,-1.1443,-1.1348,-1.1307,-1.1336,-1.124,-1.1061,-1.0813,-1.0681,-1.0335,-0.9885,-0.9608,-0.9365,-0.9122,-0.8954,-0.8919,-0.8919,-0.8919,-0.8919,-0.8919,-0.8919,-0.8919,-0.893,-0.9006,-0.9033,-0.9044,-0.9114,-0.9136,-0.9136,-0.9136,-0.9136,-0.9136,-0.9136,-0.9027,-0.8919,-0.8919,-0.8919,-0.8919,-0.8919,-0.8919,-0.8919,-0.8919,-0.8919,-0.8903,-0.8859,-0.8849,-0.8832,-0.8789,-0.8715,-0.8638,-0.8638,-0.853,-0.8454,-0.8454,-0.8454,-0.8454,-0.8454,-0.8454,-0.8454,-0.8454,-0.8497,-0.8524,-0.8524,-0.8638,-0.8758,-0.8843,-0.908,-0.9211,-0.9257,-0.9336,-0.9398,-0.9449,-0.9574,-0.9631,-0.9631,-0.9712,-0.9771,-0.9771,-0.9771,-0.9663,-0.9518,-0.9518,-0.9446,-0.9302,-0.9302,-0.9302,-0.9302,-0.9302,-0.9302,-0.9302,-1.7388,-1.6621,-1.6001,-1.6001,-1.516,-1.4484,-1.4484,-1.4367,-1.4237,-1.4225,-1.3416,-1.2848,-1.2796,-1.2079,-1.1584,-1.1584,-1.1584,-1.1584,-1.1584,-1.1584,-1.1584,-1.1584,-1.1584,-1.1584,-1.1584,-1.1584,-1.1584,-1.1584,-1.1511,-1.1393,-1.1286,-1.1179,-1.0916,-1.0566,-1.0426,-1.011,-0.9625,-0.9484,-0.9274,-0.9027,-0.9027,-0.9027,-0.9027,-0.9027,-0.9027,-0.9027,-0.9027,-0.9027,-0.9038,-0.9125,-0.9152,-0.9163,-0.928,-0.9302,-0.9302,-0.9302,-0.9302,-0.9302,-0.9302,-0.9152,-0.9027,-0.9027,-0.9027,-0.9027,-0.9027,-0.9027,-0.9027,-0.9027,-0.9027,-0.9017,-0.8979,-0.8973,-0.8962,-0.8924,-0.8849,-0.8829,-0.8829,-0.8753,-0.8704,-0.8704,-0.8704,-0.8704,-0.8704,-0.8704,-0.8704,-0.8704,-0.8704,-0.8704,-0.8704,-0.8678,-0.8711,-0.8758,-0.8658,-0.8639,-0.864,-0.8935,-0.9119,-0.9152,-0.9269,-0.9302,-0.9302,-0.9302,-0.9302,-0.9302,-0.9302,-0.9302,-0.9302,-0.9302,-0.923,-0.9121,-0.9121,-0.9049,-0.891,-0.891,-0.891,-0.891,-1.7388,-1.6739,-1.6203,-1.6203,-1.5362,-1.4708,-1.4708,-1.4516,-1.4338,-1.4205,-1.348,-1.2939,-1.2811,-1.2079,-1.1584,-1.1584,-1.1584,-1.1584,-1.1584,-1.1584,-1.1584,-1.1584,-1.1584,-1.1584,-1.1584,-1.1584,-1.1584,-1.1584,-1.1584,-1.1404,-1.1008,-1.1008,-1.0822,-1.0491,-1.0095,-0.9915,-0.9879,-0.9482,-0.9302,-0.9302,-0.9302,-0.9302,-0.9302,-0.9302,-0.9302,-0.9302,-0.9302,-0.9302,-0.9302,-0.9302,-0.9302,-0.9302,-0.9302,-0.9302,-0.9302,-0.9302,-0.9302,-0.9302,-0.9302,-0.9302,-0.9302,-0.9302,-0.9302,-0.9302,-0.9302,-0.9302,-0.9302,-0.9302,-0.9302,-0.9269,-0.9119,-0.9098,-0.906,-0.8941,-0.8919,-0.8919,-0.8919,-0.8919,-0.8919,-0.8919,-0.8919,-0.8919,-0.8919,-0.8884,-0.8884,-0.8884,-0.8884,-0.8884,-0.8884,-0.8571,-0.8413,-0.8485,-0.817,-0.8045,-0.8114,-0.8765,-0.9157,-0.9302,-0.9302,-0.9302,-0.9302,-0.9302,-0.9302,-0.9302,-0.9302,-0.9302,-0.9302,-0.9302,-0.9054,-0.8693,-0.8693,-0.844,-0.8114,-0.8114,-0.8114,-0.8114,-1.7388,-1.6739,-1.6203,-1.6203,-1.5463,-1.4925,-1.4925,-1.4741,-1.4611,-1.4562,-1.3735,-1.3126,-1.3074,-1.2269,-1.1732,-1.1732,-1.1644,-1.1584,-1.1584,-1.1584,-1.1584,-1.1584,-1.1584,-1.1584,-1.1584,-1.1584,-1.1584,-1.1584,-1.1332,-1.1116,-1.1008,-1.075,-1.0455,-1.0059,-0.9951,-0.9735,-0.9482,-0.9338,-0.9302,-0.9302,-0.9302,-0.9302,-0.9302,-0.9302,-0.9302,-0.9302,-0.9302,-0.9302,-0.9302,-0.9302,-0.9302,-0.9302,-0.9302,-0.9302,-0.9302,-0.9302,-0.9302,-0.9302,-0.9302,-0.9302,-0.9302,-0.9302,-0.9302,-0.9302,-0.9302,-0.9302,-0.9302,-0.9302,-0.9302,-0.9296,-0.9258,-0.9253,-0.9242,-0.9168,-0.9098,-0.9044,-0.9044,-0.8973,-0.8919,-0.8919,-0.8919,-0.8919,-0.8919,-0.8676,-0.8537,-0.8537,-0.8288,-0.8184,-0.8263,-0.8157,-0.814,-0.821,-0.8102,-0.8085,-0.8114,-0.8302,-0.841,-0.8476,-0.8476,-0.8476,-0.8476,-0.8476,-0.8476,-0.8476,-0.8476,-0.8476,-0.8476,-0.8476,-0.8403,-0.8295,-0.8295,-0.8222,-0.8114,-0.8114,-0.8114,-0.8114,-1.7388,-1.6739,-1.6203,-1.6203,-1.5544,-1.5006,-1.5006,-1.4917,-1.4789,-1.4716,-1.401,-1.3476,-1.3222,-1.2571,-1.2109,-1.1925,-1.1843,-1.1796,-1.1796,-1.1796,-1.1796,-1.1796,-1.1796,-1.1742,-1.1584,-1.1584,-1.1584,-1.1584,-1.1188,-1.0936,-1.0786,-1.0419,-1.0059,-0.9663,-0.9663,-0.9518,-0.9302,-0.9302,-0.9302,-0.9302,-0.9302,-0.9302,-0.9302,-0.9302,-0.9302,-0.9302,-0.9302,-0.9302,-0.9302,-0.9302,-0.9302,-0.9302,-0.9302,-0.9302,-0.9302,-0.9302,-0.9302,-0.9302,-0.9302,-0.934,-0.9378,-0.9378,-0.934,-0.9302,-0.9302,-0.9302,-0.9302,-0.9302,-0.9302,-0.9302,-0.9302,-0.9302,-0.9302,-0.9302,-0.9247,-0.9163,-0.9163,-0.8961,-0.8807,-0.8807,-0.8666,-0.8601,-0.8601,-0.8389,-0.8283,-0.8283,-0.8066,-0.7953,-0.8019,-0.7912,-0.7868,-0.7892,-0.7752,-0.7679,-0.7679,-0.7679,-0.7824,-0.8114,-0.8114,-0.8114,-0.8114,-0.8114,-0.8114,-0.8114,-0.8114,-0.8114,-0.8114,-0.8114,-0.8005,-0.7897,-0.7897,-0.7788,-0.7679,-0.7679,-0.7679,-0.7679,-1.7388,-1.6739,-1.6203,-1.6203,-1.5544,-1.5006,-1.5006,-1.5006,-1.4949,-1.4749,-1.4392,-1.3914,-1.3312,-1.2909,-1.2566,-1.2155,-1.2104,-1.2098,-1.2098,-1.2098,-1.2098,-1.2098,-1.2098,-1.1975,-1.1667,-1.1624,-1.1653,-1.1604,-1.1171,-1.0798,-1.0491,-1.0059,-0.9663,-0.9302,-0.9302,-0.9302,-0.9302,-0.9302,-0.9302,-0.9302,-0.9302,-0.9302,-0.9302,-0.9302,-0.9302,-0.9302,-0.9302,-0.9302,-0.9302,-0.9302,-0.9302,-0.9302,-0.9302,-0.9302,-0.9307,-0.9318,-0.9318,-0.9323,-0.9334,-0.9416,-0.9503,-0.9503,-0.9421,-0.9334,-0.9334,-0.9334,-0.9334,-0.9334,-0.9334,-0.9334,-0.9334,-0.9334,-0.9334,-0.9262,-0.9262,-0.9262,-0.9226,-0.8894,-0.8672,-0.8672,-0.8336,-0.8114,-0.8114,-0.8078,-0.8041,-0.8005,-0.8005,-0.8005,-0.8005,-0.7715,-0.753,-0.753,-0.7208,-0.699,-0.699,-0.699,-0.7353,-0.8005,-0.8005,-0.8005,-0.8005,-0.8005,-0.8005,-0.8005,-0.8005,-0.8005,-0.8005,-0.8005,-0.7824,-0.753,-0.753,-0.7312,-0.699,-0.699,-0.699,-0.699,-1.7388,-1.6739,-1.6203,-1.6203,-1.5544,-1.5006,-1.5006,-1.5006,-1.499,-1.4949,-1.4567,-1.4137,-1.364,-1.3141,-1.2684,-1.2281,-1.2166,-1.2098,-1.2098,-1.2098,-1.2098,-1.2098,-1.2098,-1.207,-1.2002,-1.2002,-1.1904,-1.1746,-1.1096,-1.0668,-1.0491,-0.9771,-0.9374,-0.9302,-0.9302,-0.9302,-0.9302,-0.9302,-0.9302,-0.9302,-0.9302,-0.9302,-0.9302,-0.9302,-0.9302,-0.9302,-0.9302,-0.9302,-0.9302,-0.9302,-0.9302,-0.9302,-0.9302,-0.9302,-0.9323,-0.9421,-0.9449,-0.947,-0.96,-0.9649,-0.9665,-0.9665,-0.9649,-0.9627,-0.9627,-0.9627,-0.9627,-0.9627,-0.9627,-0.9627,-0.9627,-0.9627,-0.9478,-0.9106,-0.9069,-0.8957,-0.8654,-0.8469,-0.8379,-0.8379,-0.8234,-0.8114,-0.8114,-0.786,-0.7566,-0.728,-0.7244,-0.7244,-0.7244,-0.7172,-0.7135,-0.7135,-0.7063,-0.699,-0.699,-0.699,-0.7063,-0.7244,-0.7244,-0.7244,-0.7244,-0.7244,-0.7244,-0.7244,-0.7244,-0.7244,-0.7244,-0.7244,-0.7208,-0.7135,-0.7135,-0.7063,-0.699,-0.699,-0.699,-0.699,-1.7388,-1.6739,-1.6203,-1.6203,-1.5544,-1.5006,-1.5006,-1.5006,-1.5006,-1.5006,-1.4814,-1.443,-1.3783,-1.3432,-1.3037,-1.2469,-1.2318,-1.2271,-1.2271,-1.2271,-1.2271,-1.2271,-1.2271,-1.2271,-1.2271,-1.2271,-1.2087,-1.1606,-1.1051,-1.0644,-1.0357,-0.977,-0.9476,-0.9476,-0.9476,-0.9476,-0.9476,-0.9476,-0.9476,-0.9476,-0.9476,-0.9476,-0.9476,-0.9476,-0.9476,-0.9476,-0.9476,-0.9476,-0.9476,-0.9476,-0.9476,-0.9476,-0.9476,-0.9476,-0.9492,-0.9594,-0.9611,-0.9627,-0.9693,-0.9709,-0.9748,-0.9748,-0.9796,-0.9807,-0.9731,-0.9709,-0.9709,-0.9709,-0.9521,-0.9371,-0.9371,-0.9216,-0.899,-0.8765,-0.8727,-0.8652,-0.8422,-0.8188,-0.8043,-0.8043,-0.785,-0.7694,-0.7646,-0.7458,-0.7254,-0.7031,-0.699,-0.699,-0.699,-0.7031,-0.7056,-0.7056,-0.7096,-0.7158,-0.7158,-0.7158,-0.7158,-0.7158,-0.7076,-0.7076,-0.7154,-0.7076,-0.7056,-0.7052,-0.7007,-0.699,-0.699,-0.699,-0.699,-0.699,-0.699,-0.699,-0.699,-0.699,-0.6906,-0.6759,-1.7388,-1.6739,-1.6203,-1.6203,-1.5544,-1.5006,-1.5006,-1.5006,-1.5006,-1.5006,-1.5006,-1.4661,-1.3821,-1.359,-1.3235,-1.2579,-1.2501,-1.2501,-1.2501,-1.2501,-1.2501,-1.2501,-1.2501,-1.2501,-1.2501,-1.2501,-1.2174,-1.1458,-1.1089,-1.0664,-1.0191,-0.9859,-0.9709,-0.9709,-0.9709,-0.9709,-0.9709,-0.9709,-0.9709,-0.9709,-0.9709,-0.9709,-0.9709,-0.9709,-0.9709,-0.9709,-0.9709,-0.9709,-0.9709,-0.9709,-0.9709,-0.9709,-0.9709,-0.9709,-0.9709,-0.9731,-0.9699,-0.9704,-0.9764,-0.9796,-0.9829,-0.9829,-0.9905,-0.9932,-0.9699,-0.9656,-0.9656,-0.9656,-0.9278,-0.8975,-0.8975,-0.8706,-0.8436,-0.8365,-0.8361,-0.8323,-0.8247,-0.7931,-0.7733,-0.7733,-0.7461,-0.7273,-0.7158,-0.715,-0.7117,-0.7043,-0.7035,-0.7035,-0.7035,-0.7109,-0.715,-0.715,-0.7261,-0.7264,-0.7184,-0.7184,-0.7155,-0.7095,-0.6982,-0.7016,-0.7184,-0.707,-0.6964,-0.6923,-0.6848,-0.6816,-0.6816,-0.6816,-0.6816,-0.6816,-0.6816,-0.6816,-0.6816,-0.6816,-0.6639,-0.6403,-1.7388,-1.6739,-1.6203,-1.6203,-1.5544,-1.5006,-1.5006,-1.5006,-1.5006,-1.5006,-1.5006,-1.4661,-1.3821,-1.3081,-1.2617,-1.2501,-1.2501,-1.2501,-1.2501,-1.2501,-1.2501,-1.2501,-1.2501,-1.2501,-1.2501,-1.2501,-1.2228,-1.165,-1.127,-1.0754,-1.0191,-0.9859,-0.9709,-0.9709,-0.9709,-0.9709,-0.9709,-0.9709,-0.9709,-0.9709,-0.9709,-0.9709,-0.9709,-0.9709,-0.9709,-0.9709,-0.9709,-0.9709,-0.9709,-0.9709,-0.9709,-0.9709,-0.9709,-0.9709,-0.9725,-0.9786,-0.9775,-0.9802,-0.9943,-0.9981,-0.9953,-0.9953,-0.997,-0.9897,-0.9516,-0.9434,-0.9434,-0.9434,-0.9123,-0.8813,-0.8813,-0.8774,-0.8619,-0.8274,-0.8235,-0.8076,-0.7683,-0.7535,-0.7447,-0.7447,-0.7347,-0.7297,-0.7285,-0.7281,-0.7277,-0.7265,-0.7265,-0.7265,-0.7265,-0.7277,-0.7281,-0.7281,-0.7293,-0.7109,-0.6691,-0.6691,-0.6539,-0.6267,-0.6257,-0.6412,-0.6691,-0.6679,-0.6488,-0.6149,-0.6142,-0.6135,-0.6135,-0.6135,-0.6135,-0.6135,-0.6135,-0.6135,-0.6135,-0.6135,-0.6105,-0.6074,-1.7388,-1.6739,-1.6203,-1.6203,-1.5544,-1.5006,-1.5006,-1.5006,-1.5006,-1.5006,-1.5006,-1.4661,-1.3821,-1.2965,-1.2501,-1.2501,-1.2501,-1.2501,-1.2501,-1.2501,-1.2501,-1.2501,-1.2501,-1.2501,-1.2501,-1.2501,-1.2275,-1.1792,-1.1407,-1.0954,-1.0435,-1.0059,-0.9867,-0.9867,-0.9867,-0.9867,-0.9867,-0.9867,-0.9867,-0.9867,-0.9867,-0.9867,-0.9867,-0.9867,-0.9867,-0.9867,-0.9867,-0.9867,-0.9867,-0.9867,-0.9867,-0.9867,-0.9867,-0.9867,-0.9878,-0.9888,-0.9899,-0.991,-0.997,-0.998,-0.9942,-0.9708,-0.9669,-0.9553,-0.9168,-0.8895,-0.8778,-0.9012,-0.8739,-0.8471,-0.8471,-0.8232,-0.8037,-0.7842,-0.7803,-0.7725,-0.7525,-0.7493,-0.7464,-0.7464,-0.7431,-0.739,-0.7375,-0.7371,-0.7351,-0.7306,-0.7302,-0.7302,-0.7302,-0.7119,-0.7033,-0.7033,-0.6846,-0.6638,-0.6445,-0.6445,-0.6347,-0.6227,-0.6227,-0.6284,-0.6442,-0.6364,-0.6232,-0.6038,-0.6036,-0.6015,-0.6015,-0.6015,-0.6015,-0.6015,-0.6015,-0.6015,-0.6015,-0.6015,-0.5891,-0.5733]},{"header":{"parameterUnit":"m.s-1","parameterCategory":1,"la1":30.6,"la2":28.766,"lo1":-90.7593,"lo2":-88.6598,"dy":0.0162,"dx":0.0183,"nx":116,"ny":114,"refTime":"2023-09-29T18:00:00:Z","depth":0,"parameterNumber":3,"parameterNumberName":"V-component_of_WINDS"},"data":[0.0,0.0,0.0,0.0,0.0,0.0,0.0,0.0,0.0,0.0,0.0,0.0,0.0,0.0,0.0,0.0,0.0,0.0,0.0,0.0,0.0,0.0,0.0,0.0,0.0,0.0,0.0,0.0,0.0,0.0,0.0,0.0,0.0,0.0,0.0,0.0,0.0,0.0,0.0,0.0,0.0,0.0,0.0,0.0,0.0,0.0,0.0,0.0,0.0,0.0,0.0,0.0,0.0,0.0,0.0,0.0,0.0,0.0,0.0,0.0,0.0,0.0,0.0,0.0,0.0,0.0,0.0,0.0,0.0,0.0,0.0,0.0,0.0,0.0,0.0,0.0,0.0,0.0,0.0,0.0,0.0,0.0,0.0,0.0,0.0,0.0,0.0,0.0,0.0,0.0,0.0,0.0,0.0,0.0,0.0,0.0,0.0,0.0,0.0,0.0,0.0,0.0,0.0,0.0,0.0,0.0,0.0,0.0,0.0,0.0,0.0,0.0,0.0,0.0,0.0,0.0,0.0,0.0,0.0,0.0,0.0,0.0,0.0,0.0,0.0,0.0,0.0,0.0,0.0,0.0,0.0,0.0,0.0,0.0,0.0,0.0,0.0,0.0,0.0,0.0,0.0,0.0,0.0,0.0,0.0,0.0,0.0,0.0,0.0,0.0,0.0,0.0,0.0,0.0,0.0,0.0,0.0,0.0,0.0,0.0,0.0,0.0,0.0,0.0,0.0,0.0,0.0,0.0,0.0,0.0,0.0,0.0,0.0,0.0,0.0,0.0,0.0,0.0,0.0,0.0,0.0,0.0,0.0,0.0,0.0,0.0,0.0,0.0,0.0,0.0,0.0,0.0,0.0,0.0,0.0,0.0,0.0,0.0,0.0,0.0,0.0,0.0,0.0,0.0,0.0,0.0,0.0,0.0,0.0,0.0,0.0,0.0,0.0,0.0,0.0,0.0,0.0,0.0,0.0,0.0,0.0,0.0,0.0,0.0,0.0,0.0,0.0,0.0,0.0,0.0,0.0,0.0,0.0,0.0,0.0,0.0,0.0,0.0,0.0,0.0,0.0,0.0,0.0,0.0,0.0,0.0,0.0,0.0,0.0,0.0,0.0,0.0,0.0,0.0,0.0,0.0,0.0,0.0,0.0,0.0,0.0,0.0,0.0,0.0,0.0,0.0,0.0,0.0,0.0,0.0,0.0,0.0,0.0,0.0,0.0,0.0,0.0,0.0,0.0,0.0,0.0,0.0,0.0,0.0,0.0,0.0,0.0,0.0,0.0,0.0,0.0,0.0,0.0,0.0,0.0,0.0,0.0,0.0,0.0,0.0,0.0,0.0,0.0,0.0,0.0,0.0,0.0,0.0,0.0,0.0,0.0,0.0,0.0,0.0,0.0,0.0,0.0,0.0,0.0,0.0,0.0,0.0,0.0,0.0,0.0,0.0,0.0,0.0,0.0,0.0,0.0,0.0,0.0,0.0,0.0,0.0,0.0,0.0,0.0,0.0,0.0,0.0,0.0,0.0,0.0,0.0,0.0,0.0,0.0,0.0,0.0,0.0,0.0,0.0,0.0,0.0,0.0,0.0,0.0,0.0,0.0,0.0,0.0,0.0,0.0,0.0,0.0,0.0,0.0,0.0,0.0,0.0,0.0,0.0,0.0,0.0,0.0,0.0,0.0,0.0,0.0,0.0,0.0,0.0,0.0,0.0,0.0,0.0,0.0,0.0,0.0,0.0,0.0,0.0,0.0,0.0,0.0,0.0,0.0,0.0,0.0,0.0,0.0,0.0,0.0,0.0,0.0,0.0,0.0,0.0,0.0,0.0,0.0,0.0,0.0,0.0,0.0,0.0,0.0,0.0,0.0,0.0,0.0,0.0,0.0,0.0,0.0,0.0,0.0,0.0,0.0,0.0,0.0,0.0,0.0,0.0,0.0,0.0,0.0,0.0,0.0,0.0,0.0,0.0,0.0,0.0,0.0,0.0,0.0,0.0,0.0,0.0,0.0,0.0,0.0,0.0,0.0,0.0,0.0,0.0,0.0,0.0,0.0,0.0,0.0,0.0,0.0,0.0,0.0,0.0,0.0,0.0,0.0,0.0,0.0,0.0,0.0,0.0,0.0,0.0,0.0,0.0,0.0,0.0,0.0,0.0,0.0,0.0,0.0,0.0,0.0,0.0,0.0,0.0,0.0,0.0,0.0,0.0,0.0,0.0,0.0,0.0,0.0,0.0,0.0,0.0,0.0,0.0,0.0,0.0,0.0,0.0,0.0,0.0,0.0,0.0,0.0,0.0,0.0,0.0,0.0,0.0,0.0,0.0,0.0,0.0,0.0,0.0,0.0,0.0,0.0,0.0,0.0,0.0,0.0,0.0,0.0,0.0,0.0,0.0,0.0,0.0,0.0,0.0,0.0,0.0,0.0,0.0,0.0,0.0,0.0,0.0,0.0,0.0,0.0,0.0,0.0,0.0,0.0,0.0,0.0,0.0,0.0,0.0,0.0,0.0,0.0,0.0,0.0,0.0,0.0,0.0,0.0,0.0,0.0,0.0,0.0,0.0,0.0,0.0,0.0,0.0,0.0,0.0,0.0,0.0,0.0,0.0,0.0,0.0,0.0,0.0,0.0,0.0,0.0,0.0,0.0,0.0,0.0,0.0,0.0,0.0,0.0,0.0,0.0,0.0,0.0,0.0,0.0,0.0,0.0,0.0,0.0,0.0,0.0,0.0,0.0,0.0,0.0,0.0,0.0,0.0,0.0,0.0,0.0,0.0,0.0,0.0,0.0,0.0,0.0,0.0,0.0,0.0,0.0,0.0,0.0,0.0,0.0,0.0,0.0,0.0,0.0,0.0,0.0,0.0,0.0,0.0,0.0,0.0,0.0,0.0,0.0,0.0,0.0,0.0,0.0,0.0,0.0,0.0,0.0,0.0,0.0,0.0,0.0,0.0,0.0,0.0,0.0,0.0,0.0,0.0,0.0,0.0,0.0,0.0,0.0,0.0,0.0,0.0,0.0,0.0,0.0,0.0,0.0,0.0,0.0,0.0,0.0,0.0,0.0,0.0,0.0,0.0,0.0,0.0,0.0,0.0,0.0,0.0,0.0,0.0,0.0,0.0,0.0,0.0,0.0,0.0,0.0,0.0,0.0,0.0,0.0,0.0,0.0,0.0,0.0,0.0,0.0,0.0,0.0,0.0,0.0,0.0,0.0,0.0,0.0,0.0,0.0,0.0,0.0,0.0,0.0,0.0,0.0,0.0,0.0,0.0,0.0,0.0,0.0,0.0,0.0,0.0,0.0,0.0,0.0,0.0,0.0,0.0,0.0,0.0,0.0,0.0,0.0,0.0,0.0,0.0,0.0,0.0,0.0,0.0,0.0,0.0,0.0,0.0,0.0,0.0,0.0,0.0,0.0,0.0,0.0,0.0,0.0,0.0,0.0,0.0,0.0,0.0,0.0,0.0,0.0,0.0,0.0,0.0,0.0,0.0,0.0,0.0,0.0,0.0,0.0,0.0,0.0,0.0,0.0,0.0,0.0,0.0,0.0,0.0,0.0,0.0,0.0,0.0,0.0,0.0,0.0,0.0,0.0,0.0,0.0,0.0,0.0,0.0,0.0,0.0,0.0,0.0,0.0,0.0,0.0,0.0,0.0,0.0,0.0,0.0,0.0,0.0,0.0,0.0,0.0,0.0,0.0,0.0,0.0,0.0,0.0,0.0,0.0,0.0,0.0,0.0,0.0,0.0,0.0,0.0,0.0,0.0,0.0,0.0,0.0,0.0,0.0,0.0,0.0,0.0,0.0,0.0,0.0,0.0,0.0,0.0,0.0,0.0,0.0,0.0,0.0,0.0,0.0,0.0,0.0,0.0,0.0,0.0,0.0,0.0,0.0,0.0,0.0,0.0,0.0,0.0,0.0,0.0,0.0,0.0,0.0,0.0,0.0,0.0,0.0,0.0,0.0,0.0,0.0,0.0,0.0,0.0,0.0,0.0,0.0,0.0,0.0,0.0,0.0,0.0,0.0,0.0,0.0,0.0,0.0,0.0,0.0,0.0,0.0,0.0,0.0,0.0,0.0,0.0,0.0,0.0,0.0,0.0,0.0,0.0,0.0,0.0,0.0,0.0,0.0,0.0,0.0,0.0,0.0,0.0,0.0,0.0,0.0,0.0,0.0,0.0,0.0,0.0,0.0,0.0,0.0,0.0,0.0,0.0,0.0,0.0,0.0,0.0,0.0,0.0,0.0,0.0,0.0,0.0,0.0,0.0,0.0,0.0,0.0,0.0,0.0,0.0,0.0,0.0,0.0,0.0,0.0,0.0,0.0,0.0,0.0,0.0,0.0,0.0,0.0,0.0,0.0,0.0,0.0,0.0,0.0,0.0,0.0,0.0,0.0,0.0,0.0,0.0,0.0,0.0,0.0,0.0,0.0,0.0,0.0,0.0,0.0,0.0,0.0,0.0,0.0,0.0,0.0,0.0,0.0,0.0,0.0,0.0,0.0,0.0,0.0,0.0,0.0,0.0,0.0,0.0,0.0,0.0,0.0,0.0,0.0,0.0,0.0,0.0,0.0,0.0,0.0,0.0,0.0,0.0,0.0,0.0,0.0,0.0,0.0,0.0,0.0,0.0,0.0,0.0,0.0,0.0,0.0,0.0,0.0,0.0,0.0,0.0,0.0,0.0,0.0,0.0,0.0,0.0,0.0,0.0,0.0,0.0,0.0,0.0,0.0,0.0,0.0,0.0,0.0,0.0,0.0,0.0,0.0,0.0,0.0,0.0,0.0,0.0,0.0,0.0,0.0,0.0,0.0,0.0,0.0,0.0,0.0,0.0,0.0,0.0,0.0,0.0,0.0,0.0,0.0,0.0,0.0,0.0,0.0,0.0,0.0,0.0,0.0,0.0,0.0,0.0,0.0,0.0,0.0,0.0,0.0,0.0,0.0,0.0,0.0,0.0,0.0,0.0,0.0,0.0,0.0,0.0,0.0,0.0,0.0,0.0,0.0,0.0,0.0,0.0,0.0,0.0,0.0,0.0,0.0,0.0,0.0,0.0,0.0,0.0,0.0,0.0,0.0,0.0,0.0,0.0,0.0,0.0,0.0,0.0,0.0,0.0,0.0,0.0,0.0,0.0,0.0,0.0,0.0,0.0,0.0,0.0,0.0,0.0,0.0,0.0,0.0,0.0,0.0,0.0,0.0,0.0,0.0,0.0,0.0,0.0,0.0,0.0,0.0,0.0,0.0,0.0,0.0,0.0,0.0,0.0,0.0,0.0,0.0,0.0,0.0,0.0,0.0,0.0,0.0,0.0,0.0,0.0,0.0,0.0,0.0,0.0,0.0,0.0,0.0,0.0,0.0,0.0,0.0,0.0,0.0,0.0,0.0,0.0,0.0,0.0,0.0,0.0,0.0,0.0,0.0,0.0,0.0,0.0,0.0,0.0,0.0,0.0,0.0,0.0,0.0,0.0,0.0,0.0,0.0,0.0,0.0,0.0,0.0,0.0,0.0,0.0,0.0,0.0,0.0,0.0,0.0,0.0,0.0,0.0,0.0,0.0,0.0,0.0,0.0,0.0,0.0,0.0,0.0,0.0,0.0,0.0,0.0,0.0,0.0,0.0,0.0,0.0,0.0,0.0,0.0,0.0,0.0,0.0,0.0,0.0,0.0,0.0,0.0,0.0,0.0,0.0,0.0,0.0,0.0,0.0,0.0,0.0,0.0,0.0,0.0,0.0,0.0,0.0,0.0,0.0,0.0,0.0,0.0,0.0,0.0,0.0,0.0,0.0,0.0,0.0,0.0,0.0,0.0,0.0,0.0,0.0,0.0,0.0,0.0,0.0,0.0,0.0,0.0,0.0,0.0,0.0,0.0,0.0,0.0,0.0,0.0,0.0,0.0,0.0,0.0,0.0,0.0,0.0,0.0,0.0,0.0,0.0,0.0,0.0,0.0,0.0,0.0,0.0,0.0,0.0,0.0,0.0,0.0,0.0,0.0,0.0,0.0,0.0,0.0,0.0,0.0,0.0,0.0,0.0,0.0,0.0,0.0,0.0,0.0,0.0,0.0,0.0,0.0,0.0,0.0,0.0,0.0,0.0,0.0,0.0,2.2573,2.1585,0.0,0.0,0.0,0.0,0.0,0.0,0.0,0.0,0.0,0.0,0.0,0.0,0.0,0.0,0.0,0.0,0.0,0.0,0.0,0.0,0.0,0.0,0.0,0.0,0.0,0.0,0.0,0.0,0.0,0.0,0.0,0.0,0.0,0.0,0.0,0.0,0.0,1.5413,1.5402,1.6066,1.7293,1.568,1.4782,1.4521,0.0,0.0,0.0,0.0,0.0,0.0,0.0,0.0,0.0,0.0,0.0,0.0,0.0,0.0,0.0,0.0,0.0,0.0,0.0,0.0,0.0,0.0,0.0,0.0,0.0,0.0,0.0,0.0,0.0,0.0,0.0,0.0,0.0,0.0,0.0,0.0,0.0,0.0,0.0,0.0,0.0,0.0,0.0,0.0,0.0,0.0,0.0,0.0,0.0,0.0,0.0,0.0,0.0,0.0,0.0,0.0,0.0,0.0,0.0,0.0,0.0,0.0,0.0,0.0,0.0,0.0,0.0,0.0,0.0,0.0,2.5259,2.3842,0.0,0.0,0.0,0.0,0.0,0.0,0.0,0.0,0.0,0.0,0.0,0.0,0.0,0.0,0.0,0.0,0.0,0.0,0.0,0.0,0.0,0.0,0.0,1.2895,1.3261,1.3918,1.4162,1.4274,1.4284,0.0,0.0,0.0,0.0,0.0,1.6363,1.6586,1.6773,1.6988,1.7255,1.7788,1.8467,1.8483,1.8255,1.7757,1.7363,0.0,0.0,0.0,0.0,0.0,0.0,0.0,0.0,0.0,0.0,0.0,0.0,0.0,0.0,0.0,0.0,0.0,0.0,0.0,0.0,0.0,0.0,0.0,0.0,0.0,0.0,0.0,0.0,0.0,0.0,0.0,0.0,0.0,0.0,0.0,0.0,0.0,0.0,0.0,0.0,0.0,0.0,0.0,0.0,0.0,0.0,0.0,0.0,0.0,0.0,0.0,0.0,0.0,0.0,0.0,0.0,0.0,0.0,0.0,0.0,0.0,0.0,0.0,2.9831,3.0143,3.0143,3.0143,3.0145,3.0033,2.7969,2.6286,2.5072,2.5072,0.0,0.0,0.0,0.0,0.0,0.0,0.0,0.0,0.0,0.0,0.0,0.0,0.0,0.0,0.0,0.0,0.0,0.0,0.0,1.328,1.3434,1.408,1.4536,1.4669,1.5293,1.5732,1.5706,0.0,0.0,0.0,0.0,0.0,1.6298,1.7006,1.7697,1.8408,1.986,2.0665,2.0787,2.0889,2.0897,2.0753,1.882,1.754,1.6848,0.0,0.0,0.0,0.0,0.0,0.0,0.0,0.0,0.0,0.0,0.0,0.0,0.0,0.0,0.0,0.0,0.0,0.0,0.0,0.0,0.0,0.0,0.0,0.0,0.0,0.0,0.0,0.0,0.0,0.0,0.0,0.0,0.0,0.0,0.0,0.0,0.0,0.0,0.0,0.0,0.0,2.2682,2.2916,0.0,0.0,0.0,0.0,0.0,0.0,0.0,0.0,0.0,0.0,0.0,0.0,0.0,3.0812,3.1594,3.1594,3.1945,3.261,3.2728,3.2806,3.2806,3.2806,3.2806,3.2769,3.2508,0.0,2.7773,2.7773,0.0,0.0,0.0,0.0,0.0,0.0,0.0,0.0,0.0,0.0,0.0,0.0,0.0,0.0,0.0,0.0,0.0,0.0,0.0,0.0,0.0,1.4833,1.5297,1.5306,1.567,1.5884,1.5941,1.5978,0.0,0.0,0.0,1.7808,1.8738,1.9124,1.9692,2.0552,2.135,2.2186,2.3068,2.3169,2.3235,2.3212,2.2307,2.1079,1.9626,1.9202,0.0,0.0,0.0,0.0,0.0,0.0,0.0,0.0,0.0,0.0,0.0,0.0,0.0,0.0,0.0,0.0,0.0,0.0,0.0,0.0,0.0,0.0,0.0,0.0,0.0,0.0,0.0,0.0,0.0,0.0,0.0,0.0,0.0,0.0,0.0,0.0,0.0,0.0,0.0,2.3746,2.468,2.5179,2.5998,2.6658,0.0,0.0,0.0,0.0,0.0,0.0,0.0,0.0,0.0,3.1574,3.2424,3.3041,3.3463,3.393,3.4359,3.4713,3.5219,3.5452,3.5452,3.5452,3.5455,3.5425,3.4937,3.3637,3.1755,3.0803,3.0146,2.9677,0.0,0.0,0.0,0.0,2.7569,2.7142,0.0,0.0,0.0,0.0,0.0,0.0,0.0,0.0,0.0,0.0,0.0,0.0,1.4789,1.5508,1.596,1.597,1.6375,1.6669,1.6733,1.6885,1.7545,1.8758,1.8814,1.9476,2.0895,2.133,2.1971,2.2832,2.2887,2.3553,2.4727,2.4828,2.4895,2.498,2.507,2.3949,2.1908,2.1292,2.0633,1.9917,0.0,0.0,0.0,0.0,0.0,0.0,0.0,0.0,0.0,0.0,0.0,0.0,0.0,0.0,0.0,0.0,0.0,0.0,0.0,0.0,0.0,0.0,0.0,0.0,0.0,0.0,0.0,0.0,0.0,0.0,0.0,0.0,0.0,0.0,0.0,0.0,0.0,2.557,2.6574,2.7411,2.8271,2.8888,0.0,0.0,0.0,0.0,0.0,0.0,3.2584,3.3641,3.422,3.4162,3.4973,3.5469,3.5451,3.6074,3.6425,3.6425,3.7087,3.7361,3.7361,3.7361,3.7371,3.7352,3.6716,3.6116,3.5403,3.3529,3.2225,3.1445,3.1445,3.1055,3.047,3.047,3.0082,2.9619,0.0,0.0,0.0,0.0,0.0,0.0,0.0,0.0,0.0,0.0,0.0,1.4584,1.5362,1.6179,1.6686,1.6727,1.8074,1.8927,1.8933,1.9587,2.0055,2.0196,2.0267,2.0677,2.1539,2.3052,2.4239,2.5053,2.5169,2.5285,2.5362,2.5489,2.558,2.5638,2.5733,2.4573,2.2559,2.2596,2.2182,2.1525,2.0784,0.0,0.0,0.0,0.0,0.0,0.0,0.0,0.0,0.0,0.0,0.0,0.0,0.0,0.0,0.0,0.0,0.0,0.0,0.0,0.0,0.0,0.0,0.0,0.0,0.0,0.0,0.0,0.0,0.0,0.0,0.0,0.0,0.0,0.0,0.0,0.0,0.0,0.0,2.9065,2.9958,0.0,0.0,0.0,0.0,3.2924,3.3684,3.4182,3.4182,3.5814,3.6707,3.6704,3.7555,3.8016,3.8016,3.8055,3.8093,3.8093,3.8132,3.8132,3.8132,3.8132,3.8152,3.8147,3.8174,3.8164,3.7928,3.5496,3.3973,3.316,3.316,3.316,3.3121,3.3121,3.3128,3.3141,0.0,0.0,0.0,0.0,0.0,0.0,0.0,0.0,1.3449,1.4145,1.4703,1.5292,1.6067,1.6808,1.7474,1.7989,1.8559,1.9125,1.9636,1.9985,2.0613,2.1674,2.1734,2.2336,2.3576,2.4749,2.572,2.648,2.7152,2.7723,2.8235,2.8388,2.8428,2.8458,2.8633,2.8017,2.6761,2.5469,2.4483,2.3764,2.3021,2.231,0.0,0.0,0.0,0.0,0.0,0.0,0.0,0.0,0.0,0.0,0.0,0.0,0.0,0.0,0.0,0.0,0.0,0.0,0.0,0.0,0.0,0.0,0.0,0.0,0.0,0.0,0.0,0.0,0.0,0.0,0.0,0.0,0.0,0.0,0.0,0.0,0.0,3.1455,3.1879,0.0,3.3255,3.407,3.4805,3.5368,3.6212,3.6674,3.6674,3.7259,3.7833,3.8366,3.9224,3.9917,4.0449,4.0992,4.1301,4.1301,4.1301,4.1301,4.1301,4.133,4.1352,4.1366,4.1432,4.1155,4.051,3.9102,3.7736,3.6513,3.6513,3.6202,3.5735,3.5748,3.5058,3.4096,0.0,0.0,0.0,0.0,0.0,0.0,0.0,1.2809,1.3495,1.4436,1.5026,1.5741,1.6742,1.7493,1.8139,1.8659,1.9205,1.9725,2.0268,2.082,2.1597,2.2731,2.357,2.4452,2.5448,2.6573,2.7384,2.7865,2.8581,2.9191,2.9701,2.9867,2.9949,2.9957,3.0117,2.9937,2.9397,2.8071,2.6816,2.5648,2.4945,2.4106,2.3142,0.0,0.0,0.0,0.0,0.0,0.0,0.0,0.0,0.0,0.0,0.0,0.0,0.0,0.0,0.0,0.0,0.0,0.0,0.0,0.0,0.0,0.0,0.0,0.0,0.0,0.0,0.0,0.0,0.0,0.0,0.0,0.0,0.0,0.0,3.1275,3.2129,3.3527,3.3904,3.4431,3.5288,3.5867,3.6523,3.736,3.825,3.8864,3.9162,3.9435,3.9814,4.0347,4.0935,4.1511,4.2044,4.2623,4.2901,4.2919,4.2919,4.2927,4.2983,4.3017,4.3043,4.3059,4.3119,4.2799,4.2228,4.1731,4.0871,3.9827,3.8709,3.7948,3.7482,3.7508,3.6785,3.5788,0.0,0.0,0.0,0.0,0.0,0.0,1.2878,1.3114,1.3615,1.5098,1.5297,1.5867,1.7351,1.8173,1.8631,1.8707,2.0063,2.0906,2.0966,2.2326,2.3201,2.3392,2.5657,2.696,2.7068,2.8476,2.9236,2.927,2.9489,2.961,2.9653,2.9832,2.9916,2.9959,3.0089,3.0127,3.0099,3.0302,2.914,2.7179,2.6531,2.5358,2.4039,0.0,0.0,0.0,0.0,0.0,0.0,0.0,0.0,0.0,0.0,0.0,0.0,0.0,0.0,0.0,0.0,0.0,0.0,0.0,0.0,0.0,0.0,0.0,0.0,0.0,0.0,0.0,0.0,0.0,0.0,0.0,0.0,0.0,3.1687,3.3016,3.4354,3.5161,3.5955,3.6794,3.7686,3.7762,3.8101,3.8936,3.9786,4.0626,4.1489,4.2258,4.2682,4.2721,4.2721,4.2764,4.2797,4.2802,4.287,4.2962,4.2962,4.2953,4.3,4.3004,4.3032,4.3081,4.3081,4.3064,4.3064,4.311,4.313,4.2838,3.9628,3.8327,3.8333,3.8407,3.8396,3.8343,0.0,0.0,0.0,0.0,0.0,0.0,1.2878,1.3114,1.3615,1.5098,1.5297,1.5862,1.7355,1.8106,1.8736,1.9306,2.0256,2.1297,2.2337,2.2865,2.384,2.5472,2.6808,2.7755,2.8304,2.9372,3.0194,3.0704,3.1407,3.2011,3.2559,3.2737,3.2832,3.2876,3.3097,3.2876,3.231,3.1907,3.1102,2.9937,2.8313,2.7488,2.7127,0.0,0.0,0.0,0.0,0.0,0.0,0.0,0.0,0.0,0.0,0.0,0.0,0.0,0.0,0.0,0.0,0.0,0.0,0.0,0.0,0.0,0.0,0.0,0.0,0.0,0.0,0.0,0.0,0.0,0.0,0.0,3.3922,3.4126,3.4048,3.4381,3.5206,3.6639,3.6981,3.7702,3.915,3.9302,3.9905,4.1336,4.1646,4.1911,4.2133,4.2367,4.2752,4.3333,4.3416,4.4009,4.5226,4.531,4.5687,4.627,4.627,4.5976,4.5426,4.5426,4.5109,4.46,4.4681,4.472,4.4696,4.4129,4.3883,4.3747,4.2375,4.143,4.0896,4.0974,4.0212,3.906,0.0,0.0,0.0,0.0,0.0,0.0,1.2878,1.3114,1.3615,1.5098,1.5297,1.5856,1.7343,1.8379,1.9128,1.9551,2.06,2.1724,2.2894,2.3612,2.4821,2.6749,2.766,2.8443,2.9163,3.0379,3.121,3.1626,3.2546,3.324,3.3649,3.3822,3.3868,3.3868,3.4111,3.3965,3.3499,3.291,3.2477,3.2011,3.0192,2.9012,2.8288,2.7408,2.6145,2.4818,2.4616,2.3756,2.2712,2.2433,0.0,0.0,0.0,0.0,0.0,0.0,0.0,0.0,0.0,0.0,0.0,0.0,0.0,0.0,0.0,0.0,0.0,0.0,0.0,0.0,0.0,0.0,0.0,0.0,3.5313,3.598,3.6745,3.6587,3.6905,3.8191,3.8683,3.9401,4.0724,4.0876,4.1405,4.2766,4.288,4.3182,4.3863,4.3901,4.4285,4.5079,4.5161,4.5635,4.6619,4.6702,4.6961,4.7486,4.7486,4.7245,4.6844,4.6842,4.661,4.6226,4.6298,4.6135,4.5796,4.5314,4.4929,4.4547,0.0,0.0,0.0,0.0,4.1861,4.0984,0.0,0.0,0.0,0.0,0.0,0.0,1.2882,1.3114,1.3615,1.5098,1.5297,1.5856,1.7343,1.8776,1.9584,1.9584,2.0962,2.2136,2.2965,2.4472,2.597,2.7459,2.8271,2.902,2.9794,3.1298,3.2132,3.2189,3.3218,3.3729,3.3831,3.3911,3.3929,3.3939,3.4143,3.4174,3.4066,3.3603,3.3443,3.3361,3.2003,3.0302,2.8549,2.8452,2.7586,2.6326,2.5604,2.4928,2.4213,2.3426,0.0,0.0,0.0,0.0,0.0,0.0,0.0,0.0,0.0,0.0,0.0,0.0,0.0,0.0,0.0,0.0,0.0,0.0,0.0,0.0,0.0,0.0,0.0,0.0,3.6238,3.7773,3.9293,3.9126,3.9102,3.9861,4.062,4.1412,4.2228,4.2379,4.28,4.3673,4.3823,4.4502,4.5985,4.606,0.0,0.0,0.0,4.7191,4.7304,4.7318,4.7398,4.7573,4.7579,4.7577,4.7612,4.7612,4.758,4.7566,4.7584,4.7172,4.6493,4.6525,4.6091,4.5277,4.3713,4.3158,4.3128,4.3089,4.3103,4.3185,0.0,0.0,0.0,0.0,0.0,0.0,1.2886,1.3114,1.3615,1.5098,1.5297,1.5856,1.7343,1.8776,1.9584,1.9584,2.0962,2.2368,2.3686,2.5185,2.6661,2.813,2.8415,2.9172,3.0472,3.1497,3.2309,3.2913,3.3758,3.4498,3.515,3.5315,3.5403,3.5414,3.5542,3.5317,3.4816,3.4825,3.4184,3.3158,3.3016,3.2132,3.0748,2.954,2.8583,2.7743,2.7083,2.6404,2.5687,2.4912,2.423,2.3546,2.2905,2.2301,0.0,0.0,0.0,0.0,0.0,0.0,0.0,0.0,0.0,0.0,0.0,0.0,0.0,0.0,0.0,0.0,0.0,0.0,0.0,3.6942,3.8082,3.9043,4.0009,4.0565,4.1052,4.137,4.154,4.1952,4.2768,4.3472,4.4227,4.5065,4.5694,4.6218,4.6562,4.6562,4.6637,4.6779,4.6847,4.7215,4.792,4.8017,4.8436,4.9174,4.9195,0.0,4.8239,4.8239,4.7868,4.7284,4.7396,4.7365,4.722,4.7312,4.6915,4.6041,4.4566,4.3957,4.388,4.3199,4.297,4.3056,0.0,0.0,0.0,0.0,0.0,0.0,1.2921,1.3127,1.3615,1.5098,1.5297,1.5856,1.7343,1.8776,1.9584,1.9584,2.1624,2.3222,2.3951,2.5366,2.6866,2.8343,2.8448,2.9131,3.0549,3.1816,3.2638,3.3005,3.422,3.5014,3.5395,3.5566,3.5645,3.5656,3.5845,3.5716,3.5361,3.4809,3.415,3.3517,3.2896,3.2301,3.1694,3.0682,2.9666,2.8648,2.8,2.7285,2.6592,2.5856,2.5386,2.5037,2.4251,2.3773,2.3478,0.0,0.0,0.0,0.0,0.0,0.0,0.0,0.0,0.0,0.0,0.0,0.0,0.0,0.0,3.3278,3.4537,0.0,3.6505,3.8141,3.9067,4.003,4.1237,4.1755,4.2083,4.2299,4.2314,4.2761,4.3982,4.4504,4.5062,4.5882,4.6368,4.684,4.7221,4.7298,4.7546,4.7927,4.7967,4.8215,4.8664,4.8713,4.8985,4.9406,4.9445,4.9273,4.8889,4.8889,4.8745,4.8447,4.8517,4.828,4.7871,4.7599,4.7239,4.6807,4.5737,4.5079,4.4709,4.4245,4.414,4.421,0.0,0.0,0.0,0.0,0.0,0.0,1.2752,1.305,1.3591,1.4922,1.5198,1.5795,1.7144,1.8545,1.9492,1.9796,2.2254,2.3851,2.3984,2.5234,2.67,2.8343,2.8409,2.9062,3.0456,3.1899,3.2729,3.2862,3.4341,3.5123,3.5268,3.5383,3.5486,3.552,3.5667,3.5677,3.5528,3.4493,3.3927,3.3667,3.2565,3.2086,3.2003,3.1451,3.0474,2.9332,2.8621,2.794,2.727,2.653,2.6321,2.6259,2.5525,2.5396,2.5335,2.4693,2.4985,0.0,0.0,0.0,0.0,0.0,0.0,0.0,0.0,3.0826,3.2158,3.2827,3.3735,3.4643,3.5503,3.6873,3.8088,3.8906,3.9827,4.0933,4.2214,4.2685,4.2918,4.3072,4.3187,4.3783,4.5267,4.5527,4.5898,4.6549,4.6839,4.7252,4.7938,4.8042,4.8427,4.9069,4.9123,4.9131,4.9131,4.9164,4.9181,4.9181,4.9197,4.9279,4.936,4.936,4.9446,4.9626,4.9663,4.93,4.8598,4.7885,4.7591,4.7579,4.6865,4.6115,4.5464,4.5322,4.5314,4.5361,0.0,0.0,0.0,0.0,0.0,0.0,0.0,0.0,1.3457,1.4207,1.4884,1.5596,1.642,1.7783,1.9134,2.0446,2.207,2.3288,2.3951,2.477,2.617,2.831,2.8409,2.9062,3.0456,3.1338,3.2078,3.273,3.3683,3.4473,3.514,3.5256,3.5372,3.5508,3.5509,3.5273,3.4825,3.4676,3.396,3.2916,3.284,3.2426,3.1844,3.1194,3.0508,2.9855,2.9233,2.8607,2.7984,2.7163,2.6968,2.6944,2.6207,2.6037,2.6075,2.6048,2.6176,2.6293,2.6299,2.7399,2.8566,2.8578,2.9783,3.0994,0.0,3.2205,3.3417,3.349,3.4717,3.6016,3.6834,3.7711,3.8587,3.9406,4.0802,4.1853,4.2044,4.3305,4.4218,4.4236,4.4548,4.5122,4.5992,4.6739,4.72,4.7274,4.7949,4.8438,4.8512,4.8521,4.8567,4.8641,4.8759,4.884,4.884,4.9033,4.9118,4.9118,4.9164,4.9222,4.9238,4.9238,4.9287,4.9345,4.9536,4.9596,4.9504,4.865,4.8352,4.8376,4.7513,4.6778,4.6115,4.5375,4.517,4.5235,0.0,0.0,0.0,0.0,0.0,0.0,0.0,0.0,1.3442,1.4122,1.4463,1.5111,1.6287,1.7657,1.9108,2.0553,2.168,2.2766,2.3918,2.4671,2.5905,2.768,2.8177,2.8863,2.9837,3.0986,3.1747,3.2056,3.2851,3.3416,3.3715,3.384,3.3929,3.3985,3.4141,3.4093,3.3852,3.3538,3.3097,3.2617,3.2259,3.1735,3.1067,3.0915,3.0142,2.9102,2.9015,2.8604,0.0,2.7705,2.7687,2.7658,2.6854,2.6691,2.6718,2.6237,2.6471,2.7085,2.8063,2.9188,3.009,3.009,3.0959,3.1974,3.2424,3.3442,3.4411,3.4885,3.5906,3.6817,3.7153,3.8247,3.9341,4.0179,4.1273,4.2148,4.2631,4.3679,4.4582,4.5028,4.5653,4.6204,4.6627,4.6976,4.7371,4.7877,4.8301,4.856,4.856,4.8578,4.8615,4.8615,4.9122,4.9362,4.9362,5.0008,5.008,4.9635,4.9703,4.952,4.9123,4.9123,4.9197,4.9289,4.9406,4.9483,4.9559,4.9235,4.9121,4.9112,4.828,4.7826,4.7485,4.6263,4.551,4.5148,0.0,0.0,0.0,0.0,0.0,0.0,0.0,0.0,0.0,0.0,1.4084,1.4756,1.6254,1.7657,1.9002,2.0281,2.1076,2.2136,2.3586,2.4373,2.5441,2.6941,2.7713,2.8432,2.9118,3.0357,3.1085,3.1317,3.2034,3.2508,3.2707,3.2807,3.2862,3.2906,3.3125,3.3131,3.2938,3.2584,3.2234,3.1832,3.1397,3.0807,3.0184,3.0136,2.9444,2.8524,2.8778,2.8463,2.7925,2.7947,2.8067,2.8051,2.7475,2.7355,2.7394,2.7029,2.7528,2.8471,2.969,3.064,3.1317,3.1527,3.222,3.306,3.3871,3.4714,3.5478,3.6087,3.6821,3.7447,3.7665,3.8827,4.0034,4.0825,4.1651,4.2386,4.3014,4.3959,4.4841,4.5462,4.6399,4.7094,4.7239,4.7241,4.7546,4.8173,4.8352,4.852,4.8731,4.8845,4.8974,4.9196,4.9795,5.009,5.009,5.0823,5.0879,5.0287,5.0351,5.0144,4.9686,4.9514,4.9355,4.9254,4.9249,4.9343,4.9459,4.9491,4.9544,4.9551,4.8963,4.8643,4.8425,4.734,4.6301,4.5384,0.0,0.0,0.0,0.0,0.0,0.0,0.0,0.0,0.0,0.0,0.0,1.4768,1.6227,1.7657,1.8797,1.9558,2.0307,2.1348,2.2832,2.3619,2.4671,2.6161,2.6941,2.7689,2.8409,2.9118,2.9827,3.0522,3.1283,3.199,3.2707,3.2718,3.2785,3.2906,3.3038,3.2744,3.2153,3.2242,3.153,3.0283,3.0258,2.991,2.9377,2.8664,2.8438,2.8516,2.8724,2.8315,2.7723,2.7874,2.7953,2.7996,2.7996,2.8045,2.8327,2.9084,2.9976,3.07,3.0736,3.1355,3.2146,3.2857,3.3648,3.4447,3.5274,3.6065,3.6649,3.6685,3.7332,3.8132,3.8888,3.967,4.0461,4.1252,4.2044,4.2622,4.2775,4.4193,4.5208,4.5309,4.6721,4.7741,4.7855,4.7931,4.7965,4.8012,4.8138,4.8563,4.9322,4.9515,4.9941,5.0702,5.0819,5.0868,5.0868,5.1022,5.108,5.108,5.1138,5.1148,5.112,5.0532,4.9838,4.911,4.9173,4.9254,4.9297,4.9297,4.9437,4.9589,4.9551,4.9099,4.8416,4.8493,4.7586,4.6156,0.0,0.0,0.0,0.0,0.0,0.0,0.0,0.0,0.0,0.0,0.0,0.0,0.0,0.0,0.0,0.0,1.9531,2.0605,2.207,2.2865,2.3918,2.54,2.617,2.6908,2.7647,2.8366,2.8863,2.9095,2.936,2.9814,3.051,3.051,3.0531,3.0582,3.0747,3.049,2.9854,3.0017,2.9841,2.9394,2.9467,2.909,2.8519,2.8356,2.8069,2.7717,0.0,2.7786,2.7654,2.7677,2.778,2.7939,2.7939,2.8315,2.8954,2.9763,3.0589,3.1255,3.1309,3.2287,3.3322,3.3672,3.4417,3.5255,3.6044,3.6482,3.6848,3.7387,3.771,3.7971,3.825,3.9328,4.0299,4.055,4.1737,4.2619,4.2658,4.4036,4.5122,4.5234,4.6607,4.7625,4.7731,4.7892,4.7947,4.7992,4.8543,4.8991,4.9247,4.9907,5.0407,5.0664,5.1279,5.1624,5.1624,5.224,5.23,5.1738,5.1387,5.1213,5.1213,5.1101,5.0633,4.9912,4.9909,4.9675,4.9289,4.9289,4.9398,4.9536,4.9536,4.9401,4.9129,4.8586,4.8163,4.7648,0.0,0.0,0.0,0.0,0.0,0.0,0.0,0.0,0.0,0.0,0.0,0.0,0.0,0.0,0.0,0.0,0.0,1.9829,2.1315,2.2103,2.3064,2.4241,2.5002,2.5773,2.651,2.724,2.7737,2.8011,2.8276,2.8608,2.9052,2.9052,2.9052,2.9062,2.9268,2.9097,2.8723,2.8927,2.8831,2.8561,2.8632,2.8091,2.7248,2.7389,2.7033,0.0,2.6811,2.6995,2.7151,2.7452,2.7654,2.7801,2.7801,2.8579,2.9657,3.0494,3.128,3.1977,3.2317,3.3106,3.4037,3.4665,3.5258,3.5943,3.672,3.6978,3.7156,3.7694,3.7802,3.7873,3.8187,3.9254,4.0186,4.0472,4.1629,4.251,4.254,4.3914,4.4962,4.5122,4.6523,4.7515,4.7625,4.8021,4.826,4.8307,4.8821,4.9425,5.0007,5.0623,5.112,5.1454,5.203,5.2375,5.2417,5.2994,5.3009,5.2535,5.2198,5.1888,5.162,5.177,5.1406,5.0679,5.0344,5.0021,4.9641,4.9383,4.9335,4.9451,4.9474,4.9528,4.9506,4.8964,4.885,4.8716,0.0,0.0,0.0,0.0,0.0,0.0,0.0,0.0,0.0,0.0,0.0,0.0,0.0,0.0,0.0,0.0,0.0,0.0,2.0493,2.1282,2.2044,2.2799,2.352,2.4249,2.5035,2.5731,2.6435,2.7125,2.7812,2.8177,2.8243,2.8243,2.821,2.8229,2.8452,2.8513,2.8498,2.8691,2.8315,2.7621,2.7621,2.6826,2.5653,2.5774,2.5465,2.5006,2.5769,2.6127,2.6321,2.7195,2.7542,2.7602,2.7672,2.8844,3.0364,3.1291,3.2023,3.2766,3.358,3.3819,3.4208,3.5729,3.621,3.6541,3.7233,3.7494,3.7586,3.7586,3.7586,3.7836,3.8602,3.9351,4.0101,4.0895,4.1716,4.2292,4.2455,4.3826,4.4846,4.4962,4.647,4.7472,4.7482,4.8338,4.8909,4.8956,4.911,4.9864,5.1416,5.1599,5.2047,5.2959,5.298,5.3071,5.3203,5.3214,5.323,5.3308,5.342,5.3114,5.2472,5.2614,5.2224,5.1416,5.0599,5.0272,5.0285,4.9567,4.9292,4.9372,4.9451,4.9482,4.9498,4.9589,4.9589,4.9378,0.0,0.0,0.0,0.0,0.0,0.0,0.0,0.0,0.0,0.0,0.0,0.0,0.0,0.0,0.0,0.0,0.0,0.0,1.9099,1.9817,2.0794,2.2044,2.2269,2.2957,2.4249,2.4472,2.4646,2.4854,2.5019,2.5408,2.5938,2.5938,2.5965,2.6035,2.6106,2.5933,2.5513,2.561,2.5523,2.5346,2.5346,2.5156,2.4894,2.4971,2.4959,2.4937,2.5183,2.5634,2.6258,2.713,2.7488,2.7812,2.8938,2.9682,3.0402,3.1762,3.2298,3.2632,3.3503,3.412,3.4809,3.5852,3.658,3.7104,3.7272,3.7392,3.7457,3.7457,3.7531,3.7666,3.7871,3.854,3.9316,4.0065,4.0895,4.1619,4.2257,4.3685,4.4718,4.4835,4.6288,4.7345,4.7508,4.8273,4.905,4.9727,5.0376,5.0906,5.1341,5.1998,5.2439,5.2691,5.2893,5.3039,5.306,5.3135,5.3225,5.322,5.3297,5.3299,5.3225,5.337,5.3012,5.2271,5.2048,5.1685,5.1133,5.0348,5.0077,5.0143,4.9575,4.9398,4.949,4.9513,4.9567,4.9559,0.0,0.0,0.0,0.0,0.0,0.0,0.0,0.0,0.0,0.0,0.0,0.0,0.0,0.0,0.0,0.0,0.0,0.0,0.0,1.8843,1.9757,2.0881,2.0914,2.1613,2.3076,2.3109,2.3449,2.4089,2.4089,2.4314,2.4713,2.4713,2.4738,2.478,2.487,2.4733,2.4394,2.4469,2.4515,0.0,0.0,2.435,2.412,2.4186,2.4061,2.3934,2.4315,2.5163,2.6178,2.6673,2.7111,2.779,2.9411,2.9957,3.0321,3.1941,3.2406,3.266,3.3802,3.4454,3.5035,3.6209,3.6856,3.7212,3.7212,3.7279,3.7364,3.7401,3.7466,3.7531,3.7586,3.8255,3.903,3.9779,4.0574,4.1395,4.219,4.3643,4.4617,4.4682,4.6178,4.7256,4.7396,4.8507,4.9461,5.0053,5.0861,5.1441,5.1803,5.2295,5.2581,5.2602,5.2806,5.2948,5.3092,5.3146,5.3214,5.3214,5.3256,5.3369,5.3491,5.3627,5.3503,5.3125,5.2754,5.2373,5.1935,5.1161,5.0669,5.043,4.9985,4.9674,4.949,4.949,4.9521,4.9582,0.0,0.0,0.0,0.0,0.0,0.0,0.0,0.0,0.0,0.0,1.3576,0.0,0.0,0.0,0.0,0.0,0.0,0.0,0.0,0.0,1.8805,1.9616,1.9643,2.0284,2.1695,2.1728,2.2371,2.375,2.375,2.3816,2.3925,2.3925,2.3925,2.3933,2.4052,2.4065,2.3972,2.4037,2.4,2.3898,2.3906,2.3578,2.3058,0.0,2.2863,2.2588,2.3481,2.4646,2.5826,2.6032,2.6673,2.77,2.9371,2.9889,3.0229,3.1924,3.2406,3.2722,3.4161,3.4557,3.4873,3.6322,3.6732,3.6789,3.6789,3.6866,3.6996,3.7054,3.7082,3.7163,3.7389,3.8005,3.8745,3.9637,4.0422,4.1217,4.2047,4.3561,4.4596,4.4596,4.6123,4.7212,4.7298,4.887,4.9931,5.0101,5.0934,5.1767,5.2444,5.248,5.2549,5.2613,5.275,5.2941,5.3214,5.3214,5.3214,5.3214,5.3272,5.3359,5.3491,5.3608,5.3716,5.3747,5.3051,5.2754,5.2679,5.1944,5.1297,5.0737,5.0655,5.022,4.9678,4.9678,4.9602,4.9513,0.0,0.0,0.0,0.0,0.0,0.0,0.0,0.0,0.0,0.0,1.3702,1.3592,0.0,0.0,0.0,0.0,0.0,0.0,0.0,0.0,0.0,1.8826,1.8887,1.9288,2.015,2.0177,2.0625,2.1475,2.1475,2.1783,2.2367,2.2367,2.2429,2.2548,2.2562,2.2276,2.1745,2.1766,2.1387,2.0798,2.0823,2.0788,2.0705,2.0819,0.0,0.0,2.3275,2.3984,2.4405,2.568,2.6673,2.7692,2.9322,2.9849,3.0229,3.1924,3.2406,3.2581,3.3476,3.3705,3.3933,3.4873,3.5102,3.5111,3.5111,3.5185,3.5277,3.5376,3.5457,3.5714,3.6462,3.672,3.7291,3.8745,3.9637,4.0386,4.1181,4.3204,4.4596,4.4596,4.6056,4.7086,4.7287,4.878,4.9818,5.009,5.1477,5.2335,5.248,5.248,5.2583,5.2761,5.2783,5.2941,5.3214,5.3214,5.3214,5.3214,5.3198,5.3324,5.3491,5.3501,5.361,5.3784,5.3636,5.3599,5.3524,5.2726,5.2427,5.241,5.1671,5.1041,5.0474,5.0474,5.0061,4.9513,0.0,0.0,0.0,0.0,0.0,0.0,0.0,1.1639,1.2161,1.3754,1.3831,1.3729,1.3659,1.36,1.3701,0.0,0.0,0.0,0.0,0.0,0.0,1.7738,1.8115,1.8672,1.9378,1.9372,1.973,2.0444,0.0,2.0612,2.0955,2.0955,2.0975,2.1076,2.1076,2.088,2.0626,2.0626,2.0423,2.0102,2.0139,2.017,2.0213,2.0268,0.0,0.0,2.2392,2.3164,2.3998,2.5194,2.6095,2.7041,2.8706,2.9529,3.0109,3.1389,3.2055,3.2546,3.3318,3.3494,3.3705,3.4486,3.4697,3.4697,3.4697,3.4725,3.4807,3.496,3.5022,3.5199,3.5695,3.6114,3.6792,3.7969,3.9147,4.0172,4.1002,4.3133,4.4596,4.4596,4.6034,4.7243,4.7862,4.901,4.9976,5.0658,5.1839,5.248,5.248,5.248,5.2595,5.2783,5.2794,5.2941,5.3214,5.3214,5.3214,5.3214,5.3214,5.3303,5.3491,5.3491,5.36,5.3784,5.3784,5.3784,5.3784,5.3385,5.3088,5.2849,5.2438,5.1877,5.1255,5.085,5.0474,5.0084,0.0,0.0,0.0,0.0,0.0,0.0,0.0,1.1712,1.2257,1.3803,1.3948,1.3872,1.377,1.3679,1.3624,0.0,0.0,0.0,0.0,0.0,0.0,0.0,0.0,0.0,1.8767,0.0,0.0,1.9809,1.9809,0.0,0.0,0.0,0.0,0.0,2.0039,1.9975,1.9901,1.9901,1.9811,0.0,0.0,1.9765,1.9853,0.0,0.0,0.0,0.0,2.2363,2.3508,2.4538,2.5371,2.6246,2.7747,2.8866,2.9814,3.0898,3.1642,3.23,3.3046,3.3248,3.3415,3.4056,3.4205,3.4205,3.4205,3.4223,3.4287,3.4456,3.4508,3.4605,3.4902,3.5605,3.6399,3.7193,3.879,4.0136,4.0743,4.2883,4.4417,4.4596,4.5878,4.723,4.8376,4.9248,5.019,5.1212,5.2057,5.248,5.248,5.248,5.2595,5.2783,5.2794,5.2941,5.3214,5.3214,5.3214,5.3214,5.3214,5.3303,5.3491,5.3491,5.36,5.3784,5.3784,5.3784,5.3794,5.3813,5.3553,5.3157,5.3175,5.2801,5.2118,5.1488,5.1112,5.0873,0.0,0.0,0.0,0.0,0.0,0.0,0.0,1.1802,1.2341,1.3907,1.4044,1.4005,1.3973,1.3792,1.3694,0.0,0.0,0.0,0.0,0.0,0.0,0.0,0.0,0.0,0.0,0.0,0.0,1.9177,1.9177,0.0,0.0,0.0,0.0,0.0,0.0,1.9808,1.9189,1.9189,0.0,0.0,0.0,0.0,0.0,0.0,0.0,0.0,0.0,2.1782,2.2141,2.3669,2.467,2.5456,2.64,2.7722,2.9187,3.0739,3.1255,3.1466,3.2265,3.2511,3.2511,3.2581,3.2616,3.2616,3.2616,3.265,3.2736,3.2793,3.2928,3.3268,3.4055,3.482,3.557,3.6363,3.8424,3.9922,3.9993,4.2098,4.3847,4.4524,4.5479,4.671,4.834,4.9339,5.0292,5.1249,5.2057,5.248,5.248,5.248,5.2595,5.2783,5.2794,5.2941,5.3214,5.3214,5.3214,5.3214,5.3214,5.3303,5.3491,5.3491,5.36,5.3784,5.3784,5.3784,5.3794,5.3935,5.3963,5.3997,5.4114,5.3723,5.3074,5.2998,5.2464,5.1684,0.0,0.0,0.0,0.0,0.0,0.0,1.1618,1.1854,1.2411,1.3955,1.4084,1.4043,1.4054,1.3938,1.3855,1.382,0.0,0.0,0.0,0.0,0.0,0.0,0.0,0.0,0.0,0.0,1.8236,1.8443,1.8443,0.0,0.0,0.0,0.0,0.0,0.0,1.8728,1.8504,1.8504,0.0,0.0,0.0,0.0,0.0,0.0,0.0,0.0,0.0,0.0,2.1931,2.3073,2.3942,2.4842,2.6163,2.6983,2.7769,2.9343,3.0483,3.1255,3.1598,3.2019,3.2406,3.2406,3.2413,3.2456,3.2456,3.2524,3.2581,3.2715,3.2765,3.292,3.3322,3.4365,3.5284,3.5641,3.8067,3.9886,3.9886,4.2348,4.4275,4.456,4.5848,4.7378,4.907,4.9638,5.0484,5.1937,5.231,5.248,5.248,5.2561,5.2638,5.2794,5.2872,5.3017,5.3214,5.3214,5.3214,5.3214,5.3241,5.3328,5.3491,5.3588,5.3686,5.3784,5.3784,5.3784,5.3794,5.3944,5.4046,5.4109,5.4235,5.4144,5.3854,5.3366,5.299,5.2602,0.0,0.0,0.0,0.0,0.0,1.0061,1.1377,1.1771,1.2409,1.3701,1.4023,1.4163,1.413,1.4103,1.4012,1.3984,1.389,0.0,0.0,0.0,0.0,0.0,0.0,0.0,0.0,0.0,1.8182,1.8102,1.8102,1.8102,0.0,0.0,1.8102,1.8102,0.0,0.0,0.0,0.0,0.0,0.0,0.0,0.0,0.0,0.0,0.0,0.0,0.0,0.0,0.0,0.0,0.0,2.4103,2.5476,2.6219,2.6886,2.8438,2.9667,3.058,3.0791,3.1282,3.1712,3.1737,3.1787,3.181,3.1827,3.1901,3.2061,3.2382,3.2449,3.2561,3.2838,3.4151,3.5213,3.5213,3.7853,3.9886,3.9886,4.245,4.44,4.4639,4.6007,4.7682,4.957,5.0308,5.1169,5.2408,5.248,5.2503,5.2538,5.2615,5.2717,5.2794,5.2926,5.3071,5.3214,5.3434,5.3544,5.3555,5.3624,5.3738,5.385,5.3728,5.3725,5.3784,5.3784,5.3804,5.3879,5.3991,5.4092,5.4191,5.4279,5.4349,5.4334,5.3779,5.357,5.3499,0.0,0.0,0.0,0.0,0.0,0.0,1.0713,1.148,1.2269,1.3005,1.3793,1.4274,1.4219,1.4213,1.4187,1.4091,1.4044,0.0,0.0,0.0,0.0,0.0,0.0,0.0,0.0,0.0,1.8318,1.8312,1.8312,1.8312,1.8312,1.8312,1.8312,1.8312,0.0,0.0,0.0,0.0,0.0,0.0,0.0,0.0,1.8318,0.0,0.0,0.0,0.0,0.0,0.0,0.0,0.0,0.0,0.0,2.5355,2.6886,2.8438,2.893,2.9105,2.9905,3.0116,3.014,3.02,3.0215,3.0231,3.0301,3.0378,3.066,3.1458,3.167,3.1946,3.2739,3.4151,3.5213,3.5213,3.7853,3.9886,3.9886,4.2031,4.3893,4.4696,4.5687,4.724,4.9645,5.1445,5.248,5.248,5.248,5.2538,5.259,5.2739,5.2794,5.2794,5.2926,5.3071,5.3214,5.3995,5.4399,5.4399,5.448,5.4549,5.4689,5.3987,5.3725,5.3784,5.3784,5.3888,5.3991,5.4064,5.4191,5.4308,5.4366,5.4409,5.4409,5.4409,5.443,5.4371,0.0,0.0,0.0,0.0,0.0,0.0,0.0,1.1535,1.2323,1.3064,1.3865,1.4359,1.4349,1.4287,1.4258,1.4223,1.4123,0.0,0.0,0.0,0.0,0.0,0.0,0.0,0.0,0.0,1.8403,1.8358,1.8328,1.8318,1.8318,1.8318,1.8318,1.8318,1.8318,1.8318,0.0,0.0,0.0,0.0,0.0,1.8358,1.8363,0.0,0.0,0.0,0.0,0.0,0.0,0.0,0.0,0.0,0.0,0.0,0.0,2.6929,2.8097,2.8973,2.9265,2.9738,3.0192,3.0262,3.0289,3.0343,3.0366,3.0833,3.1365,3.1622,3.2109,3.2596,3.2846,3.4151,3.5213,3.5213,3.7853,3.9942,4.0028,4.2573,4.4559,4.4884,4.7191,4.9089,4.9937,5.1527,5.248,5.248,5.248,5.2538,5.259,5.2739,5.2839,5.2926,5.3071,5.3146,5.3214,5.3995,5.4442,5.4528,5.5138,5.5512,5.5636,5.4922,5.461,5.4602,5.4044,5.3888,5.4,5.4064,5.4191,5.4317,5.4375,5.4409,5.4409,5.4409,5.443,5.4484,0.0,0.0,0.0,0.0,0.0,0.0,0.0,1.1406,1.2309,1.2733,1.3749,1.4429,1.439,1.4359,1.4337,1.4322,1.4275,0.0,0.0,0.0,0.0,0.0,0.0,0.0,1.6227,1.776,1.8506,1.8467,1.8443,1.8393,1.8393,1.8393,1.8393,1.8393,1.8393,1.8418,0.0,0.0,0.0,0.0,1.8298,1.8268,1.8023,0.0,0.0,0.0,0.0,0.0,0.0,0.0,0.0,0.0,0.0,0.0,0.0,0.0,2.6943,2.8176,2.8545,2.8991,2.9402,2.9462,2.9487,2.9538,2.956,3.0217,3.0903,3.1189,3.1875,3.2624,3.3231,3.4398,3.5371,3.5666,3.815,4.0021,4.0133,4.2909,4.5342,4.6358,4.8536,5.0132,5.0535,5.1731,5.248,5.248,5.2526,5.257,5.2683,5.2806,5.2926,5.3082,5.3146,5.3214,5.3214,5.4289,5.4905,5.5059,5.5929,5.6414,5.6539,5.5825,5.5493,5.5466,5.4687,5.4391,0.0,5.4258,5.4235,5.4323,5.4383,5.4409,5.4409,5.4409,5.4455,5.4571,0.0,0.0,0.0,0.0,0.0,0.0,0.0,1.1128,1.2184,1.2117,1.3524,1.4488,1.4425,1.4398,1.442,1.442,0.0,0.0,0.0,0.0,0.0,0.0,0.0,0.0,1.6416,1.7852,1.8622,1.8622,1.8612,1.8612,1.8612,1.8612,1.8612,1.8612,1.8612,1.8584,0.0,0.0,0.0,0.0,1.8196,1.8051,0.0,0.0,0.0,0.0,0.0,0.0,0.0,0.0,0.0,0.0,0.0,0.0,0.0,0.0,0.0,0.0,0.0,2.7961,2.8011,2.8074,2.8123,2.8137,2.8271,2.8898,0.0,3.0432,3.1268,3.2347,3.3838,3.4877,3.5759,3.6556,3.8663,4.0227,4.038,4.3222,4.6174,4.8619,4.9619,5.0427,5.1224,5.2021,5.2491,5.2491,5.257,5.2647,5.2806,5.2926,5.3071,5.3214,5.3214,5.3214,5.3214,5.4814,5.5698,5.5817,5.6762,5.7275,5.7391,5.6716,5.6395,5.632,5.561,5.5305,5.5258,5.4638,5.4398,5.4409,5.4409,5.4409,5.4409,5.4417,5.4535,5.4689,0.0,0.0,0.0,0.0,0.0,0.0,0.0,0.0,0.0,0.0,1.3579,1.457,1.4564,1.4511,1.4473,0.0,0.0,0.0,0.0,0.0,0.0,0.0,0.0,0.0,1.743,1.8311,1.876,1.876,1.865,1.8612,1.8612,1.8612,1.8612,1.8612,1.8612,1.8603,0.0,0.0,0.0,0.0,1.8508,1.8473,0.0,0.0,0.0,0.0,1.8579,1.8579,0.0,0.0,0.0,0.0,0.0,0.0,0.0,0.0,2.526,2.6197,2.7032,0.0,2.8081,2.8172,2.8186,2.8335,0.0,2.9683,3.0468,3.126,3.2572,3.3737,3.4095,3.5407,3.6642,3.7459,3.9076,4.0686,4.1996,4.4485,4.6871,4.8692,4.9619,5.0427,5.1224,5.2021,5.2526,5.2581,5.2579,5.2691,5.2926,5.297,5.3071,5.3214,5.3214,5.3214,5.3214,5.49,5.5781,5.5897,5.7434,5.8243,5.8359,5.7563,5.7202,5.7175,5.6429,5.5827,5.5295,5.5246,5.4894,5.4409,5.4409,5.4409,5.4417,5.4455,5.4584,5.4697,0.0,0.0,0.0,0.0,0.0,0.0,0.0,0.0,0.0,0.0,0.0,1.4624,1.4614,1.457,0.0,0.0,0.0,0.0,0.0,0.0,0.0,0.0,0.0,1.7019,1.7783,1.8475,1.8834,1.8834,1.8784,1.8757,1.8757,1.8734,1.8725,1.872,1.8674,1.8655,0.0,0.0,0.0,1.8131,1.8475,0.0,0.0,0.0,0.0,0.0,1.8612,1.8612,0.0,1.9137,1.9527,2.0063,0.0,0.0,0.0,0.0,2.4889,2.5905,2.6329,2.7266,2.8129,2.82,2.8499,2.8869,2.934,3.032,3.1328,3.2204,3.339,3.4455,3.5217,3.6433,3.7572,3.8382,4.014,4.2161,4.4206,4.5956,4.7652,4.9257,5.0173,5.097,5.1767,5.2284,5.2559,5.259,5.2702,5.285,5.298,5.3071,5.3124,5.3214,5.3214,5.3214,5.3214,5.4932,5.5823,5.5939,5.7661,5.8582,5.8687,5.8242,5.8087,5.8101,5.7354,5.6603,5.5921,5.5646,5.5079,5.4409,5.4409,5.4434,5.4439,5.4489,5.4587,5.4736,0.0,0.0,0.0,0.0,0.0,0.0,0.0,0.0,0.0,0.0,0.0,0.0,0.0,0.0,0.0,0.0,0.0,0.0,0.0,0.0,0.0,0.0,1.6526,1.7257,1.8,1.8628,1.8944,1.8944,1.8891,1.8886,1.8886,1.8914,1.8896,1.8892,1.8775,1.8738,0.0,0.0,1.8283,1.7768,1.8385,0.0,0.0,0.0,0.0,0.0,0.0,0.0,0.0,1.8697,1.9168,1.988,2.082,0.0,0.0,0.0,0.0,0.0,2.5825,2.7069,2.8426,2.8412,2.8919,2.9512,2.9819,3.098,3.2258,3.3196,3.4067,3.5146,3.6621,3.7607,3.8542,3.9589,4.1831,4.4196,4.6395,4.7363,4.8496,5.0101,5.0898,5.1622,5.2442,5.257,5.2613,5.2647,5.2872,5.2991,5.3049,5.3135,5.3214,5.3214,5.3214,5.3177,5.3209,5.4807,5.5744,5.596,5.7572,5.8482,5.8687,5.8687,5.8787,5.8862,5.8263,5.7538,5.6817,5.6083,5.5301,5.4559,5.4446,5.443,5.4513,5.4522,5.4627,5.4791,0.0,0.0,0.0,0.0,0.0,0.0,0.0,0.0,0.0,0.0,0.0,0.0,0.0,0.0,0.0,0.0,0.0,0.0,0.0,0.0,0.0,1.7624,1.7778,1.8171,1.8956,1.9035,1.9074,1.9074,1.8961,1.8886,1.8886,1.8913,1.8909,1.8909,1.8896,1.8851,1.8851,1.8842,1.8806,1.8703,1.8806,0.0,0.0,0.0,0.0,0.0,0.0,0.0,0.0,1.8783,1.8859,1.9216,2.0657,0.0,0.0,0.0,0.0,0.0,2.5972,2.7655,2.9379,2.931,2.9396,2.9854,3.1275,3.234,3.3196,3.3979,3.5339,3.6694,3.7632,3.8568,3.9867,4.2004,4.4367,4.6323,4.7363,4.8196,4.9318,5.0934,5.1224,5.162,5.2484,5.259,5.268,5.2915,5.297,5.306,5.3146,5.3203,5.3214,5.3214,5.3214,5.322,5.3287,5.4332,5.5258,5.6084,5.714,5.8009,5.8687,5.8687,5.8787,5.8899,5.8833,5.8407,5.7679,5.6992,5.6202,5.5339,5.4672,5.443,5.4513,5.4641,5.472,5.4799,0.0,0.0,0.0,0.0,0.0,0.0,0.0,0.0,0.0,0.0,0.0,0.0,0.0,0.0,0.0,0.0,0.0,0.0,0.0,0.0,1.7443,1.8116,1.857,1.8947,1.9174,1.9174,1.938,1.9788,1.9746,1.9929,2.0291,1.9804,1.9588,1.9534,1.9102,1.8886,1.8886,1.8886,1.8886,1.8886,0.0,0.0,0.0,0.0,0.0,0.0,0.0,0.0,0.0,0.0,1.8847,1.9134,2.0715,0.0,0.0,0.0,0.0,0.0,2.6524,2.8089,2.9721,3.0146,3.0556,3.1168,3.2407,3.3308,3.4253,3.5483,3.6724,3.7798,3.8593,4.0148,4.2058,4.444,4.6142,4.7435,4.8232,4.9438,5.0452,5.1224,5.1715,5.2171,5.2554,5.2714,5.2872,5.298,5.3071,5.3124,5.3214,5.3214,5.3214,5.3214,5.3241,5.3287,5.341,5.3917,5.4822,5.6105,5.705,5.7907,5.8698,5.8787,5.8842,5.8952,5.9071,5.8681,5.7978,5.7686,5.6765,5.5555,5.5189,5.4869,5.4603,5.4767,5.4829,5.4867,0.0,0.0,0.0,0.0,0.0,0.0,0.0,0.0,0.0,0.0,0.0,0.0,0.0,0.0,0.0,0.0,0.0,0.0,0.0,1.7526,1.8384,1.8521,1.915,1.9413,1.9259,1.9429,1.9827,2.0415,2.0581,2.0951,2.1525,2.083,2.0386,2.0142,1.952,1.9155,1.8934,1.8961,1.8953,1.8953,0.0,0.0,0.0,0.0,0.0,0.0,0.0,0.0,0.0,0.0,0.0,0.0,0.0,0.0,0.0,2.4274,2.5445,2.6225,2.7234,2.8688,3.0179,3.1231,3.1888,3.2544,3.342,3.4504,3.5748,3.7015,3.8074,3.9052,4.003,4.2167,4.4403,4.6468,4.7471,4.834,4.9318,5.0546,5.1402,5.1595,5.2204,5.2719,5.296,5.3175,5.3357,5.3573,5.3685,5.3691,5.3471,5.3471,5.3398,5.3214,5.3256,5.3369,5.3491,5.3617,5.4501,5.6172,5.6874,5.7722,5.8698,5.8838,5.896,5.9004,5.9139,5.8897,5.838,5.8192,5.7329,5.6165,5.5807,5.5258,5.4728,5.4867,5.492,5.492,0.0,0.0,0.0,0.0,0.0,0.0,0.0,0.0,0.0,0.0,0.0,0.0,0.0,0.0,0.0,0.0,0.0,0.0,0.0,1.7926,1.8713,1.9453,1.9503,1.9446,1.9386,2.0079,2.0413,2.0506,2.1178,2.1548,2.158,2.1539,2.1102,2.0377,2.0334,1.984,1.9073,1.9104,1.9083,1.9083,1.9083,0.0,0.0,0.0,0.0,0.0,0.0,0.0,0.0,0.0,0.0,0.0,0.0,0.0,2.2756,2.4504,2.5521,2.6423,2.8068,2.9679,3.1285,3.2843,3.3197,3.342,3.4312,3.6282,3.7957,3.8074,3.9297,4.0809,4.2348,4.4621,4.653,4.7471,4.8304,4.9354,5.0898,5.135,5.1743,5.2434,5.268,5.3119,5.3997,5.4093,5.4488,5.5343,5.5438,5.5108,5.4363,5.4326,5.3959,5.3214,5.3256,5.3369,5.3491,5.3617,5.4578,5.631,5.6347,5.7212,5.8698,5.8838,5.896,5.9004,5.9139,5.9206,5.9178,5.8417,5.8042,5.7788,5.6336,5.5387,5.4791,5.4883,5.492,5.492,0.0,0.0,0.0,0.0,0.0,0.0,0.0,0.0,0.0,0.0,0.0,0.0,0.0,0.0,0.0,0.0,0.0,0.0,0.0,1.8752,1.9327,1.9647,1.9613,1.9787,2.0248,2.0483,2.1099,2.2059,2.2777,2.3132,2.3132,2.2597,2.2182,2.1858,2.0855,2.0227,1.9895,1.936,1.9166,1.9166,1.9166,1.9105,0.0,0.0,0.0,0.0,0.0,0.0,0.0,0.0,1.9546,2.0377,2.1172,2.1962,2.3051,2.5133,2.5934,2.6627,2.8787,3.0539,3.2024,3.3103,3.4909,3.6491,3.6777,3.753,3.8472,3.9441,4.089,4.2647,4.4854,4.6434,4.7653,4.8515,4.9725,5.078,5.1399,5.1941,5.2593,5.3369,5.3568,5.4023,5.4872,5.5023,5.5236,5.5585,5.5585,5.5475,5.5144,5.4656,5.4285,5.4018,5.3617,5.3508,5.3617,5.4197,5.5119,5.632,5.632,5.7138,5.8698,5.8882,5.8992,5.9004,5.9206,5.93,5.929,5.899,5.853,5.7985,5.7015,5.6161,5.5563,5.5686,5.5375,5.492,0.0,0.0,0.0,0.0,0.0,0.0,0.0,0.0,0.0,0.0,0.0,0.0,0.0,0.0,0.0,0.0,0.0,0.0,1.8532,1.9245,1.9709,1.9709,1.9894,2.0371,2.1183,2.1405,2.2017,2.3012,2.3782,2.4139,2.4124,2.3509,2.3124,2.2813,2.1707,2.0899,2.0383,1.981,1.9429,1.9211,1.9211,1.9158,0.0,0.0,0.0,0.0,0.0,0.0,0.0,0.0,2.0045,2.0835,2.1674,2.265,2.3842,2.5735,2.6606,2.7483,2.9661,3.1404,3.2892,3.3945,3.6287,3.8538,3.9235,3.9581,4.009,4.1134,4.3022,4.5048,4.6779,4.7963,4.8977,4.9805,5.0873,5.1675,5.193,5.2718,5.3434,5.3992,5.4396,5.4975,5.5745,5.5933,5.6099,5.6356,5.6356,5.6246,5.5989,5.5464,5.5078,5.4901,5.4232,5.4085,5.4454,5.4813,5.5567,5.6692,5.6692,5.7408,5.8787,5.8942,5.9014,5.9053,5.9215,5.929,5.929,5.929,5.8867,5.815,5.7712,5.7111,5.6434,5.6535,5.6209,5.5678,0.0,0.0,0.0,0.0,0.0,0.0,0.0,0.0,0.0,0.0,0.0,0.0,0.0,0.0,0.0,0.0,0.0,0.0,1.8609,1.93,1.971,1.971,2.0454,2.1271,2.2084,2.2919,2.3236,2.3101,2.3896,2.4271,2.4183,2.4183,2.3791,2.3006,2.2942,2.2012,2.051,2.0456,1.9952,1.9211,1.9211,1.9211,1.9211,0.0,0.0,0.0,0.0,0.0,0.0,0.0,2.0937,2.1735,2.2551,2.3891,2.5376,2.6153,2.7545,2.915,3.0779,3.2383,3.3988,3.5637,3.7242,3.9037,4.1473,4.2612,4.3205,4.3242,4.5786,4.8002,4.8002,4.9315,5.0665,5.1467,5.1613,5.1894,5.2685,5.3624,5.4213,5.4213,5.5067,5.5941,5.6737,5.6811,5.7152,5.7923,5.7997,5.7666,5.6847,5.6811,5.6511,5.5833,5.5117,5.5157,5.6105,5.5379,5.5865,5.7509,5.7509,5.8006,5.8889,5.8982,5.909,5.9196,5.929,5.929,5.929,5.929,5.8949,5.8408,5.8472,5.807,5.7422,5.7422,5.7422,5.7384,0.0,0.0,0.0,0.0,0.0,0.0,0.0,0.0,0.0,0.0,0.0,0.0,0.0,0.0,0.0,0.0,0.0,0.0,1.9504,1.9687,1.9772,1.9772,2.0541,2.1365,2.217,2.3497,2.4166,2.4019,2.4201,2.4284,2.4271,2.4271,2.4151,2.3884,2.3294,2.2765,2.2219,2.1646,2.0878,2.0104,2.0104,1.9799,1.9262,0.0,0.0,0.0,0.0,0.0,0.0,0.0,0.0,0.0,2.2734,2.3891,2.5376,2.6153,2.7545,2.9259,3.1442,3.3236,3.4987,3.714,3.8968,4.069,4.2554,4.3104,4.3825,4.6115,4.7345,4.835,4.96,5.0681,5.147,5.1836,5.2359,5.3008,5.3814,5.4177,5.4748,5.5885,5.6286,5.6748,5.7556,5.7629,5.774,5.796,5.7997,5.7886,5.7666,5.7195,5.689,5.6714,5.6055,5.5872,5.6243,5.6597,5.7026,5.7509,5.8056,5.8527,5.8889,5.8982,5.909,5.9196,5.929,5.929,5.9299,5.9401,5.935,5.9276,5.937,5.8978,5.8301,5.8301,5.7922,5.7384,0.0,0.0,0.0,0.0,0.0,0.0,0.0,0.0,0.0,0.0,1.7263,1.7712,0.0,0.0,0.0,0.0,0.0,0.0,0.0,1.9876,1.9962,2.0283,2.1075,2.2055,2.3184,2.4118,2.4543,2.4491,2.441,2.4366,2.4358,2.4358,2.4312,2.4294,2.3786,2.3375,2.3021,2.2537,2.1815,2.105,2.105,2.078,2.0323,0.0,0.0,0.0,0.0,0.0,0.0,0.0,0.0,0.0,2.3636,2.4724,2.5993,2.7096,2.8564,3.0295,3.2411,3.4167,3.5886,3.8,4.0016,4.21,4.4363,4.5068,4.5873,4.8168,4.9155,4.9907,5.0957,5.181,5.2381,5.2443,5.3151,5.3838,5.4326,5.495,5.5721,5.6664,5.7079,5.7483,5.796,5.7997,5.7997,5.7997,5.7997,5.7997,5.7997,5.7669,5.7534,5.7607,5.6958,5.6776,5.7239,5.7435,5.7658,5.7982,5.8465,5.877,5.8933,5.8965,5.9072,5.9244,5.9262,5.929,5.9299,5.9474,5.9563,5.9624,5.9791,5.9579,5.9173,5.9173,5.8832,5.8377,0.0,0.0,0.0,0.0,0.0,0.0,0.0,0.0,0.0,0.0,1.7776,1.811,0.0,0.0,0.0,0.0,0.0,0.0,0.0,1.998,2.0328,2.1079,2.1942,2.3114,2.466,2.4654,2.4596,2.4592,2.4547,2.4479,2.4421,2.4416,2.4394,2.4312,2.4312,2.391,2.3216,2.3216,2.2732,2.2025,2.2025,2.1951,2.1914,2.1914,0.0,0.0,0.0,0.0,0.0,0.0,0.0,0.0,2.4948,2.6009,2.7027,2.8563,3.0154,3.1776,3.3466,3.5156,3.6839,3.8521,4.0781,4.3424,4.6415,4.7856,4.8746,4.9564,5.0922,5.2024,5.2097,5.2711,5.3214,5.3287,5.3922,5.4436,5.4583,5.5868,5.6811,5.6884,5.7556,5.7997,5.7997,5.7997,5.7997,5.7997,5.7997,5.8008,5.802,5.8133,5.8294,5.8404,5.7772,5.7851,5.8687,5.7982,5.7982,5.8687,5.8698,5.8821,5.8994,5.8994,5.9111,5.929,5.929,5.9299,5.9318,5.9536,5.9616,5.9642,5.982,5.9893,5.9893,5.9893,5.9893,5.9893,0.0,0.0,0.0,0.0,0.0,0.0,0.0,0.0,0.0,0.0,0.0,0.0,0.0,0.0,0.0,0.0,0.0,0.0,0.0,2.0576,2.1012,2.1151,2.2499,2.3707,2.4776,2.47,2.4664,2.4674,2.4592,2.4559,2.4576,2.4505,2.4484,2.4471,2.4478,2.4327,2.4135,2.4135,2.3641,2.2842,2.2842,2.2469,2.1914,2.1914,2.1906,0.0,0.0,0.0,0.0,0.0,0.0,0.0,2.5377,2.6489,2.7896,2.8855,3.0289,3.2053,3.4353,3.6155,3.7933,4.012,4.2924,4.548,4.6782,4.8737,5.0325,5.0508,5.1326,5.2197,5.2821,5.3067,5.3398,5.4032,5.4289,5.484,5.6113,5.659,5.7031,5.7666,5.7886,5.7997,5.7997,5.7997,5.7997,5.7997,5.7997,5.8042,5.8133,5.8294,5.8378,5.8486,5.8445,5.8481,5.8687,5.8539,5.8539,5.8687,5.8818,5.8892,5.8994,5.8994,5.9111,5.929,5.929,5.9374,5.9447,5.9563,5.965,5.9765,5.9844,5.9893,5.9893,5.9893,5.9893,5.9902,0.0,0.0,0.0,0.0,0.0,0.0,0.0,0.0,0.0,0.0,0.0,0.0,0.0,0.0,0.0,0.0,0.0,0.0,0.0,0.0,2.1586,2.2354,2.3503,2.4338,2.4787,2.4768,2.4738,2.4741,2.4722,2.4645,2.4584,2.4564,2.4551,2.4551,2.453,2.4492,2.4441,2.4441,2.4201,2.3762,2.3762,2.3503,2.3132,2.3132,2.3111,2.3081,2.3081,0.0,0.0,0.0,0.0,0.0,0.0,0.0,2.8825,2.9996,3.1215,3.2724,3.5198,3.6786,3.8545,4.2123,4.4543,4.6359,4.7565,4.9442,5.0952,5.0952,5.1828,5.2711,5.3104,5.3214,5.3471,5.4289,5.473,5.539,5.6627,5.7152,5.7519,5.796,5.7997,5.7997,5.7997,5.7997,5.8031,5.8088,5.8088,5.8145,5.8294,5.8378,5.8465,5.8519,5.8635,5.8687,5.8687,5.8687,5.8687,5.8687,5.8838,5.898,5.911,5.912,5.9197,5.929,5.929,5.9383,5.9521,5.9572,5.9659,5.9791,5.9853,5.9893,5.9893,5.9893,5.9893,5.991,0.0,0.0,0.0,0.0,0.0,0.0,0.0,0.0,0.0,0.0,0.0,0.0,0.0,0.0,0.0,0.0,0.0,0.0,0.0,0.0,0.0,2.3845,2.4513,2.4827,2.4827,2.482,2.4798,2.481,2.481,2.4756,2.4617,2.4604,2.4634,2.4634,2.4626,2.4568,2.4534,2.4534,2.4513,2.4521,2.4521,2.4595,2.4707,2.4707,2.4788,2.4855,2.4855,2.4824,2.4852,2.5523,0.0,0.0,0.0,0.0,2.9739,3.1202,3.2311,3.3531,3.5897,3.7435,3.9461,4.4079,4.5742,4.6611,4.8245,4.9898,5.1117,5.1117,5.225,5.3209,5.3209,5.3225,5.3471,5.4289,5.495,5.5658,5.6492,5.7299,5.7776,5.7776,5.7923,5.8008,5.8031,5.8031,5.8088,5.8201,5.8212,5.8305,5.8415,5.8476,5.8492,5.8513,5.8646,5.8687,5.8687,5.8687,5.8698,5.8756,5.8889,5.9059,5.9215,5.9253,5.929,5.929,5.929,5.9392,5.9501,5.9581,5.9676,5.9816,5.9861,5.9893,5.9893,5.9893,5.9902,5.9926,0.0,0.0,0.0,0.0,0.0,0.0,0.0,0.0,0.0,0.0,2.0201,2.0477,0.0,0.0,0.0,0.0,0.0,0.0,2.2418,0.0,0.0,2.4791,2.4867,2.4884,2.4884,2.4838,2.4813,2.4805,2.4805,2.4783,2.4776,2.471,2.4678,2.4678,2.4642,2.4584,2.4576,2.4576,2.4576,2.4609,2.4609,2.5016,2.5646,2.5646,2.6098,2.6738,2.6738,2.6702,2.6651,2.6758,2.7213,0.0,0.0,0.0,3.0601,3.1524,3.2824,3.4414,3.6196,3.8783,4.18,4.5288,4.6154,4.6611,4.8245,4.9898,5.1117,5.1117,5.2274,5.3287,5.3287,5.3241,5.3471,5.4289,5.4473,5.484,5.5658,5.6455,5.6957,5.6957,5.7593,5.8042,5.8145,5.8156,5.8249,5.836,5.8371,5.8426,5.8497,5.8519,5.8561,5.8667,5.8687,5.8687,5.8687,5.8687,5.8777,5.8869,5.9089,5.9206,5.9272,5.929,5.929,5.929,5.929,5.9391,5.9589,5.9607,5.971,5.9877,5.9885,5.9893,5.9893,5.9893,5.9934,6.0013,0.0,0.0,0.0,0.0,0.0,0.0,0.0,0.0,0.0,0.0,0.0,2.1777,0.0,0.0,0.0,2.2566,2.2601,2.2819,2.3284,2.409,2.4667,2.4976,2.496,2.4943,2.4964,2.494,2.4881,2.486,2.486,2.5102,2.5514,2.5483,2.5445,2.5442,2.5868,2.603,2.6009,2.6009,2.5997,2.6017,2.6017,2.6199,2.6536,2.6536,2.6764,2.7105,2.7105,2.7087,2.7102,2.7587,2.7942,2.837,2.926,0.0,0.0,0.0,3.3738,3.5584,3.8153,4.0167,4.2225,4.5045,4.6059,4.6655,4.7841,4.936,5.0694,5.1176,5.2081,5.2917,5.3346,5.3406,5.3633,5.4433,5.4581,5.4838,5.5649,5.6054,5.6301,5.6301,5.6606,5.6849,5.6903,5.6903,5.6957,5.7112,5.7112,5.7164,5.7279,5.7687,5.7967,5.8019,5.8465,5.8687,5.8687,5.8687,5.8781,5.8952,5.9119,5.9234,5.929,5.929,5.929,5.929,5.9383,5.9483,5.9607,5.9659,5.9807,5.9893,5.9893,5.9893,5.9893,5.9893,5.9942,6.0029,0.0,0.0,0.0,0.0,0.0,0.0,0.0,0.0,0.0,0.0,0.0,0.0,0.0,0.0,0.0,0.0,2.3277,2.3526,2.4179,2.4764,2.5079,2.5047,2.5044,2.5031,2.4998,2.4998,2.4981,2.4947,2.4947,2.5338,2.6084,2.6314,2.6506,2.6672,2.7077,2.7198,2.7164,2.7164,2.7138,2.7136,2.7136,2.7249,2.7431,2.7431,2.7586,2.7777,2.7997,2.8068,2.8166,2.8984,2.9236,2.9451,3.0637,3.1603,0.0,0.0,0.0,3.6671,3.971,4.1078,4.2188,4.4495,4.5781,4.6731,4.7549,4.8973,5.0302,5.0933,5.1649,5.2389,5.3136,5.341,5.3702,5.4283,5.4394,5.4615,5.5206,5.5465,5.5602,5.5602,5.5787,5.5908,5.5939,5.595,5.5992,5.6142,5.6152,5.6193,5.6273,5.6878,5.7212,5.7212,5.7982,5.839,5.839,5.8638,5.8882,5.9033,5.9177,5.9262,5.929,5.929,5.9309,5.9374,5.9447,5.9528,5.9616,5.9748,5.9841,5.9893,5.9893,5.9893,5.9893,5.9918,5.9974,6.006,0.0,0.0,0.0,0.0,0.0,0.0,0.0,0.0,0.0,0.0,0.0,0.0,2.3839,2.3871,2.4189,2.4998,2.5053,2.5059,2.5053,2.5085,2.511,2.5079,2.5079,0.0,2.4993,2.499,2.5014,2.4981,2.4981,2.5374,2.6118,2.6957,2.7735,2.842,2.7657,2.7297,2.7303,2.7303,2.7232,2.7177,2.7177,2.7661,2.8327,2.8327,2.8862,2.9659,3.0438,3.0677,3.0755,3.1611,3.1847,3.1811,3.1923,3.2478,3.3145,0.0,0.0,0.0,3.9896,4.1196,4.2191,4.3901,4.5489,4.6821,4.7595,4.9025,5.019,5.0182,5.085,5.1704,5.2512,5.3101,5.3518,5.3565,5.3555,5.3602,5.3639,5.4283,5.4753,5.4753,5.5454,5.5939,5.6091,5.6101,5.6152,5.6263,5.631,5.6273,5.632,5.6357,5.6357,5.6357,5.7138,5.7573,5.7573,5.8502,5.9033,5.9177,5.9272,5.929,5.929,5.929,5.9383,5.9503,5.9512,5.9528,5.9616,5.9748,5.9841,5.9893,5.9893,5.9893,5.9902,5.9982,6.0022,6.0099,0.0,0.0,0.0,0.0,0.0,0.0,0.0,0.0,0.0,0.0,0.0,0.0,0.0,2.4791,2.4921,2.5195,2.5206,2.5185,2.5168,2.5168,2.515,2.511,2.511,2.5095,2.5063,2.5063,2.5047,2.5014,2.5014,2.5681,2.7009,2.7312,2.8172,2.9439,2.9078,2.8894,2.8881,2.8881,2.8872,2.8931,2.9462,2.9877,3.0169,3.0664,3.1031,3.1332,3.1589,3.1639,3.1667,3.2004,3.2069,3.2166,3.2729,3.3098,3.3623,3.5246,3.6673,3.8166,4.0149,4.1231,4.2055,4.3206,4.4685,4.6088,4.6901,4.7958,4.9081,5.0018,5.0493,5.0922,5.1686,5.2438,5.3085,5.3614,5.3678,5.3678,5.3678,5.3938,5.4113,5.4113,5.4373,5.4578,5.4617,5.4617,5.4637,5.4676,5.4713,5.4713,5.4713,5.5196,5.5466,5.5466,5.6283,5.7019,5.7563,5.8611,5.9148,5.9187,5.9281,5.929,5.929,5.929,5.9383,5.9512,5.9536,5.9616,5.974,5.9841,5.9861,5.9893,5.9893,5.9893,5.9902,5.999,6.0022,6.0106,0.0,0.0,0.0,0.0,0.0,0.0,0.0,0.0,0.0,2.4507,0.0,0.0,0.0,0.0,2.5981,2.5655,2.5635,2.5506,2.5229,2.5191,2.5177,2.515,2.5147,2.5132,2.5098,2.5095,2.5079,2.5047,2.5313,2.6177,2.7523,2.7816,2.8639,2.9917,2.9843,2.9842,2.9829,3.0136,3.024,3.0298,3.1175,3.1515,3.1548,3.2043,3.2218,3.2288,3.2819,3.2992,3.3105,3.3674,3.3867,3.3937,3.4539,3.4722,3.5098,3.6994,3.7899,3.857,3.9964,4.108,4.2013,4.253,4.4093,4.5657,4.621,4.6972,4.794,4.9255,4.9545,4.9826,5.0854,5.1507,5.2121,5.2875,5.2977,5.2977,5.2977,5.2977,5.3088,5.3376,5.3413,5.3487,5.3784,5.3784,5.3784,5.3784,5.3784,5.3784,5.3784,5.4304,5.4732,5.5069,5.5626,5.6513,5.7684,5.8399,5.8934,5.9234,5.93,5.929,5.929,5.929,5.9401,5.9519,5.9581,5.9697,5.9828,5.9853,5.9893,5.9893,5.9893,5.991,5.9942,6.0021,6.0106,6.022,0.0,0.0,0.0,0.0,0.0,0.0,0.0,0.0,2.5344,2.5382,0.0,0.0,0.0,0.0,0.0,2.6612,2.6527,2.6174,2.5347,2.5268,2.5229,2.5229,2.5191,2.5171,2.5088,2.5088,2.511,2.5082,2.5916,2.6754,2.7625,2.843,2.9213,3.0007,2.9921,2.9918,3.0002,3.0759,3.1111,3.1217,3.2015,3.2355,3.2392,3.2388,3.2425,3.2652,3.4308,3.4869,3.5138,3.6734,3.73,3.73,3.73,3.73,3.7478,3.8203,3.8406,3.862,0.0,0.0,0.0,4.2004,4.3795,4.5589,4.5589,4.6158,4.6919,4.7778,4.7957,4.845,4.9982,5.0281,5.0483,5.1155,5.1351,5.1379,5.1416,5.1416,5.1676,5.2457,5.2568,5.2865,5.3636,5.371,5.3747,5.3747,5.3747,5.3784,5.3784,5.3794,5.4213,5.5137,5.5183,5.6061,5.7847,5.7894,5.8362,5.929,5.929,5.929,5.929,5.929,5.94,5.9607,5.9607,5.9668,5.9799,5.9853,5.9893,5.9893,5.9893,5.9942,6.0021,6.0068,6.0182,6.0454,0.0,0.0,0.0,0.0,0.0,2.5272,2.6118,2.6233,2.6464,0.0,0.0,0.0,2.7546,2.7717,2.7695,2.7445,2.7402,2.7257,2.7021,2.6424,2.6064,2.6064,2.5494,2.5185,2.5174,2.5174,2.5153,2.5114,2.5958,2.6784,2.7625,2.8425,2.9262,3.0061,3.0046,3.0356,3.0924,3.1113,3.1509,3.2101,3.2976,3.3658,3.4226,3.4835,3.5426,3.6031,3.6443,3.6621,3.6696,3.7149,3.73,3.73,3.73,3.771,3.819,3.8399,3.8878,3.9395,3.9603,0.0,0.0,0.0,0.0,0.0,4.5563,4.5835,4.6218,4.6974,4.7146,4.7243,4.7636,4.774,4.7791,4.7967,4.995,5.1452,5.1425,5.1416,5.1491,5.1714,5.1714,5.1825,5.2048,5.2048,5.2308,5.2902,5.294,5.319,5.3784,5.3898,5.4103,5.4391,5.5061,5.5948,5.7033,5.7706,5.8465,5.929,5.929,5.929,5.929,5.9401,5.9501,5.9607,5.9714,5.9799,5.9853,5.9877,5.9893,5.9893,5.9893,5.9942,6.0021,6.0068,6.057,6.1224,0.0,0.0,0.0,2.5695,2.5846,2.6156,2.7005,2.7121,2.7313,0.0,0.0,0.0,2.889,2.8915,2.8747,2.8351,2.8316,2.813,2.7723,2.7204,2.6956,2.6937,2.6482,2.6256,2.6256,2.6256,2.6205,2.6177,2.7023,2.7697,2.8166,2.8959,2.9603,3.0095,3.0464,3.105,3.1859,3.2172,3.2555,3.3046,3.4263,3.5026,3.5514,3.6356,3.6957,3.7444,3.7758,3.7861,3.7937,3.8272,3.838,3.838,3.838,3.8715,3.9082,3.9059,3.9388,3.9754,3.9725,4.0933,4.2178,4.2134,0.0,0.0,4.5194,4.5272,4.5463,4.6209,4.636,4.6435,4.6765,4.6824,4.6817,4.6749,4.833,4.9645,4.9941,4.9961,5.023,5.0901,5.0975,5.1124,5.1459,5.1496,5.1682,5.2167,5.2167,5.2539,5.3395,5.3832,5.4092,5.4191,5.4693,5.5412,5.6235,5.7152,5.8004,5.8793,5.914,5.9309,5.9392,5.9447,5.9583,5.9705,5.9757,5.9841,5.9893,5.9893,5.9893,5.9893,5.9893,5.9966,6.0106,6.0494,6.1004,6.1649,0.0,0.0,2.5731,2.6579,2.6736,2.7044,2.7893,2.8047,2.8085,0.0,2.9008,2.9816,3.0577,3.0692,3.0376,2.958,2.9424,2.9016,2.8198,2.7958,2.7822,2.7822,2.7743,2.7705,2.7698,2.7698,2.7698,2.7698,2.8494,2.8914,2.8911,2.9723,3.009,3.0166,3.0975,3.1797,3.2669,3.3578,3.3983,3.413,3.5605,3.6325,3.659,3.7377,3.7756,3.7945,3.8784,3.9126,3.9234,3.9943,4.0165,4.0165,4.0165,4.0165,4.0154,4.011,4.0099,4.0082,4.0019,4.1139,4.2359,4.2347,4.3548,0.0,4.4712,4.4659,4.48,4.5516,4.5618,4.5831,4.6606,4.6719,4.6689,4.657,4.6555,4.6862,4.7748,4.7844,4.8405,4.9832,4.9982,5.0281,5.0982,5.1131,5.1243,5.1318,5.1505,5.1924,5.2755,5.3548,5.405,5.4167,5.4242,5.4735,5.5593,5.6474,5.73,5.8117,5.8915,5.9383,5.9512,5.9521,5.9618,5.9782,5.9799,5.9849,5.9893,5.9893,5.9893,5.9893,5.9902,6.0036,6.0319,6.1134,6.1614,6.2128,0.0,2.6349,2.6618,2.7508,2.7662,2.7931,2.8742,2.8857,2.9355,3.0775,3.166,3.2237,3.2391,3.2429,3.2349,3.2151,3.1517,3.1037,3.0836,2.9541,2.874,2.8737,2.8052,2.7695,2.7698,2.7698,2.7698,2.7698,2.8494,2.8914,2.8914,2.9792,3.0174,3.0213,3.1084,3.1897,3.2697,3.4268,3.5267,3.5822,3.6165,3.71,3.8386,3.9126,3.9868,4.055,4.1383,4.1692,4.1687,4.1876,4.1914,4.1914,4.1914,4.1914,4.1908,4.1903,4.1897,4.1897,4.1879,4.2599,4.3388,4.3327,4.4071,0.0,4.4718,4.4692,4.4723,4.4874,4.4898,4.4947,4.5037,4.5067,4.504,4.4963,4.4949,4.5431,4.6747,4.6948,4.706,4.7359,4.7442,4.7471,4.762,4.8293,4.8965,4.9629,5.087,5.1726,5.2019,5.2776,5.3276,5.3416,5.4045,5.4759,5.5593,5.6474,5.73,5.8117,5.8915,5.9383,5.9512,5.9554,5.9642,5.9791,5.9866,5.9877,5.9893,5.9893,5.9893,5.9902,5.9966,6.047,6.1164,6.1393,6.2436,6.374,2.7082,2.7236,2.7508,2.8354,2.8511,2.8931,3.0201,3.0393,3.0852,3.2122,3.266,3.2891,3.2891,3.2891,3.2891,3.2891,3.2494,3.2247,3.2269,3.1024,3.0311,3.0311,2.9465,2.8986,2.8947,2.8944,2.8937,2.8962,2.9341,2.9532,2.957,2.9994,3.0418,3.0835,3.171,3.2539,3.3397,3.5115,3.6285,3.7026,3.7414,3.8299,3.9549,4.0354,4.1174,4.1933,4.2351,4.2503,4.2503,4.2503,4.2503,4.2503,4.2503,4.2503,4.2503,4.2503,4.2503,4.2498,4.2464,4.3103,4.3737,4.3665,4.4259,0.0,0.0,4.4178,4.4039,4.358,4.3479,4.3441,4.3402,4.3396,4.3383,4.335,4.3344,4.3604,4.4327,4.5446,4.636,4.681,4.6847,4.6847,4.6847,4.7222,4.7821,4.8645,4.9843,5.0766,5.1219,5.2015,5.2678,5.3186,5.3591,5.4183,5.5001,5.5827,5.6653,5.7525,5.8368,5.9042,5.9545,5.9633,5.9765,5.9857,5.9869,5.9893,5.9893,5.9893,5.9893,5.9939,6.0437,6.0972,6.1515,6.2399,6.3367,6.4275,2.8008,2.8124,2.8431,2.9432,2.9585,3.0124,3.1698,3.1929,3.2272,3.3276,3.3545,3.3699,3.3853,3.3891,3.3814,3.366,3.3506,3.334,3.316,3.2318,3.1844,3.1846,3.1034,3.0516,3.0473,3.032,3.0226,3.0195,3.0195,3.0195,3.0188,3.038,3.0796,3.1442,3.247,3.3429,3.4354,3.6027,3.7211,3.8013,3.8933,3.9733,4.0446,4.1502,4.2297,4.29,4.3205,4.3433,4.3553,4.3553,4.3477,4.3319,4.3319,4.3205,4.3091,4.3091,4.3091,4.308,4.303,4.3508,4.4034,4.3976,4.4457,4.4717,0.0,0.0,0.0,4.252,4.2276,4.2234,4.2221,4.2221,4.2215,4.2203,4.2197,4.2184,4.214,4.3813,4.5275,4.596,4.6028,4.6028,4.6028,4.6328,4.6929,4.792,4.8776,4.9527,5.0174,5.1142,5.2043,5.2915,5.3111,5.3591,5.4409,5.5189,5.6023,5.6922,5.7791,5.8707,5.9642,5.9748,5.9841,5.9893,5.9893,5.9893,5.9893,5.9893,6.0015,6.0229,6.1031,6.1452,6.1819,6.3451,6.4215,6.4504,2.8934,2.8973,2.947,3.1121,3.1391,3.1698,3.2622,3.2776,3.3353,3.5,3.585,3.6542,3.7353,3.743,3.7123,3.635,3.5615,3.4888,3.4083,3.3234,3.2756,3.2759,3.1917,3.1444,3.1443,3.0669,3.0263,3.0185,3.0185,3.0213,3.0227,3.0987,3.1366,3.148,3.3127,3.4312,3.5186,3.6833,3.8056,3.8973,4.0568,4.1222,4.1439,4.2993,4.3662,4.3966,4.5451,4.6446,4.7023,4.7023,4.6561,4.5978,4.5978,4.5445,4.4804,4.4804,4.4804,4.4798,4.4792,4.4869,4.4939,4.4933,4.5009,4.484,4.399,0.0,4.3494,4.2596,0.0,4.2366,4.2307,0.0,0.0,4.2209,4.2197,4.2197,4.219,4.2404,4.2586,4.2581,4.2567,4.2567,4.2567,4.3919,4.5427,4.7004,4.7875,4.8408,4.8484,4.9986,5.1225,5.2006,5.2802,5.3591,5.4409,5.5189,5.6058,5.701,5.7818,5.8742,5.9765,5.9774,5.9841,5.9893,5.9893,5.9893,5.9893,5.9893,6.0389,6.1153,6.1308,6.188,6.268,6.3787,6.4649,6.5261,2.9967,3.0275,3.0852,3.1583,3.2083,3.2699,3.3548,3.4468,3.5542,3.6773,3.7234,3.7584,3.7969,3.8007,3.7853,3.7507,3.7157,3.6815,3.6434,3.5157,3.442,3.4406,3.3102,3.2359,3.2362,3.2013,3.1766,3.1694,3.1694,3.1726,3.1715,3.2074,3.248,3.2932,3.3677,3.4732,3.6027,3.7215,3.8514,3.9885,4.1571,4.2512,4.2983,4.3687,4.4554,4.5551,4.6767,4.7415,4.7726,4.7726,4.7497,4.7224,4.7224,4.6957,4.6576,4.6047,4.5895,4.5807,4.5279,4.5159,4.5148,4.5114,4.5103,4.4754,4.34,4.3091,4.2699,4.1336,0.0,0.0,0.0,0.0,0.0,0.0,4.0169,3.9968,3.9432,3.935,4.0033,4.1902,4.2089,4.205,4.2011,4.2643,4.3731,4.5427,4.584,4.6674,4.8108,4.8859,4.9836,5.1142,5.2006,5.2856,5.377,5.456,5.5655,5.7066,5.7465,5.843,5.9782,5.9841,5.9853,5.9893,5.9893,5.9893,5.9893,5.9893,6.0435,6.1359,6.194,6.2688,6.3581,6.4535,6.5108,6.5413,3.1165,3.1568,3.2083,3.2352,3.3083,3.3968,3.5087,3.6276,3.735,3.8238,3.8546,3.8777,3.9008,3.9238,3.9315,3.9046,3.8815,3.8584,3.8354,3.7004,3.6196,3.6196,3.4542,3.3609,3.3621,3.3121,3.2878,3.2847,3.2847,3.2805,3.2799,3.3039,3.3481,3.4048,3.4508,3.5478,3.6922,3.7984,3.9279,4.0764,4.2445,4.3744,4.4699,4.4699,4.5731,4.7302,4.7914,4.829,4.8481,4.8481,4.8329,4.8181,4.8181,4.7985,4.7679,4.703,4.6877,4.668,4.5802,4.5562,4.5475,4.5202,4.5153,4.4772,4.327,4.2775,4.2198,4.0764,4.0264,0.0,0.0,0.0,3.9736,3.8854,0.0,3.8405,3.7466,3.7342,3.8218,4.0593,4.1003,4.118,4.1349,4.1606,4.2326,4.3748,4.4319,4.5341,4.7152,4.7904,4.892,5.0386,5.1439,5.2403,5.3333,5.4132,5.5303,5.6781,5.7157,5.8067,5.9521,5.9785,5.9893,5.9893,5.9893,5.9893,5.9893,5.9918,6.0627,6.1741,6.2436,6.3428,6.4451,6.5161,6.5413,6.5413,3.2746,3.2804,3.3122,3.3971,3.4853,3.5962,3.7623,3.793,3.8277,3.9127,3.9938,4.0743,4.1581,4.2431,4.2585,4.1735,4.0896,4.0092,3.9319,3.843,3.793,3.793,3.6311,3.5423,3.5423,3.3772,3.291,3.2916,3.2916,3.2864,3.2837,3.3674,3.4054,3.4165,3.5733,3.6938,3.7887,3.9522,4.0688,4.1614,4.3286,4.4967,4.6418,4.6418,4.7494,4.9028,4.9066,4.9563,5.0206,5.0206,4.971,4.9066,4.9066,4.8487,4.7788,4.7755,4.7755,4.7564,4.6686,4.6457,4.6265,4.5507,4.5277,4.5032,4.4064,4.3257,4.2441,4.1551,4.0687,4.0106,4.0106,4.0106,3.9825,0.0,3.8781,0.0,0.0,3.7414,3.7406,3.744,3.8146,3.8933,3.9708,4.0549,4.1373,4.2197,4.3787,4.4736,4.4812,4.7075,4.8803,4.9701,5.1337,5.259,5.339,5.4266,5.5136,5.6039,5.6879,5.7797,5.8748,5.9552,5.9893,5.9893,5.9893,5.9893,5.9902,5.9982,6.1056,6.2665,6.2742,6.3856,6.5375,6.5375,6.5413,6.5413,3.5085,3.5338,3.5286,3.5039,3.5699,3.6863,3.8584,3.9319,3.9973,4.0854,4.17,4.2316,4.2624,4.2931,4.297,4.2701,4.2393,4.2128,4.1816,4.0473,3.9665,3.9665,3.8046,3.7157,3.7157,3.6003,3.542,3.5409,3.4871,3.4595,3.4585,3.4829,3.5276,3.5855,3.6351,3.7366,3.8742,3.9878,4.1158,4.2537,4.4753,4.6691,4.8225,4.8225,4.8607,4.918,4.971,5.0054,5.0283,5.0283,5.013,4.9901,4.9901,4.971,4.9366,4.8831,4.864,4.8487,4.7603,4.6953,4.6418,4.6156,4.5703,4.5086,4.4182,4.3757,4.3146,4.1756,4.1217,4.0859,4.0253,4.0166,3.9694,0.0,0.0,3.7485,0.0,3.5766,3.5732,3.573,3.69,3.7802,3.8103,3.8863,3.9688,4.0506,4.2102,4.3542,4.463,4.6561,4.7994,4.881,5.047,5.179,5.2643,5.3505,5.4647,5.6132,5.6966,5.7815,5.8718,5.9514,5.9893,5.9893,5.9893,5.9893,5.9939,6.0589,6.1597,6.2749,6.3352,6.4352,6.5413,6.5413,6.5413,6.5421,3.6767,3.6997,3.6822,3.6374,3.7283,3.8535,3.9946,4.0889,4.1627,4.2196,4.3278,4.3974,4.3974,4.4509,4.4893,4.4893,4.4316,4.3974,4.3974,4.2397,4.1435,4.1435,3.9819,3.8896,3.8896,3.7738,3.7157,3.7157,3.6657,3.6388,3.6388,3.6325,3.6621,3.7159,3.7429,3.8292,3.9673,4.0812,4.2051,4.3508,4.6038,4.7865,4.9171,4.9477,4.9564,4.9639,5.0474,5.0774,5.0818,5.1115,5.1044,5.0815,5.0843,5.0619,5.0275,4.9745,4.9586,4.9401,4.8515,4.7903,4.7329,4.6712,4.6176,4.5564,4.4697,4.4271,4.3726,4.2608,4.1915,4.1337,4.0769,4.0416,3.9672,0.0,0.0,3.7043,0.0,3.4982,3.4955,3.4936,3.6096,3.6921,3.6927,3.791,3.8779,3.9297,4.089,4.244,4.3794,4.5463,4.6899,4.7995,4.9651,5.1116,5.2309,5.3172,5.4292,5.5754,5.6853,5.7687,5.8263,5.9401,5.9893,5.9893,5.9893,5.991,6.0018,6.0941,6.1902,6.2826,6.3703,6.4604,6.5413,6.5413,6.5413,6.5429,3.7831,3.7908,3.801,3.8124,3.9524,4.0866,4.1639,4.2595,4.3235,4.3239,4.4667,4.5706,4.5706,4.7163,4.8082,4.8082,4.6629,4.5706,4.5706,4.4167,4.3201,4.3201,4.155,4.0631,4.0631,3.8973,3.8123,3.8123,3.8046,3.8007,3.8007,3.8007,3.8007,3.8084,3.8923,3.9753,4.0674,4.2287,4.353,4.46,4.7054,4.8555,4.936,5.0237,5.0511,5.048,5.132,5.1626,5.1785,5.2627,5.2414,5.1775,5.1837,5.1272,5.062,5.0582,5.0544,5.0352,4.9514,4.9245,4.8823,4.7202,4.6776,4.6536,4.5648,4.4829,4.4197,4.4027,4.2722,4.1619,4.1504,4.0883,3.9795,0.0,0.0,3.7026,3.5334,3.5092,3.5075,3.4992,3.5666,3.613,3.6126,3.7609,3.8595,3.8633,4.0176,4.1497,4.2369,4.4004,4.5672,4.7346,4.8976,5.0675,5.2374,5.3207,5.4048,5.492,5.6588,5.7384,5.746,5.9135,5.9893,5.9893,5.9902,5.9942,6.0097,6.1057,6.2018,6.2902,6.3863,6.4733,6.5413,6.5413,6.5413,6.5405,3.9503,4.0654,4.1504,4.1523,4.1942,4.2355,4.2625,4.3914,4.4897,4.4932,4.6432,4.7471,4.7471,4.7855,4.8082,4.8082,4.7702,4.7471,4.7471,4.5898,4.4975,4.4975,4.3359,4.2431,4.2431,4.0743,3.9858,3.9858,3.8623,3.8007,3.8007,3.8007,3.8354,3.9011,3.9808,4.0646,4.1565,4.3248,4.5148,4.7141,4.8378,4.9398,5.0275,5.1124,5.1453,5.142,5.165,5.2148,5.2679,5.2887,5.2855,5.2669,5.2686,5.2532,5.2226,5.1661,5.1469,5.1278,5.039,4.9705,4.9092,4.867,4.8128,4.7432,4.6574,4.6181,4.5678,4.4403,4.3757,4.3044,4.1791,4.1375,4.0649,3.8959,3.7587,3.6378,3.5335,3.5114,3.5088,3.5075,3.5256,3.5334,3.5259,3.6201,3.7073,3.768,3.9299,4.0885,4.2331,4.4004,4.5672,4.7346,4.8445,5.0113,5.2374,5.2601,5.3473,5.492,5.6588,5.7384,5.746,5.9135,5.9893,5.9893,5.9958,5.9998,6.0143,6.1774,6.2567,6.294,6.4505,6.5222,6.5413,6.5413,6.5413,6.5479,4.1299,4.2756,4.3902,4.3902,4.4521,4.4848,4.4201,4.55,4.6613,4.6697,4.7855,4.8663,4.8663,4.9009,4.924,4.924,4.8894,4.8663,4.8663,4.7432,4.6706,4.6706,4.509,4.4205,4.4205,4.2512,4.1627,4.1627,4.0315,3.9658,3.9658,3.9658,3.9931,4.0431,4.1243,4.2085,4.3008,4.4701,4.6683,4.8659,4.9096,5.0003,0.0,5.1649,5.2307,5.2965,5.2965,5.3234,5.3612,5.4023,5.3914,5.3612,5.364,5.3377,5.2993,5.2537,5.2153,5.1725,5.1265,5.0502,4.9777,4.9393,4.8966,4.8385,4.7511,4.7002,4.646,4.5477,4.4686,4.3862,4.2909,4.2068,4.0993,3.9283,3.7571,3.6294,3.5836,3.5395,3.5145,3.5127,3.5123,3.5097,3.4982,3.5752,3.6567,3.7339,3.8622,4.0247,4.2293,4.3278,4.4914,4.7308,4.7877,4.95,5.2374,5.2411,5.3245,5.492,5.6588,5.7384,5.746,5.9135,5.991,5.995,5.9998,6.0052,6.0281,6.2048,6.2833,6.3016,6.4749,6.5413,6.5421,6.542,6.5457,6.5509,4.3443,4.4628,4.5627,4.5627,4.6997,4.7679,4.6339,4.7395,4.8361,4.8414,4.9274,4.9894,4.9894,5.0553,5.1015,5.1015,5.0322,4.9856,4.974,4.8933,4.8394,4.8274,4.6783,4.5898,4.5782,4.4244,4.3355,4.3278,4.2389,4.1966,4.1966,4.1966,4.1966,4.2004,4.2854,4.3778,4.4739,4.6504,4.8086,4.9433,4.9625,5.0582,5.1923,5.2159,5.3159,5.4511,5.4626,5.4567,5.4605,5.5346,5.5165,5.4595,5.4649,5.4126,5.351,5.339,5.2813,5.2236,5.2115,5.1471,5.0668,4.9933,4.9663,4.9346,4.8457,4.7674,4.7045,4.6767,4.5568,4.4489,4.4259,4.2808,4.1077,3.945,3.7869,3.6795,3.6676,3.5912,3.5365,3.5365,3.5285,0.0,3.5106,3.5746,3.6497,3.7364,3.8112,3.9662,4.2267,4.2412,4.3923,4.7308,4.7384,4.9007,5.2374,5.2411,5.3283,5.511,5.6664,5.7467,5.7627,5.9189,5.9958,5.9991,6.0045,6.0122,6.0439,6.2139,6.2985,6.3381,6.484,6.5413,6.5421,6.5472,6.5509,6.5523,4.6762,4.7144,4.7373,4.7373,4.8749,4.9809,4.9565,4.9827,5.0077,5.0166,5.1557,5.2549,5.2549,5.2664,5.2779,5.2779,5.2626,5.2236,5.1505,5.0702,4.9938,4.9202,4.8202,4.7355,4.6697,4.5667,4.4821,4.4085,4.3278,4.2854,4.2854,4.2854,4.2854,4.2893,4.3739,4.497,4.6543,4.824,4.9125,4.951,5.0928,5.1659,5.2038,5.351,5.4241,5.4587,5.5247,5.5462,5.5489,5.561,5.5577,5.5462,5.5472,5.5401,5.5126,5.4472,5.4164,5.3895,5.3159,5.2351,5.1659,5.1505,5.0971,5.0245,4.9385,4.9038,4.8534,4.7135,4.6603,4.5922,4.454,4.2854,4.1347,4.0264,3.9265,3.8376,3.7606,3.6791,3.629,3.6281,3.5632,3.52,3.5191,3.5262,3.595,3.7462,3.7651,3.9107,4.2297,4.2435,4.3923,4.7308,4.7384,4.9007,5.2374,5.2411,5.3586,5.5981,5.6929,5.7802,5.8593,5.9542,6.0037,6.0076,6.022,6.0264,6.0446,6.2153,6.3717,6.4993,6.5299,6.5413,6.5421,6.5472,6.5537,6.5594,4.8296,4.8825,4.9245,4.9704,5.0774,5.1594,5.1656,5.2102,5.2285,5.1951,5.2661,5.3197,5.3197,5.3197,5.3197,5.3197,5.3197,5.3005,5.2582,5.2202,5.1625,5.0736,4.9894,4.9048,4.824,4.7355,4.6471,4.5663,4.4816,4.4167,4.3701,4.3701,4.3701,4.3778,4.5086,4.6586,4.824,4.9048,4.9894,5.0774,5.1582,5.2428,5.3351,5.4164,5.4741,5.517,5.5555,5.5708,5.5708,5.5708,5.5708,5.5708,5.5708,5.5708,5.5631,5.5247,5.4818,5.4395,5.3972,5.3236,5.2582,5.2582,5.1928,5.1202,5.0774,5.001,4.9163,4.8355,4.7794,4.6963,4.5254,4.3887,4.2585,4.1232,4.0286,3.9427,3.8563,3.7653,3.7135,3.7135,3.6757,3.6481,3.6498,3.648,3.6784,3.7528,3.7966,3.9478,4.2401,4.2525,4.4028,4.7409,4.7485,4.9119,5.2462,5.25,5.3791,5.6298,5.7134,5.7992,5.8859,5.9695,6.0122,6.0197,6.0272,6.0316,6.0473,6.2182,6.3878,6.5413,6.5413,6.5405,6.545,6.5523,6.5639,6.5701,4.9754,5.0397,5.1047,5.1735,5.2537,5.3155,5.3301,5.4127,5.4397,5.3465,5.3722,5.3995,5.401,5.4164,5.4198,5.401,5.401,5.3857,5.351,5.3472,5.3082,5.2197,5.1587,5.0745,4.9707,4.9009,4.8163,4.7158,4.6471,4.5782,4.5124,4.5124,4.5124,4.5163,4.674,4.8163,4.9433,4.9779,5.0697,5.1923,5.2313,5.3274,5.4511,5.4703,5.517,5.5708,5.5708,5.5708,5.5708,5.5708,5.5708,5.5708,5.5708,5.5708,5.5708,5.5708,5.5247,5.4741,5.4741,5.4126,5.3472,5.3472,5.2813,5.2197,5.2197,5.1005,4.9894,4.9707,4.8856,4.7611,4.6079,4.5148,4.4059,4.2513,4.1476,4.0606,3.9759,3.8844,3.8201,3.804,3.7844,3.7725,3.7716,3.7865,3.8025,3.8171,3.8737,4.0142,4.2498,4.2944,4.4499,4.75,4.7957,4.9556,5.2576,5.276,5.4168,5.6673,5.7282,5.8165,5.9208,5.9855,6.0204,6.0316,6.0316,6.0542,6.1065,6.2548,6.4038,6.5413,6.5436,6.5443,6.5509,6.5594,6.5701,6.5793,5.2429,5.2505,5.2581,5.2658,5.3416,5.4256,5.5052,5.5881,5.5917,5.4379,5.5554,5.6571,5.6626,5.7357,5.7511,5.6709,5.6632,5.6016,5.4472,5.4395,5.3972,5.3121,5.3005,5.2202,5.0592,5.0515,4.9668,4.8005,4.7889,4.7812,4.7735,4.7735,4.7735,4.7774,4.874,4.924,4.951,5.1005,5.1769,5.2038,5.3626,5.4357,5.4587,5.5324,5.5631,5.5708,5.5708,5.5708,5.5708,5.5708,5.5708,5.5708,5.5708,5.5708,5.5708,5.5708,5.567,5.5593,5.5593,5.5011,5.4395,5.4395,5.3703,5.3082,5.3082,5.2351,5.1467,5.0745,4.924,4.7812,4.6923,4.6043,4.5184,4.4212,4.332,4.2462,4.157,4.0718,3.9862,3.9052,3.8274,3.776,3.7721,3.84,3.9193,3.9986,4.0063,4.0839,4.2583,4.4064,4.5712,4.7532,4.9067,5.0748,5.2569,5.3369,5.5043,5.7472,5.7549,5.8499,6.0165,6.0241,6.0323,6.0401,6.0401,6.1242,6.2732,6.3694,6.4619,6.5421,6.5457,6.5494,6.5516,6.5694,6.5787,6.58,5.4256,5.476,5.5256,5.5785,5.6167,5.6511,5.6855,5.7187,5.7207,5.6661,5.7232,5.7712,5.7775,5.8088,5.8165,5.7819,5.778,5.7286,5.6093,5.6016,5.5401,5.4049,5.3972,5.3433,5.2241,5.2202,5.1356,4.9668,4.9668,4.9125,4.8082,4.8082,4.8394,4.8933,4.9784,5.0433,5.0966,5.2159,5.2967,5.351,5.4203,5.478,5.5247,5.5593,5.5708,5.5708,5.5708,5.5708,5.5708,5.5708,5.5708,5.5708,5.5708,5.5708,5.5708,5.5708,5.5708,5.5708,5.5708,5.5478,5.5208,5.5208,5.4587,5.3972,5.3972,5.3313,5.2428,5.1582,5.0087,4.8779,4.8471,4.7702,4.6658,4.5294,4.4734,4.4016,4.2654,4.2167,4.1757,4.1433,4.0662,4.0295,4.0705,4.062,4.0912,4.1724,4.1284,4.1695,4.3403,4.4575,4.5977,4.7682,4.9366,5.1013,5.2692,5.3569,5.5286,5.7759,5.7759,5.8696,6.0366,6.0366,6.0387,6.0415,6.0905,6.1784,6.2961,6.3854,6.4687,6.5457,6.5487,6.5552,6.5681,6.5773,6.582,6.5859,5.6008,5.6587,5.7167,5.7772,5.7886,5.7963,5.823,5.8268,5.8398,5.8764,5.8896,5.8842,5.8654,5.8896,5.8934,5.8665,5.866,5.828,5.744,5.7363,5.6747,5.5285,5.5247,5.4703,5.3626,5.3587,5.2895,5.1438,5.1438,5.0818,4.9582,4.9582,4.9933,5.0548,5.1169,5.1741,5.2351,5.3197,5.3933,5.4511,5.4741,5.5203,5.5708,5.5708,5.5862,5.6093,5.6093,5.6247,5.6472,5.6472,5.6472,5.6395,5.5862,5.5708,5.5708,5.5708,5.5708,5.5708,5.5708,5.5708,5.5708,5.5708,5.5285,5.4857,5.4857,5.4203,5.3313,5.2467,5.112,5.0048,4.9822,4.9086,4.8009,4.6552,4.6097,4.5426,4.397,4.3517,4.3221,4.2978,4.2436,4.226,4.2785,4.2321,4.2302,4.3149,4.2867,4.3158,4.4317,4.543,4.6691,4.8138,5.0054,5.1582,5.2811,5.4142,5.5861,5.7886,5.8154,5.8994,6.0415,6.0415,6.0415,6.0453,6.1516,6.2326,6.3035,6.412,6.4967,6.553,6.5559,6.5667,6.5793,6.5813,6.5859,6.5904,5.7835,5.7886,5.7886,5.7886,5.7886,5.8154,5.8949,5.9102,5.9424,6.045,6.0585,6.029,5.9571,6.0242,6.0435,5.955,5.9473,5.9127,5.8352,5.8275,5.7896,5.7022,5.6983,5.617,5.4511,5.4472,5.4049,5.3159,5.3159,5.3159,5.3121,5.3121,5.3121,5.3159,5.3159,5.3159,5.3236,5.4126,5.4472,5.4549,5.5362,5.5708,5.5708,5.5708,5.6247,5.6983,5.6983,5.755,5.828,5.828,5.828,5.7967,5.6242,5.5708,5.5708,5.5708,5.5708,5.5708,5.5708,5.5708,5.5708,5.5708,5.5708,5.5708,5.5708,5.5049,5.4241,5.3351,5.2467,5.162,5.0822,4.9976,4.9086,4.8197,4.7389,4.6581,4.5706,4.4821,4.3957,4.3111,4.2992,4.297,4.2917,4.2874,4.3257,4.413,4.4892,4.5339,4.5288,4.6839,4.8176,4.9066,5.1473,5.2772,5.2811,5.5295,5.7014,5.7925,5.872,5.9568,6.0415,6.0415,6.0415,6.0492,6.2166,6.2935,6.3121,6.4805,6.5537,6.5608,6.5722,6.5793,6.58,6.5872,6.5904,6.5904,5.8644,5.9151,5.9613,5.9613,5.9613,5.988,6.0676,6.0332,6.029,6.122,6.0891,6.054,6.0325,6.0604,6.071,6.0396,6.0396,6.0012,5.916,5.9127,5.8742,5.7934,5.7896,5.7357,5.6247,5.6209,5.5516,5.4087,5.4087,5.378,5.3197,5.3197,5.3197,5.3236,5.3818,5.4087,5.4126,5.4972,5.5324,5.5401,5.6247,5.6593,5.6632,5.7242,5.7627,5.7896,5.7896,5.805,5.8313,5.8313,5.8313,5.8198,5.7665,5.7473,5.7473,5.7473,5.7473,5.7473,5.7473,5.7055,5.6593,5.6593,5.6132,5.5708,5.5708,5.5093,5.4434,5.4126,5.339,5.2697,5.2433,5.1697,5.0813,5.0014,4.9163,4.8317,4.7432,4.7086,4.6581,4.576,4.5145,4.4747,4.4698,4.4651,4.5021,4.5822,4.6689,4.6889,4.6214,4.7783,4.906,4.9901,5.1779,5.3072,5.3683,5.5638,5.7052,5.7925,5.872,5.9568,6.0415,6.0464,6.0484,6.0567,6.2292,6.3054,6.319,6.4876,6.5615,6.576,6.578,6.5826,6.5872,6.5891,6.5904,6.5904,6.0394,6.091,6.1297,6.1325,6.1325,6.1516,6.2013,6.1669,6.1545,6.2112,6.1804,6.1569,6.1645,6.1707,6.1473,6.0864,6.0787,6.0556,6.0012,5.9973,5.9627,5.8781,5.8736,5.8357,5.7517,5.7478,5.6978,5.5934,5.5593,5.4972,5.4126,5.4126,5.4126,5.4164,5.4703,5.5131,5.5478,5.5978,5.6362,5.6703,5.7286,5.7478,5.7555,5.8077,5.8506,5.8776,5.8803,5.904,5.9309,5.9309,5.9309,5.9309,5.9309,5.9309,5.9188,5.8512,5.833,5.8346,5.8346,5.7928,5.7548,5.7548,5.7125,5.6613,5.6284,5.5801,5.5362,5.5016,5.428,5.3703,5.3703,5.2967,5.212,5.1279,5.0438,4.9591,4.8702,4.8312,4.7928,4.7428,4.6855,4.6538,4.6468,4.6468,4.6685,4.7185,4.8009,4.8368,4.8102,4.9084,5.0013,5.0855,5.25,5.3763,5.4637,5.632,5.7589,5.8431,5.9267,5.9955,6.0498,6.0538,6.0711,6.1101,6.252,6.3282,6.3731,6.5105,6.5728,6.5833,6.5833,6.5859,6.5904,6.5904,6.5904,6.5904,6.2734,6.2773,6.2803,6.287,6.2884,6.2923,6.2961,6.2923,6.2952,6.3068,6.3106,6.3135,6.3207,6.3277,6.266,6.1089,6.0941,6.0864,6.0787,6.0787,6.0441,5.9627,5.9588,5.9204,5.839,5.8396,5.8352,5.8313,5.7478,5.667,5.5901,5.5901,5.5901,5.5901,5.5901,5.6324,5.7093,5.7093,5.7555,5.8313,5.8357,5.8396,5.8407,5.8473,5.8995,5.9727,5.9786,6.0303,6.0992,6.0992,6.0992,6.0992,6.0992,6.0992,6.0678,5.8973,5.8536,5.8572,5.8572,5.8533,5.85,5.85,5.8456,5.8176,5.7392,5.7147,5.6879,5.6065,5.5257,5.468,5.4675,5.3939,5.301,5.2197,5.1395,5.0592,4.9779,4.8894,4.8351,4.8274,4.8235,4.8159,4.812,4.8197,4.8274,4.8274,4.9072,4.9926,5.0737,5.0773,5.1168,5.193,5.3541,5.4762,5.56,5.7325,5.8591,5.9402,6.0201,6.0578,6.0578,6.0585,6.109,6.194,6.2739,6.3629,6.4577,6.5454,6.584,6.5904,6.5904,6.5904,6.5904,6.5904,6.5904,6.5916,6.2619,6.2727,6.2803,6.287,6.2884,6.3121,6.3778,6.335,6.3128,6.3838,6.3455,6.3115,6.3135,6.3245,6.3121,6.2737,6.2172,6.1518,6.0825,6.0787,6.0704,6.0517,6.0473,6.0089,5.9242,5.9204,5.8934,5.8313,5.8088,5.7896,5.7665,5.7665,5.7665,5.7665,5.7665,5.7819,5.7973,5.7973,5.8127,5.8357,5.9018,5.9309,5.9353,6.0106,6.0475,6.0668,6.0683,6.0838,6.0992,6.0992,6.0992,6.0992,6.0992,6.0985,6.0933,6.0491,6.037,6.0375,6.0375,5.9884,5.9387,5.9387,5.8885,5.834,5.8132,5.8084,5.7996,5.7803,5.7109,5.6559,5.6475,5.5232,5.4139,5.39,5.3164,5.2549,5.2318,5.1543,5.0774,5.0168,4.951,4.8817,4.8159,4.9317,5.0091,5.0091,5.1457,5.2369,5.2567,5.321,5.359,5.3694,5.4685,5.5638,5.6488,5.8175,5.9434,6.0278,6.0502,6.0578,6.0585,6.0642,6.1166,6.2011,6.2861,6.3777,6.4641,6.5532,6.5885,6.5904,6.5904,6.5904,6.5904,6.5904,6.5935,6.5984,6.3766,6.3831,6.3939,6.4016,6.4038,6.4191,6.4688,6.4344,6.4229,6.4695,6.4436,6.4259,6.4259,6.4392,6.432,6.3929,6.3128,6.2435,6.1973,6.1595,6.1402,6.1402,6.1018,6.0589,6.0089,6.0089,5.9704,5.8858,5.8858,5.866,5.8313,5.8313,5.8313,5.8313,5.8313,5.8511,5.8858,5.8858,5.91,5.9518,6.0008,6.019,6.0299,6.082,6.0995,6.0995,6.1021,6.1069,6.1069,6.1069,6.1069,6.1069,6.1069,6.1051,6.1032,6.1041,6.1069,6.1069,6.1069,6.0688,6.0345,6.0345,5.9978,5.95,5.9113,5.9016,5.8885,5.85,5.8037,5.7756,5.7688,5.6603,5.5591,5.5214,5.4395,5.3701,5.3355,5.2854,5.2392,5.1973,5.1491,5.101,5.051,5.1294,5.1856,5.1856,5.2702,5.3351,5.378,5.4587,5.5022,5.4924,5.5763,5.6762,5.8029,5.9341,6.0218,6.0673,6.0673,6.0673,6.0717,6.1144,6.181,6.2649,6.3532,6.4397,6.5243,6.5705,6.5904,6.5904,6.5935,6.5947,6.5954,6.594,6.597,6.6005,6.512,6.5199,6.5256,6.5368,6.5406,6.5413,6.5413,6.5413,6.5413,6.5413,6.5509,6.5601,6.5601,6.5775,6.559,6.4859,6.4122,6.3583,6.3314,6.2666,6.2287,6.2287,6.155,6.1127,6.1018,6.0864,6.0441,5.9704,5.9704,5.9358,5.8665,5.8665,5.8665,5.8665,5.8665,5.905,5.9704,5.971,6.0167,6.0911,6.0927,6.0965,6.1013,6.0992,6.1017,6.1022,6.1065,6.1118,6.1118,6.1118,6.1118,6.1118,6.1118,6.1118,6.1118,6.1118,6.1118,6.1118,6.1118,6.1118,6.1118,6.1118,6.1046,6.0824,6.0167,5.9944,5.9716,5.8944,5.8713,5.8635,5.8625,5.7931,5.7159,5.6416,5.5567,5.4757,5.4062,5.3715,5.3522,5.356,5.3403,5.3335,5.3335,5.3368,5.342,5.342,5.3651,5.4113,5.4888,5.5658,5.6158,5.6312,5.6989,5.8132,5.9665,6.0435,6.0787,6.0787,6.0941,6.1018,6.1018,6.1903,6.2743,6.3545,6.4282,6.5096,6.5916,6.5916,6.5923,6.5935,6.599,6.6014,6.5982,6.599,6.6013,6.603,6.5027,6.512,6.5202,6.529,6.5368,6.5413,6.5413,6.5413,6.5413,6.5413,6.5509,6.5601,6.5601,6.5775,6.5865,6.5705,6.5551,6.4859,6.3391,6.316,6.3121,6.3121,6.2968,6.2589,6.1903,6.1172,6.0748,6.0589,6.0589,6.0512,6.0396,6.0396,6.0396,6.0396,6.0396,6.0473,6.0594,6.0646,6.0784,6.0916,6.0941,6.0982,6.0997,6.1046,6.1065,6.1104,6.1113,6.1118,6.1118,6.1118,6.1118,6.1118,6.1118,6.1118,6.1118,6.1118,6.1118,6.1118,6.1118,6.1118,6.1118,6.1118,6.107,6.1065,6.091,6.0906,6.0824,6.0708,6.0128,5.9654,5.9573,5.8872,5.824,5.8042,5.7342,5.6763,5.6647,5.5335,5.4409,5.4409,5.3783,5.3392,5.3392,5.4,5.4381,5.4381,5.5736,5.6623,5.6777,5.7549,5.832,5.9053,5.9106,5.9588,6.0589,6.0748,6.0787,6.0825,6.1556,6.1903,6.1941,6.2743,6.3583,6.4397,6.4551,6.5127,6.599,6.599,6.5976,6.5978,6.599,6.5996,6.5996,6.6001,6.6041,6.6085,6.6339,6.6092,6.5871,6.5914,6.5619,6.5413,6.5413,6.5413,6.5413,6.5413,6.5509,6.5601,6.5601,6.5775,6.5904,6.5904,6.5904,6.5551,6.4743,6.4275,6.4006,6.4006,6.3545,6.3121,6.2743,6.2358,6.2166,6.2166,6.171,6.1518,6.1479,6.1018,6.0787,6.0787,6.0787,6.0804,6.0871,6.09,6.0911,6.0969,6.0982,6.1022,6.1046,6.1109,6.1118,6.1118,6.1118,6.1118,6.1157,6.1655,6.181,6.1887,6.2356,6.2515,6.2515,6.2515,6.1853,6.1118,6.1118,6.1118,6.1118,6.1118,6.1118,6.1118,6.1118,6.1118,6.1118,6.1118,6.0809,6.0533,6.051,5.9809,5.9224,5.9201,5.8505,5.7964,5.7964,5.7269,5.6766,5.6766,5.6395,5.615,5.615,5.643,5.6647,5.6647,5.7381,5.7844,5.7844,5.8654,5.9271,5.9696,6.0101,6.0492,6.0916,6.1346,6.1538,6.1577,6.243,6.2854,6.2893,6.3735,6.4313,6.4737,6.5155,6.559,6.6011,6.6011,6.5984,6.6007,6.6041,6.6058,6.6058,6.6091,6.6123,6.6144,6.749,6.7054,6.673,6.6766,6.6184,6.5719,6.5719,6.5528,6.5413,6.5413,6.5509,6.5601,6.5601,6.5775,6.5904,6.5904,6.5904,6.5904,6.5904,6.5282,6.4897,6.4897,6.4083,6.3583,6.3583,6.3391,6.3314,6.3314,6.2666,6.2364,6.2364,6.171,6.1396,6.1396,6.1414,6.1449,6.1489,6.1516,6.1543,6.1625,6.1635,6.1665,6.1698,6.1698,6.1698,6.1698,6.1698,6.1698,6.1814,6.2472,6.2704,6.282,6.3482,6.3715,6.3715,6.3715,6.2747,6.1698,6.1698,6.1698,6.1698,6.1698,6.1698,6.1698,6.1698,6.1698,6.1698,6.1698,6.1698,6.1621,6.1427,6.0886,6.0422,6.019,5.9459,5.8918,5.8918,5.8724,5.8608,5.8608,5.8538,5.8515,5.8515,5.8481,5.8457,5.8457,5.8612,5.8766,5.8766,5.9577,6.0117,6.031,6.0776,6.1108,6.1262,6.189,6.2314,6.2513,6.34,6.3786,6.3825,6.4707,6.5093,6.5093,6.5737,6.6013,6.603,6.603,6.6036,6.6052,6.6102,6.6118,6.6123,6.617,6.6185,6.6185,6.7399,6.7514,6.7605,6.7614,6.706,6.659,6.659,6.591,6.5413,6.5413,6.5509,6.5601,6.5601,6.5775,6.5904,6.5904,6.5904,6.5904,6.5904,6.5827,6.5782,6.5782,6.4974,6.4512,6.4512,6.3698,6.3314,6.3314,6.3237,6.3198,6.3198,6.316,6.3121,6.3121,6.3187,6.3222,6.3228,6.3339,6.3392,6.3402,6.3497,6.3482,6.3521,6.3521,6.3521,6.3521,6.3521,6.3521,6.3521,6.356,6.3598,6.3637,6.3676,6.3715,6.3715,6.3715,6.3598,6.3521,6.3521,6.3521,6.3521,6.3521,6.3521,6.3521,6.3521,6.3521,6.3521,6.3521,6.3521,6.325,6.2467,6.2274,6.1964,6.1157,6.0344,5.9807,5.9807,5.9111,5.8608,5.8608,5.8604,5.8604,5.8604,5.8599,5.8599,5.8599,5.9329,5.9794,5.9794,6.0567,6.1375,6.2187,6.1435,6.1345,6.2083,6.216,6.2629,6.34,6.4288,6.4712,6.4712,6.555,6.5891,6.5891,6.5969,6.6041,6.6091,6.6091,6.6123,6.6175,6.618,6.618,6.618,6.6185,6.6185,6.6185,6.8953,6.8691,6.8434,6.8434,6.7899,6.7439,6.7439,6.6751,6.6216,6.6216,6.5853,6.5601,6.5601,6.5775,6.5904,6.5904,6.5904,6.5904,6.5904,6.5904,6.5904,6.5904,6.559,6.5397,6.5397,6.5089,6.4897,6.4897,6.4359,6.4128,6.4083,6.3545,6.3338,6.3341,6.3403,6.3461,6.3532,6.3575,6.3611,6.3646,6.371,6.3715,6.3715,6.3715,6.3715,6.3715,6.3715,6.3715,6.3792,6.4334,6.4527,6.4604,6.5107,6.5262,6.5262,6.5262,6.5262,6.5262,6.5262,6.4488,6.3715,6.3715,6.3715,6.3715,6.3715,6.3715,6.3715,6.3715,6.3715,6.3598,6.3289,6.3212,6.3096,6.2786,6.2008,6.1466,6.1466,6.0692,6.0151,6.0151,6.0151,6.0151,6.0151,6.0151,6.0151,6.0151,6.046,6.0654,6.0654,6.1466,6.2317,6.3173,6.2863,6.2805,6.3114,6.3655,6.408,6.4428,6.5278,6.5665,6.5665,6.5968,6.6118,6.6118,6.6118,6.6134,6.6155,6.6155,6.6165,6.6185,6.6185,6.6185,6.6185,6.6185,6.6185,6.6185,6.9901,6.9565,6.931,6.931,6.8739,6.8325,6.8325,6.7591,6.698,6.6743,6.6313,6.5908,6.5639,6.5775,6.5904,6.5904,6.5904,6.5904,6.5904,6.5904,6.5904,6.5904,6.5904,6.5904,6.5904,6.5904,6.5904,6.5904,6.5282,6.5025,6.5044,6.4428,6.4156,6.4215,6.4237,6.4288,6.4402,6.4423,6.4453,6.4488,6.4488,6.4488,6.4488,6.4488,6.4488,6.4488,6.4488,6.4488,6.4566,6.5185,6.5378,6.5455,6.6031,6.6185,6.6185,6.6185,6.6185,6.6185,6.6185,6.5378,6.4488,6.4488,6.4488,6.4488,6.4488,6.4488,6.4488,6.4488,6.4488,6.4411,6.414,6.4101,6.4024,6.3753,6.3212,6.282,6.282,6.2278,6.193,6.193,6.193,6.193,6.193,6.193,6.193,6.193,6.193,6.193,6.193,6.2486,6.3231,6.4092,6.4145,6.4266,6.4541,6.4856,6.5146,6.5378,6.5953,6.6185,6.6185,6.6185,6.6185,6.6185,6.6185,6.6185,6.6185,6.6185,6.6195,6.621,6.621,6.622,6.6279,6.6279,6.6279,6.6279,6.9901,7.0059,7.0185,7.0185,6.9654,6.9196,6.9196,6.8478,6.7637,6.6827,6.6818,6.6566,6.5716,6.5775,6.5904,6.5904,6.5904,6.5904,6.5904,6.5904,6.5904,6.5904,6.5904,6.5904,6.5904,6.5904,6.5904,6.5904,6.5904,6.5935,6.6002,6.6002,6.5993,6.6007,6.6069,6.6096,6.6102,6.616,6.6185,6.6185,6.6185,6.6185,6.6185,6.6185,6.6185,6.6185,6.6185,6.6185,6.6185,6.6185,6.6185,6.6185,6.6185,6.6185,6.6185,6.6185,6.6185,6.6185,6.6185,6.6185,6.6185,6.6185,6.6185,6.6185,6.6185,6.6185,6.6185,6.6185,6.6185,6.5953,6.5146,6.4991,6.472,6.3869,6.3715,6.3715,6.3715,6.3715,6.3715,6.3715,6.3715,6.3715,6.3715,6.3719,6.3719,6.3719,6.3719,6.3719,6.3719,6.3762,6.4177,6.4995,6.5075,6.5523,6.6381,6.547,6.5417,6.6185,6.6185,6.6185,6.6185,6.6185,6.6185,6.6185,6.6185,6.6185,6.6185,6.6185,6.6259,6.6307,6.6307,6.634,6.6381,6.6381,6.6381,6.6381,6.9901,7.0059,7.0185,7.0185,7.0112,7.0029,7.0029,6.9349,6.8738,6.8508,6.8081,6.7724,6.7456,6.7011,6.675,6.675,6.625,6.5904,6.5904,6.5904,6.5904,6.5904,6.5904,6.5904,6.5904,6.5904,6.5904,6.5904,6.5947,6.5984,6.6002,6.6005,6.6013,6.6074,6.6091,6.6123,6.616,6.618,6.6185,6.6185,6.6185,6.6185,6.6185,6.6185,6.6185,6.6185,6.6185,6.6185,6.6185,6.6185,6.6185,6.6185,6.6185,6.6185,6.6185,6.6185,6.6185,6.6185,6.6185,6.6185,6.6185,6.6185,6.6185,6.6185,6.6185,6.6185,6.6185,6.6185,6.6185,6.6147,6.5876,6.5837,6.576,6.5494,6.4991,6.4604,6.4604,6.4101,6.3715,6.3715,6.3715,6.3715,6.3715,6.3748,6.3767,6.3767,6.376,6.4049,6.4669,6.4683,6.5118,6.5975,6.5989,6.6148,6.6381,6.6121,6.6108,6.6336,6.6336,6.6336,6.6336,6.6336,6.6336,6.6336,6.6336,6.6336,6.6336,6.6336,6.6345,6.6358,6.6358,6.6367,6.6381,6.6381,6.6381,6.6381,6.9901,7.0059,7.0185,7.0185,7.0294,7.0411,7.0411,6.999,6.9578,6.9234,6.8863,6.8531,6.8222,6.7829,6.7596,6.7628,6.7167,6.6898,6.6898,6.6898,6.6898,6.6898,6.6898,6.659,6.5904,6.5904,6.5904,6.5904,6.5972,6.6014,6.5999,6.6019,6.6074,6.6134,6.6134,6.6155,6.6185,6.6185,6.6185,6.6185,6.6185,6.6185,6.6185,6.6185,6.6185,6.6185,6.6185,6.6185,6.6185,6.6185,6.6185,6.6185,6.6185,6.6185,6.6185,6.6185,6.6185,6.6185,6.6185,6.6456,6.6727,6.6727,6.6456,6.6185,6.6185,6.6185,6.6185,6.6185,6.6185,6.6185,6.6185,6.6185,6.6185,6.6185,6.5799,6.5455,6.5455,6.505,6.4716,6.4716,6.4735,6.4783,6.4783,6.4811,6.4824,6.4824,6.4812,6.5062,6.5605,6.5618,6.586,6.6368,6.6424,6.6432,6.6432,6.6432,6.6416,6.6381,6.6381,6.6381,6.6381,6.6381,6.6381,6.6381,6.6381,6.6381,6.6381,6.6381,6.6394,6.6407,6.6407,6.642,6.6432,6.6432,6.6432,6.6432,6.9901,7.0059,7.0185,7.0185,7.0294,7.0411,7.0411,7.0411,7.0143,6.9387,6.9382,6.9161,6.8484,6.8402,6.8426,6.85,6.843,6.8391,6.8391,6.8391,6.8391,6.8391,6.8391,6.7699,6.6167,6.6134,6.609,6.6019,6.6094,6.6076,6.6007,6.6074,6.6134,6.6185,6.6185,6.6185,6.6185,6.6185,6.6185,6.6185,6.6185,6.6185,6.6185,6.6185,6.6185,6.6185,6.6185,6.6185,6.6185,6.6185,6.6185,6.6185,6.6185,6.6185,6.6224,6.6301,6.6301,6.634,6.6417,6.6998,6.7617,6.7617,6.7036,6.6417,6.6417,6.6417,6.6417,6.6417,6.6417,6.6417,6.6417,6.6417,6.6417,6.6428,6.6428,6.6428,6.6433,6.6438,6.6428,6.6428,6.6393,6.6381,6.6381,6.6385,6.639,6.6394,6.6394,6.6394,6.6394,6.6428,6.641,6.641,6.6485,6.6508,6.6508,6.6508,6.6469,6.6394,6.6394,6.6394,6.6394,6.6394,6.6394,6.6394,6.6394,6.6394,6.6394,6.6394,6.6416,6.641,6.641,6.6435,6.6508,6.6508,6.6508,6.6508,6.9901,7.0059,7.0185,7.0185,7.0294,7.0411,7.0411,7.0411,7.0334,7.0143,7.0224,7.0272,7.0171,6.963,6.9278,6.943,6.8776,6.8391,6.8391,6.8391,6.8391,6.8391,6.8391,6.8237,6.7853,6.7853,6.7513,6.6827,6.6978,6.6651,6.6007,6.6118,6.6175,6.6185,6.6185,6.6185,6.6185,6.6185,6.6185,6.6185,6.6185,6.6185,6.6185,6.6185,6.6185,6.6185,6.6185,6.6185,6.6185,6.6185,6.6185,6.6185,6.6185,6.6185,6.634,6.7036,6.723,6.7384,6.8037,6.8385,6.8501,6.8501,6.8385,6.823,6.823,6.823,6.823,6.823,6.823,6.823,6.823,6.823,6.8251,6.8302,6.8307,6.8321,6.8321,6.7754,6.7332,6.7332,6.676,6.6381,6.6381,6.6411,6.6406,6.6477,6.6481,6.6481,6.6481,6.6489,6.6493,6.6493,6.6501,6.6508,6.6508,6.6508,6.6501,6.6481,6.6481,6.6481,6.6481,6.6481,6.6481,6.6481,6.6481,6.6481,6.6481,6.6481,6.6485,6.6493,6.6493,6.6501,6.6508,6.6508,6.6508,6.6508,6.9901,7.0059,7.0185,7.0185,7.0294,7.0411,7.0411,7.0411,7.0411,7.0411,7.0451,7.0531,7.07,7.033,7.0126,7.0269,6.986,6.959,6.959,6.959,6.959,6.959,6.959,6.959,6.959,6.959,6.8988,6.7763,6.7856,6.7684,6.7293,6.7381,6.7423,6.7423,6.7423,6.7423,6.7423,6.7423,6.7423,6.7423,6.7423,6.7423,6.7423,6.7423,6.7423,6.7423,6.7423,6.7423,6.7423,6.7423,6.7423,6.7423,6.7423,6.7423,6.7539,6.7998,6.8114,6.823,6.8694,6.9087,6.9357,6.9357,6.9705,6.9783,6.8965,6.881,6.881,6.881,6.8837,6.8857,6.8857,6.8839,6.8869,6.8898,6.8902,6.8912,6.8901,6.8536,6.8278,6.8278,6.7907,6.7532,6.7105,6.7087,6.6912,6.6544,6.6508,6.6508,6.6508,6.6897,6.713,6.713,6.7519,6.7748,6.7748,6.7748,6.7748,6.7748,6.7324,6.7324,6.7709,6.7324,6.713,6.7091,6.6664,6.6508,6.6508,6.6508,6.6508,6.6508,6.6508,6.6508,6.6508,6.6508,6.6753,6.7121,6.9901,7.0059,7.0185,7.0185,7.0294,7.0411,7.0411,7.0411,7.0411,7.0411,7.0411,7.0483,7.0693,7.0737,7.0765,7.0885,7.0898,7.0898,7.0898,7.0898,7.0898,7.0898,7.0898,7.0898,7.0898,7.0898,7.0162,6.8699,6.8799,6.8787,6.8701,6.8789,6.881,6.881,6.881,6.881,6.881,6.881,6.881,6.881,6.881,6.881,6.881,6.881,6.881,6.881,6.881,6.881,6.881,6.881,6.881,6.881,6.881,6.881,6.881,6.8965,6.9009,6.9048,6.9197,6.9705,7.0214,7.0214,7.0755,7.0949,6.9561,6.9252,6.9252,6.9252,6.9303,6.9343,6.9343,6.9338,6.9332,6.938,6.9341,6.9346,6.9355,6.9274,6.9218,6.9218,6.9169,6.8835,6.8101,6.8024,6.7713,6.7014,6.6936,6.6936,6.6936,6.7635,6.8024,6.8024,6.8719,6.9111,6.908,6.908,6.9162,6.9325,6.8591,6.8548,6.908,6.8346,6.8043,6.8008,6.7269,6.6958,6.6958,6.6958,6.6958,6.6958,6.6958,6.6958,6.6958,6.6958,6.7408,6.8059,6.9901,7.0059,7.0185,7.0185,7.0294,7.0411,7.0411,7.0411,7.0411,7.0411,7.0411,7.0483,7.0693,7.0794,7.0878,7.0898,7.0898,7.0898,7.0898,7.0898,7.0898,7.0898,7.0898,7.0898,7.0898,7.0898,7.047,6.9618,6.968,6.9366,6.8701,6.8789,6.881,6.881,6.881,6.881,6.881,6.881,6.881,6.881,6.881,6.881,6.881,6.881,6.881,6.881,6.881,6.881,6.881,6.881,6.881,6.881,6.881,6.881,6.8926,6.9628,6.9827,7.002,7.075,7.1021,7.1103,7.1103,7.1219,7.1269,7.1084,7.1056,7.1056,7.1056,7.1097,7.1136,7.1136,7.114,7.1159,7.124,7.1244,7.1223,7.1227,7.0575,7.0113,7.0113,6.9535,6.9069,6.8952,6.8913,6.8874,6.8758,6.8758,6.8758,6.8758,6.8874,6.8913,6.8913,6.903,6.9088,6.9091,6.9091,6.9498,7.0307,7.019,6.9784,6.9091,6.8974,6.8953,6.8984,6.8906,6.8829,6.8829,6.8829,6.8829,6.8829,6.8829,6.8829,6.8829,6.8829,6.891,6.8991,6.9901,7.0059,7.0185,7.0185,7.0294,7.0411,7.0411,7.0411,7.0411,7.0411,7.0411,7.0483,7.0693,7.0815,7.0898,7.0898,7.0898,7.0898,7.0898,7.0898,7.0898,7.0898,7.0898,7.0898,7.0898,7.0898,7.074,7.0465,7.0529,7.0403,7.0087,7.0181,7.0208,7.0208,7.0208,7.0208,7.0208,7.0208,7.0208,7.0208,7.0208,7.0208,7.0208,7.0208,7.0208,7.0208,7.0208,7.0208,7.0208,7.0208,7.0208,7.0208,7.0208,7.0208,7.0286,7.0639,7.0717,7.0794,7.1219,7.1297,7.1302,7.1334,7.134,7.1355,7.1445,7.148,7.1494,7.1465,7.1499,7.1571,7.1571,7.1559,7.1581,7.1603,7.1607,7.1616,7.1598,7.1287,7.1015,7.1015,7.0704,7.0316,6.9807,6.9768,6.9574,6.9146,6.9107,6.9107,6.9107,6.9558,6.9842,6.9842,7.0292,7.0548,7.0565,7.0565,7.077,7.1173,7.1173,7.0933,7.0527,7.0102,6.9918,6.9896,6.9425,6.9192,6.9192,6.9192,6.9192,6.9192,6.9192,6.9192,6.9192,6.9192,6.9516,6.9921]}]]